[[{"header":{"parameterUnit":"m.s-1","parameterCategory":1,"la1":30.6,"la2":29.2853,"lo1":-89.7004,"lo2":-87.6739,"dy":0.0162,"dx":0.0183,"nx":112,"ny":82,"refTime":"2026-04-01T12:00:00:Z","depth":0,"parameterNumber":2,"parameterNumberName":"U-component_of_WINDS"},"data":[0.0,0.0,0.0,0.0,0.0,0.0,0.0,0.0,0.0,0.0,0.0,0.0,0.0,0.0,0.0,0.0,0.0,0.0,0.0,0.0,0.0,0.0,0.0,0.0,0.0,0.0,0.0,0.0,0.0,0.0,0.0,0.0,0.0,0.0,0.0,0.0,0.0,0.0,0.0,0.0,0.0,0.0,0.0,0.0,0.0,0.0,0.0,0.0,0.0,0.0,0.0,0.0,0.0,0.0,0.0,0.0,0.0,0.0,0.0,0.0,0.0,0.0,0.0,0.0,0.0,0.0,0.0,0.0,0.0,0.0,0.0,0.0,0.0,0.0,0.0,0.0,0.0,0.0,0.0,0.0,0.0,0.0,0.0,0.0,0.0,0.0,0.0,0.0,0.0,0.0,0.0,7.5857,8.7094,9.2903,9.0513,8.7359,8.1862,7.3325,0.0,0.0,0.0,0.0,0.0,0.0,0.0,0.0,0.0,0.0,0.0,0.0,0.0,0.0,0.0,0.0,0.0,0.0,0.0,0.0,0.0,0.0,0.0,0.0,0.0,0.0,0.0,0.0,0.0,0.0,0.0,0.0,0.0,0.0,0.0,0.0,0.0,0.0,0.0,0.0,0.0,0.0,0.0,0.0,0.0,0.0,0.0,0.0,0.0,0.0,0.0,0.0,0.0,0.0,0.0,0.0,0.0,0.0,0.0,0.0,0.0,0.0,0.0,0.0,0.0,0.0,0.0,0.0,0.0,0.0,0.0,0.0,0.0,0.0,0.0,0.0,0.0,0.0,0.0,0.0,0.0,0.0,0.0,0.0,0.0,0.0,0.0,0.0,0.0,0.0,0.0,0.0,0.0,0.0,0.0,0.0,0.0,0.0,0.0,0.0,0.0,0.0,0.0,0.0,7.1559,8.5136,9.1522,9.4061,9.2249,8.9675,8.4482,7.5976,0.0,0.0,0.0,0.0,0.0,0.0,0.0,0.0,0.0,0.0,0.0,0.0,0.0,0.0,0.0,0.0,0.0,0.0,0.0,0.0,0.0,0.0,0.0,0.0,0.0,0.0,0.0,0.0,0.0,0.0,0.0,0.0,0.0,0.0,0.0,0.0,0.0,0.0,0.0,0.0,0.0,0.0,0.0,0.0,0.0,0.0,0.0,0.0,0.0,0.0,0.0,0.0,0.0,0.0,0.0,0.0,0.0,0.0,0.0,0.0,0.0,0.0,0.0,0.0,0.0,0.0,0.0,0.0,0.0,0.0,0.0,0.0,0.0,0.0,0.0,0.0,0.0,0.0,0.0,0.0,0.0,0.0,0.0,0.0,0.0,0.0,0.0,0.0,0.0,0.0,0.0,0.0,0.0,0.0,0.0,0.0,0.0,0.0,0.0,0.0,0.0,0.0,0.0,7.0437,7.9977,8.844,9.3172,9.4615,9.1955,8.896,8.3363,7.4401,6.5511,0.0,0.0,0.0,0.0,0.0,0.0,0.0,0.0,0.0,0.0,0.0,0.0,0.0,0.0,0.0,0.0,0.0,0.0,0.0,0.0,0.0,0.0,0.0,0.0,0.0,0.0,0.0,0.0,0.0,0.0,0.0,0.0,0.0,0.0,0.0,0.0,0.0,0.0,0.0,0.0,0.0,0.0,0.0,0.0,0.0,0.0,0.0,0.0,0.0,0.0,0.0,0.0,0.0,0.0,0.0,0.0,0.0,0.0,0.0,0.0,0.0,0.0,0.0,0.0,0.0,0.0,0.0,0.0,0.0,0.0,0.0,0.0,0.0,0.0,0.0,0.0,0.0,0.0,0.0,0.0,0.0,0.0,0.0,0.0,0.0,0.0,0.0,0.0,0.0,0.0,0.0,0.0,0.0,0.0,0.0,0.0,0.0,0.0,0.0,0.0,0.0,0.0,7.9435,8.6782,9.0167,9.3975,9.478,9.1061,8.7188,8.1069,7.1908,6.3953,0.0,0.0,0.0,0.0,0.0,0.0,0.0,0.0,0.0,0.0,0.0,0.0,0.0,0.0,0.0,0.0,0.0,0.0,0.0,0.0,0.0,0.0,0.0,0.0,0.0,0.0,0.0,0.0,0.0,0.0,0.0,0.0,0.0,0.0,0.0,0.0,0.0,0.0,0.0,0.0,0.0,0.0,0.0,0.0,0.0,0.0,0.0,0.0,0.0,0.0,0.0,0.0,0.0,0.0,0.0,0.0,0.0,0.0,0.0,0.0,0.0,0.0,0.0,0.0,0.0,0.0,0.0,0.0,0.0,0.0,0.0,0.0,0.0,0.0,0.0,0.0,0.0,0.0,0.0,0.0,0.0,0.0,0.0,0.0,0.0,0.0,0.0,0.0,0.0,0.0,0.0,0.0,0.0,0.0,0.0,0.0,0.0,0.0,0.0,0.0,0.0,0.0,8.1862,8.8517,9.1941,9.4711,9.4531,9.01,8.5069,7.8514,6.993,6.1503,0.0,0.0,0.0,0.0,0.0,0.0,0.0,0.0,0.0,0.0,0.0,0.0,0.0,0.0,0.0,0.0,0.0,0.0,0.0,0.0,0.0,0.0,0.0,0.0,0.0,0.0,0.0,0.0,0.0,0.0,0.0,0.0,0.0,0.0,0.0,0.0,0.0,0.0,0.0,0.0,0.0,0.0,0.0,0.0,0.0,0.0,0.0,0.0,0.0,0.0,0.0,0.0,0.0,0.0,0.0,0.0,0.0,0.0,0.0,0.0,0.0,0.0,0.0,0.0,0.0,0.0,0.0,0.0,0.0,0.0,0.0,0.0,0.0,0.0,0.0,0.0,0.0,0.0,0.0,0.0,0.0,0.0,0.0,0.0,0.0,0.0,0.0,0.0,0.0,0.0,0.0,0.0,0.0,0.0,0.0,0.0,0.0,0.0,0.0,0.0,0.0,0.0,8.2907,8.9615,0.0,9.4359,9.4055,8.9558,8.4391,7.7803,6.9351,0.0,0.0,0.0,0.0,0.0,0.0,0.0,0.0,0.0,0.0,0.0,0.0,0.0,0.0,0.0,0.0,0.0,0.0,0.0,0.0,0.0,0.0,0.0,0.0,0.0,0.0,0.0,0.0,0.0,0.0,0.0,0.0,0.0,0.0,0.0,0.0,0.0,0.0,0.0,0.0,0.0,0.0,0.0,0.0,0.0,0.0,0.0,0.0,0.0,0.0,0.0,0.0,0.0,0.0,0.0,0.0,0.0,0.0,0.0,0.0,0.0,0.0,0.0,0.0,0.0,0.0,0.0,0.0,0.0,0.0,0.0,0.0,0.0,0.0,0.0,0.0,0.0,0.0,0.0,0.0,0.0,0.0,0.0,0.0,0.0,0.0,0.0,0.0,0.0,0.0,0.0,0.0,0.0,0.0,0.0,0.0,0.0,0.0,0.0,0.0,0.0,0.0,7.4183,8.3581,9.0125,0.0,9.4008,9.3481,8.9009,8.3606,7.689,6.8473,0.0,0.0,0.0,0.0,0.0,0.0,0.0,0.0,0.0,0.0,0.0,0.0,0.0,0.0,0.0,0.0,0.0,0.0,0.0,0.0,0.0,0.0,0.0,0.0,0.0,0.0,0.0,0.0,0.0,0.0,0.0,0.0,0.0,0.0,0.0,0.0,0.0,0.0,0.0,0.0,0.0,0.0,0.0,0.0,0.0,0.0,0.0,0.0,0.0,0.0,0.0,0.0,0.0,0.0,0.0,0.0,0.0,0.0,0.0,0.0,0.0,0.0,0.0,0.0,0.0,0.0,0.0,0.0,0.0,0.0,0.0,0.0,0.0,0.0,0.0,0.0,0.0,0.0,0.0,0.0,0.0,0.0,0.0,0.0,0.0,0.0,0.0,0.0,0.0,0.0,0.0,0.0,0.0,0.0,0.0,0.0,0.0,0.0,0.0,0.0,0.0,0.0,7.5626,8.4041,8.9996,9.2342,9.3801,9.2815,8.8418,8.2592,7.5594,0.0,0.0,0.0,0.0,0.0,0.0,0.0,0.0,0.0,0.0,0.0,0.0,0.0,0.0,0.0,0.0,0.0,0.0,0.0,0.0,0.0,0.0,0.0,0.0,0.0,0.0,0.0,0.0,0.0,0.0,0.0,0.0,0.0,0.0,0.0,0.0,0.0,0.0,0.0,0.0,0.0,0.0,0.0,0.0,0.0,0.0,0.0,0.0,0.0,0.0,0.0,0.0,0.0,0.0,0.0,0.0,0.0,0.0,0.0,0.0,0.0,0.0,0.0,0.0,0.0,0.0,0.0,0.0,0.0,0.0,0.0,0.0,0.0,0.0,0.0,0.0,0.0,0.0,0.0,0.0,0.0,0.0,0.0,0.0,0.0,0.0,0.0,0.0,0.0,0.0,0.0,0.0,0.0,0.0,0.0,0.0,0.0,0.0,0.0,0.0,0.0,0.0,0.0,0.0,8.4165,9.0184,9.1868,9.3296,9.3053,9.0479,8.5906,7.9919,7.2174,0.0,0.0,0.0,0.0,0.0,0.0,0.0,0.0,0.0,0.0,0.0,0.0,0.0,0.0,0.0,0.0,0.0,0.0,0.0,0.0,0.0,0.0,0.0,0.0,0.0,0.0,0.0,0.0,0.0,0.0,0.0,0.0,0.0,0.0,0.0,0.0,0.0,0.0,0.0,0.0,0.0,0.0,0.0,0.0,0.0,0.0,0.0,0.0,0.0,0.0,0.0,0.0,0.0,0.0,0.0,0.0,0.0,0.0,0.0,0.0,0.0,0.0,0.0,0.0,0.0,0.0,0.0,0.0,0.0,0.0,0.0,0.0,0.0,0.0,0.0,0.0,0.0,0.0,0.0,0.0,0.0,0.0,0.0,0.0,0.0,0.0,0.0,0.0,0.0,0.0,0.0,0.0,0.0,0.0,0.0,0.0,0.0,0.0,0.0,0.0,0.0,0.0,7.5569,8.4129,8.9886,9.1344,9.2736,9.2816,9.1072,8.7705,8.2359,7.4622,0.0,0.0,0.0,0.0,0.0,0.0,0.0,0.0,0.0,0.0,0.0,0.0,0.0,0.0,0.0,0.0,0.0,0.0,0.0,0.0,0.0,0.0,0.0,0.0,0.0,0.0,0.0,0.0,0.0,0.0,0.0,0.0,0.0,0.0,0.0,0.0,0.0,0.0,0.0,0.0,0.0,0.0,0.0,0.0,0.0,0.0,0.0,0.0,0.0,0.0,0.0,0.0,0.0,0.0,0.0,0.0,0.0,0.0,0.0,0.0,0.0,0.0,0.0,0.0,0.0,0.0,0.0,0.0,0.0,0.0,0.0,0.0,0.0,0.0,0.0,0.0,0.0,0.0,0.0,0.0,0.0,0.0,0.0,0.0,0.0,0.0,0.0,0.0,0.0,0.0,0.0,0.0,0.0,0.0,0.0,0.0,0.0,0.0,0.0,0.0,0.0,0.0,7.5894,8.3966,8.9349,9.0834,9.217,9.2364,9.0759,8.8493,8.3663,7.5578,0.0,0.0,0.0,0.0,0.0,0.0,0.0,0.0,0.0,0.0,0.0,0.0,0.0,0.0,0.0,0.0,0.0,0.0,0.0,0.0,0.0,0.0,0.0,0.0,0.0,0.0,0.0,0.0,0.0,0.0,0.0,0.0,0.0,0.0,0.0,0.0,0.0,0.0,0.0,0.0,0.0,0.0,0.0,0.0,0.0,0.0,0.0,0.0,0.0,0.0,0.0,0.0,0.0,0.0,0.0,0.0,0.0,0.0,0.0,0.0,5.7786,0.0,0.0,0.0,0.0,0.0,0.0,0.0,0.0,0.0,0.0,0.0,0.0,0.0,0.0,0.0,0.0,0.0,0.0,0.0,0.0,0.0,0.0,0.0,0.0,0.0,0.0,0.0,0.0,0.0,0.0,0.0,0.0,0.0,0.0,0.0,0.0,0.0,0.0,0.0,0.0,0.0,7.5635,8.3731,8.9138,9.068,9.2152,9.2579,9.1539,9.0387,8.6486,7.8922,0.0,0.0,0.0,0.0,0.0,0.0,0.0,0.0,0.0,0.0,0.0,0.0,0.0,0.0,0.0,0.0,0.0,0.0,0.0,0.0,0.0,0.0,0.0,0.0,0.0,0.0,0.0,0.0,0.0,0.0,0.0,0.0,0.0,0.0,0.0,0.0,0.0,0.0,0.0,0.0,0.0,0.0,0.0,0.0,0.0,0.0,0.0,0.0,0.0,0.0,0.0,0.0,0.0,0.0,0.0,0.0,0.0,0.0,0.0,0.0,0.0,6.2858,0.0,0.0,0.0,0.0,0.0,0.0,0.0,0.0,0.0,0.0,0.0,0.0,0.0,0.0,0.0,0.0,0.0,0.0,0.0,0.0,0.0,0.0,0.0,0.0,0.0,0.0,0.0,0.0,0.0,0.0,0.0,0.0,0.0,0.0,0.0,0.0,0.0,0.0,0.0,0.0,7.5498,8.3814,8.935,9.0538,9.2042,9.2468,9.1242,9.0387,8.7126,8.0475,7.4308,0.0,0.0,0.0,0.0,0.0,0.0,0.0,0.0,0.0,0.0,0.0,0.0,0.0,0.0,0.0,0.0,0.0,0.0,0.0,0.0,0.0,0.0,0.0,0.0,0.0,0.0,0.0,0.0,0.0,0.0,0.0,0.0,0.0,0.0,0.0,0.0,0.0,0.0,0.0,0.0,0.0,0.0,0.0,0.0,0.0,0.0,0.0,0.0,0.0,0.0,0.0,0.0,0.0,7.5048,7.6485,7.8263,8.0442,8.1831,8.2202,7.6466,7.267,7.0545,0.0,0.0,0.0,0.0,0.0,0.0,0.0,0.0,0.0,0.0,0.0,0.0,0.0,0.0,0.0,0.0,0.0,0.0,0.0,0.0,0.0,0.0,0.0,0.0,0.0,7.4546,7.3373,0.0,0.0,0.0,0.0,0.0,0.0,0.0,0.0,0.0,0.0,0.0,0.0,7.5649,8.4059,8.9615,9.0424,9.1985,9.2439,9.1056,9.0053,8.723,8.1887,7.6358,7.0444,0.0,0.0,0.0,0.0,0.0,0.0,0.0,0.0,0.0,0.0,0.0,0.0,0.0,0.0,0.0,0.0,0.0,0.0,0.0,0.0,0.0,0.0,0.0,0.0,0.0,0.0,0.0,0.0,0.0,0.0,0.0,0.0,5.1862,5.2925,0.0,0.0,0.0,0.0,0.0,0.0,0.0,0.0,0.0,0.0,0.0,0.0,0.0,7.2338,7.4641,7.7796,8.0324,8.2235,8.3192,8.4375,8.576,8.7804,8.8793,8.9043,9.0387,0.0,7.9361,7.8473,0.0,0.0,0.0,0.0,0.0,0.0,0.0,0.0,0.0,0.0,0.0,0.0,0.0,0.0,0.0,0.0,0.0,0.0,0.0,0.0,0.0,0.0,8.2257,8.3055,8.3622,8.3692,0.0,7.6269,6.9796,6.6435,0.0,0.0,0.0,0.0,0.0,0.0,0.0,0.0,7.6512,8.4389,8.9615,9.0424,9.1985,9.2922,9.2699,9.1242,8.879,8.5194,8.0252,7.5199,6.9973,6.4185,0.0,0.0,0.0,0.0,0.0,0.0,0.0,0.0,0.0,0.0,0.0,0.0,0.0,0.0,0.0,0.0,0.0,0.0,0.0,0.0,0.0,0.0,0.0,0.0,0.0,0.0,0.0,0.0,0.0,5.2489,5.6367,5.722,5.7446,5.7066,0.0,0.0,0.0,0.0,0.0,0.0,0.0,0.0,0.0,7.288,7.6892,8.0337,8.3202,8.6388,8.8883,9.0685,9.1723,9.2831,9.3972,9.5624,9.6402,9.6532,9.8222,9.6319,9.165,8.7064,8.2553,7.8117,0.0,0.0,0.0,0.0,7.2116,7.3893,7.6002,7.6194,0.0,0.0,0.0,0.0,0.0,0.0,0.0,0.0,0.0,0.0,0.0,0.0,0.0,8.6593,8.7455,8.7887,8.6854,8.3509,7.9335,0.0,7.0761,6.6727,6.219,0.0,0.0,0.0,0.0,0.0,7.869,8.5671,9.0276,9.1093,9.2282,9.2802,9.2319,9.1613,8.9979,8.72,8.4116,8.0178,7.5267,7.0437,6.5637,0.0,0.0,0.0,0.0,0.0,0.0,0.0,0.0,0.0,0.0,0.0,0.0,0.0,0.0,0.0,0.0,0.0,0.0,0.0,0.0,0.0,0.0,0.0,0.0,0.0,0.0,0.0,0.0,5.7244,6.1033,6.2253,6.2965,6.2675,0.0,0.0,0.0,0.0,0.0,0.0,7.1359,7.3768,7.6781,8.0622,8.4173,8.7333,9.0159,9.3297,9.5525,9.6889,9.8213,9.9242,10.0095,10.1388,10.1995,10.2086,10.2795,10.241,10.0787,9.4398,8.986,8.6494,8.2404,8.0404,7.9906,7.9906,8.0988,8.2749,8.4733,8.4912,8.4172,8.3312,0.0,7.4423,7.0728,0.0,0.0,0.0,0.0,7.6327,8.1366,8.5567,8.8575,8.904,9.0003,9.0438,8.8883,8.8167,8.6301,0.0,7.7379,7.3501,6.8752,0.0,0.0,0.0,0.0,7.4742,8.0909,8.6847,9.0796,9.1613,9.2468,9.2728,9.2096,9.165,9.0536,8.8538,8.6457,8.3485,7.9405,7.5318,7.0667,0.0,0.0,0.0,0.0,0.0,0.0,0.0,0.0,0.0,0.0,0.0,0.0,0.0,0.0,0.0,0.0,0.0,0.0,0.0,0.0,0.0,0.0,0.0,0.0,0.0,0.0,0.0,0.0,0.0,0.0,6.8933,6.9236,0.0,0.0,0.0,0.0,6.9953,7.3361,7.6591,7.9549,8.2095,8.492,8.8067,9.0631,9.2693,9.42,9.7476,9.9142,9.9254,10.1003,10.2016,10.2315,10.3388,10.3986,10.3995,10.4198,10.3996,10.3212,9.9665,9.6313,9.3052,8.9278,8.7763,8.7724,8.7724,8.8773,9.0604,9.3251,9.3635,9.2847,9.2102,8.6247,7.9092,7.7025,7.4393,0.0,0.0,7.9194,8.2281,8.5569,8.9324,9.2194,9.2016,9.2415,9.2591,9.1691,9.0271,8.8044,0.0,8.0665,7.7573,7.5066,0.0,6.8429,7.1678,7.4294,7.7668,8.2653,8.7508,9.0796,9.1613,9.2468,9.2996,9.2959,9.1465,9.0164,8.9318,8.6234,8.367,8.1894,7.7844,7.3722,6.9661,6.4766,0.0,0.0,0.0,0.0,0.0,0.0,0.0,0.0,0.0,0.0,0.0,0.0,0.0,0.0,0.0,0.0,0.0,0.0,0.0,0.0,0.0,0.0,0.0,0.0,0.0,0.0,0.0,0.0,7.5449,7.6654,0.0,7.7184,7.4894,7.4764,7.8013,8.1351,8.46,8.7734,8.9734,9.204,9.4733,9.6059,9.7436,9.8986,10.0208,10.1016,10.1494,10.1694,10.18,10.1795,10.22,10.2415,10.2415,10.2502,10.2498,10.2296,10.0894,9.9306,9.7401,9.5204,9.4334,9.4334,9.4334,9.4772,9.5582,9.7046,9.6784,9.5399,9.3011,8.9386,8.5584,8.3571,8.1387,8.0228,8.3226,8.5216,8.7167,9.0308,9.2496,9.3803,9.3666,9.3709,9.3397,9.1985,9.0833,8.9527,8.7628,8.5023,8.2351,7.9951,7.7191,7.5894,7.7574,7.8979,8.1653,8.6563,8.9565,9.1985,9.3879,9.4362,9.414,9.3108,9.2439,9.1093,8.8686,8.7423,8.5825,8.3633,8.1114,7.8118,7.4583,6.9179,6.3596,0.0,0.0,0.0,0.0,0.0,0.0,0.0,0.0,0.0,0.0,0.0,0.0,0.0,0.0,0.0,0.0,0.0,0.0,0.0,0.0,0.0,0.0,0.0,0.0,0.0,0.0,7.7062,8.0038,8.1972,8.3142,8.3374,8.1576,8.16,8.455,8.7613,9.0371,9.2738,9.4439,9.6316,9.8421,9.913,10.0283,10.1908,10.2412,10.2999,10.3502,10.3303,10.3203,10.3203,10.3203,10.3009,10.2705,10.2385,10.2386,10.2615,10.2193,10.1795,10.1491,9.983,9.918,9.9103,9.8858,9.8827,9.8884,9.9288,9.8762,9.7543,9.5278,9.3058,9.1016,8.9456,8.7499,8.6306,8.8455,8.9384,9.0227,9.2574,9.3522,9.3826,9.3756,9.3676,9.3221,9.1841,9.0518,8.9519,8.926,8.7451,8.5409,8.3522,8.185,8.1033,8.1813,8.2444,8.4376,8.8753,9.0685,9.2431,9.4362,9.4845,9.4214,9.2327,9.191,9.0581,8.7832,8.6903,8.5714,8.4042,8.2192,7.9739,7.6729,7.0208,6.3999,5.8242,0.0,0.0,0.0,0.0,0.0,0.0,0.0,0.0,0.0,0.0,0.0,0.0,0.0,0.0,0.0,0.0,0.0,0.0,0.0,0.0,0.0,0.0,0.0,6.6969,7.4218,8.0282,8.2665,8.5056,8.6771,8.7497,8.6756,8.7186,8.9445,9.1957,9.3722,9.4428,9.6057,9.7648,9.9071,9.9879,10.1007,10.2705,10.431,10.5117,10.5117,10.5899,10.6313,10.6313,10.6313,10.5778,10.5007,10.421,10.4013,10.4105,10.3493,10.4122,10.5101,10.2984,10.2202,10.2005,10.1312,10.0891,10.07,10.0315,9.9955,9.9698,9.9356,9.7383,9.4969,9.4389,9.2619,9.0943,9.1505,9.1481,9.1449,9.2262,9.2455,9.2455,9.2455,9.2409,9.2188,9.1412,8.9477,8.8119,8.8889,8.7847,8.659,8.581,8.4361,8.3581,8.4399,8.451,0.0,8.8938,9.0685,9.2022,9.2959,9.3739,9.3211,9.0759,8.9793,8.8567,8.6813,8.448,8.3143,8.3069,8.0735,7.8283,7.5757,6.7831,6.0916,5.5238,0.0,0.0,0.0,0.0,0.0,0.0,0.0,0.0,0.0,0.0,0.0,0.0,0.0,0.0,0.0,0.0,0.0,0.0,0.0,0.0,0.0,0.0,7.0948,7.2015,7.8573,8.4616,8.8222,8.9629,9.1085,9.3052,9.1977,9.2134,9.452,9.5374,9.6329,9.7713,9.7137,9.7468,9.9061,9.9318,10.0503,10.2705,10.3686,10.4493,10.5117,10.4798,10.4588,10.4588,10.4588,10.41,10.3319,10.3099,10.2699,10.2182,10.2105,10.2304,10.2904,10.4518,10.4688,10.4204,10.3883,10.3085,10.1881,10.0784,10.0512,10.0411,9.9013,9.7849,9.6691,9.5015,9.3881,9.3149,9.3057,9.3005,9.3157,9.3978,9.3748,9.3268,9.3268,9.2824,9.2344,9.2114,9.0735,8.9568,8.9695,8.8996,8.8154,8.7339,8.6725,8.6386,8.6608,8.6786,0.0,8.9756,9.0501,9.1613,9.3657,9.4065,9.3434,9.1539,9.0542,8.8557,0.0,8.3135,8.1578,8.0428,7.923,7.7175,7.4128,6.8951,6.4339,0.0,0.0,0.0,0.0,0.0,0.0,0.0,0.0,0.0,0.0,0.0,0.0,0.0,0.0,0.0,0.0,0.0,0.0,0.0,0.0,0.0,0.0,7.1566,7.6656,7.9152,8.3737,8.7826,9.045,9.2299,9.4042,9.5832,9.5474,9.5841,9.7557,9.8337,9.8668,9.8594,9.8337,9.8484,9.9061,9.9769,10.109,10.3182,10.4404,10.5212,10.5595,10.5212,10.4908,10.4908,10.4908,10.4504,0.0,10.3282,10.2889,10.2495,10.2081,10.2313,0.0,0.0,0.0,0.0,0.0,10.2595,10.1409,10.0706,10.0511,10.0319,9.9141,9.8063,9.6948,9.5227,9.372,9.2527,9.1985,9.1371,9.1122,9.2301,9.2218,9.1997,9.2697,9.2476,9.2071,9.1731,9.0506,8.9566,8.9833,0.0,0.0,8.8565,8.8585,8.8531,8.8531,8.868,8.9267,9.0617,9.1247,9.2104,9.3545,9.3991,9.3372,9.1293,9.0275,0.0,0.0,0.0,8.1007,7.9449,7.8353,0.0,0.0,0.0,0.0,0.0,0.0,0.0,0.0,5.7494,5.9194,0.0,0.0,0.0,0.0,0.0,0.0,0.0,0.0,0.0,0.0,0.0,0.0,0.0,0.0,0.0,0.0,7.6337,8.2084,8.6619,8.9054,9.0606,9.1225,9.385,9.5978,9.6869,9.7603,9.8374,9.9172,10.0586,10.0403,9.8273,0.0,0.0,0.0,0.0,10.2312,10.389,10.5616,10.6386,10.6386,10.6386,10.6386,10.6386,10.6386,10.5899,10.5081,10.431,10.4,10.3806,10.3109,10.3295,10.4015,10.3102,10.2584,10.2389,10.1602,10.0897,10.0318,10.0505,0.0,0.0,9.947,9.8144,9.648,9.5158,9.3021,9.084,8.9913,8.8638,8.7904,8.9436,8.9877,9.0326,9.1877,9.2281,9.2134,9.1317,9.0101,8.9349,8.9839,8.878,8.8265,8.9581,8.9867,8.9941,8.9941,9.0056,9.0432,9.118,9.208,9.2715,9.279,0.0,0.0,9.0593,8.9523,8.7887,8.5376,8.2981,8.1059,7.978,7.8272,7.7485,7.7559,7.5332,7.3104,7.092,7.092,7.0963,7.0982,6.6605,6.6271,0.0,0.0,0.0,0.0,0.0,0.0,0.0,0.0,0.0,0.0,0.0,0.0,0.0,0.0,0.0,7.5132,8.0836,8.5645,8.8519,9.2079,9.4658,9.5437,9.6098,9.7052,9.8474,9.8768,9.9218,9.9989,10.0403,10.0283,9.9852,9.9512,0.0,10.0099,10.099,10.2312,10.389,10.5616,10.6386,10.6386,0.0,0.0,10.6386,10.6386,10.5899,10.5117,10.4887,10.4504,10.389,10.3696,10.3386,10.2991,10.321,10.3189,10.3003,10.2208,10.1784,10.1582,10.1194,10.1106,10.0921,9.9307,9.8462,9.7607,9.5312,9.4163,0.0,9.1767,9.1106,9.1106,9.2125,9.2868,9.3602,9.4547,9.529,9.5547,9.473,9.3924,9.2958,9.1628,9.1268,9.1027,9.0517,8.9929,8.9515,8.9515,8.9672,8.9867,9.0023,9.037,9.0812,9.1486,9.1708,9.158,9.1066,8.9526,8.7839,8.6029,8.2995,8.1229,8.1042,8.0118,7.9897,8.0562,7.9453,7.8743,7.8406,7.8406,7.8811,7.9472,7.3385,7.193,0.0,0.0,0.0,0.0,0.0,0.0,0.0,0.0,0.0,0.0,0.0,6.3271,6.7646,0.0,7.4625,7.9029,8.3508,8.7399,9.0179,9.3446,9.5795,9.6612,9.741,9.8374,9.9575,10.0099,10.0513,10.0917,10.131,10.108,10.0319,10.0686,10.0907,10.0917,10.2091,10.3303,10.4504,10.5799,10.6386,10.6386,10.6386,10.6386,10.6386,10.6386,10.6203,10.5705,10.5301,10.4897,10.4504,10.411,10.3403,10.2715,10.3021,10.2817,10.2384,10.1886,10.1812,10.1785,10.1883,10.151,10.0812,10.0291,9.9201,9.7854,9.6168,9.4751,9.3418,9.217,9.1216,9.0877,9.2134,9.2758,9.3345,9.4593,9.5217,9.5511,9.5501,9.4916,9.4237,9.3767,9.3079,9.2454,9.1923,9.117,9.0583,9.0583,9.079,9.0913,9.0913,9.1079,9.1375,9.1745,9.1782,9.1599,9.1098,8.9378,8.7681,8.613,8.4114,8.2905,8.2649,8.1837,8.1792,8.2612,8.1829,8.1515,8.1696,8.1696,8.2238,8.3113,7.9851,7.8952,0.0,0.0,0.0,0.0,0.0,0.0,0.0,0.0,6.0184,6.31,6.626,6.9599,7.319,7.572,7.8516,8.2304,8.5591,8.8711,9.1657,9.4189,9.5978,9.6612,9.8107,9.9428,10.0209,10.099,10.1504,10.1504,10.2081,10.1898,10.0613,10.2081,10.2595,10.1981,10.3513,10.4687,10.529,10.6009,10.6386,10.6386,10.6386,10.6386,10.6386,10.6386,10.6386,10.6386,10.5715,10.5411,10.5301,10.4504,10.3806,10.3219,10.2999,10.2485,10.1908,10.1798,10.1688,10.1788,10.2705,10.2008,10.0796,10.132,9.9962,9.7943,9.6979,9.5217,9.3382,9.2537,9.1363,9.0693,9.2134,9.2611,9.3125,9.4639,9.5116,9.5401,9.6052,9.5584,9.5144,9.5648,9.4547,9.3529,9.3345,9.2758,9.217,9.184,9.1939,9.2038,9.2038,9.2171,9.2268,9.2268,9.2268,9.1875,9.0906,8.9506,8.8112,8.6762,8.6043,8.541,8.4775,8.4075,8.3956,8.448,8.3809,8.3564,8.3752,8.3752,8.4193,8.5067,8.5067,8.4896,5.1376,5.4363,5.898,6.1261,6.3478,6.5106,0.0,0.0,6.795,6.9788,7.2876,7.5765,7.76,7.989,8.2378,8.4984,8.8096,9.084,9.2684,9.5034,9.6612,9.6685,9.8107,9.9428,10.0209,10.099,10.1504,10.1504,10.1587,10.1587,10.1394,10.2899,10.3696,10.3586,10.5285,10.6203,10.6313,10.6386,10.6386,10.6386,10.6386,10.6386,10.6386,10.6386,10.6386,10.6386,10.6313,10.6313,10.6203,10.5301,10.4887,10.4787,10.398,10.3696,10.3513,10.2815,10.2595,10.2705,10.3513,10.3182,10.2291,10.1688,10.0403,9.8694,9.7163,9.6015,9.5061,9.4263,9.3896,9.3969,9.4841,9.5611,9.6392,9.7282,9.8043,9.8584,9.8694,9.808,9.7319,9.6685,9.5832,9.4987,9.4299,9.4088,9.3538,9.2024,9.1822,9.184,9.184,9.1858,9.1876,9.1876,9.1876,9.1527,9.0692,9.0454,8.9968,8.9096,8.8949,8.8526,8.7744,8.7634,8.7267,8.6671,8.656,8.6617,8.6811,8.6811,8.7021,8.741,8.741,8.6711,5.7658,6.0293,6.4203,0.0,6.9355,7.1256,7.1352,7.2559,7.4201,7.6167,7.861,8.0921,8.2496,8.3222,8.4389,0.0,8.9124,9.1023,9.217,9.4446,9.5648,9.473,9.5208,9.6465,9.8677,9.9622,10.0283,10.0806,10.121,10.1688,10.2201,10.3303,10.41,10.4614,10.5799,10.6386,10.6386,10.6386,10.6386,10.6386,10.6386,10.6386,10.6386,10.6386,10.6386,10.6386,10.6386,10.6386,10.6386,10.6009,10.5605,10.5117,10.4714,10.432,10.389,10.3513,10.3403,10.3513,10.431,10.41,10.3293,10.3009,10.1798,10.0293,9.9145,9.8217,9.752,9.719,9.7089,9.7052,9.6942,9.7163,9.7356,9.7236,9.7456,9.7823,9.83,9.775,9.7236,9.7356,9.6392,9.5391,9.5061,9.4593,9.4052,9.3354,9.3244,9.3244,9.3244,9.3244,9.3244,9.3244,9.2831,9.2427,9.2088,9.1583,9.0959,9.0143,9.0106,8.9739,8.8931,8.8895,8.8739,8.8409,8.8409,8.8505,8.8704,8.8704,8.8882,8.9193,8.9193,8.892,6.2263,6.4749,0.0,7.1225,7.4102,7.6173,7.6289,7.7486,7.8909,8.0128,8.18,8.3425,8.4576,8.4539,8.5105,8.7537,8.9523,9.1153,9.2235,9.4372,9.5244,9.3639,9.3235,9.4006,9.6365,9.7713,9.8841,9.9879,10.109,10.2091,10.2705,10.3696,10.4504,10.5117,10.5899,10.6386,10.6386,10.6607,10.6717,10.6717,10.7011,10.7084,10.7084,10.7084,10.7084,10.7084,10.7084,10.7084,10.7084,10.7084,10.6706,10.6108,10.5899,10.5385,10.4918,10.4698,10.4394,10.431,10.5201,10.4897,10.421,10.421,10.3009,10.1394,10.0806,9.9916,9.9098,9.9098,9.9098,9.8951,9.8374,9.809,9.7796,9.7456,9.7199,9.7309,9.8347,9.7933,9.753,9.8117,9.7126,9.6088,9.5868,9.5364,9.496,9.496,9.496,9.4813,9.4345,9.4309,9.4309,9.4309,9.3786,9.3345,9.3116,9.2537,9.1803,9.0987,9.0913,9.0583,8.9767,8.973,8.962,8.94,8.94,8.9471,8.9611,8.9611,8.9776,9.0044,9.0044,9.0181,6.3378,0.0,7.0066,7.4377,7.7535,7.9572,7.9647,8.0843,8.164,8.0604,8.139,8.2251,8.2287,8.2967,8.4391,8.6891,8.949,9.1841,9.3667,9.5506,9.6061,9.4456,9.3565,9.3125,0.0,9.5401,9.7419,9.9025,10.13,10.2705,10.2695,10.42,10.5117,10.5117,10.5899,10.6386,10.6386,10.7205,10.7609,10.7609,10.8406,10.8688,10.8688,10.8688,10.8688,10.8688,10.8688,10.8688,10.8688,10.8688,10.8688,10.8615,10.7781,10.7498,10.7388,10.6607,10.5789,10.5191,10.6093,10.5789,10.5081,10.5081,10.3392,10.1504,10.1514,10.0403,9.9098,9.9098,9.9098,9.9098,9.9061,9.8484,9.809,9.8841,9.8411,9.831,9.9879,9.9585,9.9025,9.9061,9.8374,9.7576,9.6795,9.6649,9.6612,9.6612,9.6612,9.6061,9.4492,9.4309,9.4309,9.4309,9.4272,9.3942,9.3161,9.3088,9.2684,9.1803,9.1767,9.14,9.0583,9.0546,9.0216,8.9436,8.94,8.94,8.9409,8.9409,8.9506,8.9707,8.9707,8.981,6.5858,0.0,7.236,7.6697,7.9443,8.1398,8.2523,8.3155,8.3175,8.2074,8.1208,8.0764,8.1358,8.17,8.2965,8.6193,8.9419,9.1838,9.2796,9.4632,9.5318,9.3712,9.2281,0.0,0.0,0.0,0.0,9.7346,9.9732,10.1604,10.2585,10.42,10.5411,10.5899,10.6192,10.6386,10.6386,10.7194,10.7609,10.7609,10.8395,10.8799,10.8799,10.8799,10.8799,10.8799,10.8799,10.8799,10.8799,10.8799,10.8799,10.8688,10.7892,10.7609,10.7498,10.6717,10.6192,10.6009,10.6313,10.6192,10.5899,10.5301,10.4604,10.3806,10.3303,10.2705,10.2301,10.2301,10.2301,10.2008,10.099,10.0513,10.0109,9.9282,9.8878,9.8851,9.9402,9.9282,9.8951,9.8411,9.809,9.7649,9.6832,9.6685,9.6685,9.6685,9.6685,9.6685,9.6695,9.6695,9.6878,9.7419,9.7016,9.6585,9.6318,9.5327,9.4584,9.4253,9.3749,9.3345,9.3051,9.3051,9.2941,9.2648,9.2125,9.1868,9.1868,9.128,9.1095,9.1281,9.1281,9.1387,6.8925,7.2254,7.5385,7.8972,8.1369,8.3037,8.3841,8.4015,8.345,8.1465,7.9266,7.7915,7.8478,7.8807,8.0252,8.4041,8.8151,9.1237,9.2334,9.4322,9.5237,9.3994,9.2712,9.1803,0.0,0.0,0.0,9.5254,9.819,10.0613,10.2191,10.4604,10.6313,10.679,10.7121,10.7304,10.7304,10.8086,10.8589,10.8883,10.9386,10.9679,10.9679,10.9679,10.9679,10.9679,10.9679,10.9679,10.9679,10.9679,10.9679,10.9485,10.8516,10.8002,10.7892,10.679,10.6386,10.6386,10.6386,10.6192,10.5899,10.5595,10.5201,10.4604,10.4394,10.41,10.389,10.389,10.389,10.3596,10.2312,10.1688,10.121,10.0209,9.9732,9.9622,9.9916,9.9952,9.9732,9.8898,9.8751,9.8484,9.7713,9.7566,9.7456,9.7163,9.7126,9.7199,9.7429,9.7466,9.7676,9.8181,9.7787,9.7346,9.7052,9.6088,9.5391,9.5098,9.4593,9.4309,9.4309,9.4309,9.4309,9.4309,9.3786,9.3382,9.3088,9.2537,9.2161,9.1993,9.1993,9.2056,7.249,7.6017,7.9126,8.1259,8.3288,8.4528,8.3833,8.3601,8.251,7.892,7.5779,7.3633,0.0,0.0,7.6278,8.0712,8.5785,8.9937,9.2236,9.4518,9.5768,0.0,0.0,0.0,0.0,0.0,0.0,9.3161,0.0,9.9805,10.1394,10.5406,10.7609,10.7609,10.8406,10.8799,10.8799,10.9617,11.0414,11.121,11.121,11.121,11.121,11.121,11.121,11.121,11.121,11.121,11.121,11.1184,11.11,11.1001,10.9386,10.8688,10.8505,10.7011,10.6386,10.6386,10.6386,10.5899,10.5301,10.6119,10.5311,10.421,10.4897,10.4604,10.399,10.399,10.399,10.3806,10.2989,10.2312,10.1688,10.1614,10.098,10.0686,10.1514,10.1614,10.1394,10.0503,10.0283,9.9989,9.9245,9.9098,9.8851,9.809,9.798,9.7686,9.6869,9.6759,9.6795,9.6832,9.6869,9.6575,9.5795,9.5721,9.5354,9.4602,9.4456,9.4419,9.4419,9.4419,9.4456,9.4492,9.4456,9.4079,9.3345,9.3308,9.2868,9.206,9.206,9.206,7.6321,7.9568,8.2151,8.3881,8.4686,8.5029,8.4834,8.3486,8.1193,7.7445,7.2475,6.8965,0.0,0.0,0.0,7.7929,8.362,0.0,9.1435,9.3882,0.0,9.5748,0.0,9.5768,9.4987,9.4153,0.0,0.0,9.7493,9.9805,10.1394,10.5406,10.7609,10.7609,10.8406,10.8799,10.8799,10.9617,11.0414,11.121,11.121,11.121,11.121,11.121,11.121,11.121,11.121,11.121,11.1184,11.0608,11.0304,11.0083,10.8516,10.7892,10.7792,10.679,10.6386,10.6386,10.6386,10.6313,10.6082,10.6302,10.6093,10.5799,10.6009,10.5899,10.5799,10.5799,10.5799,10.5616,10.4714,10.431,10.4016,10.3403,10.3109,10.2999,10.3182,10.3303,10.2899,10.1504,10.0209,9.9355,9.9135,9.9098,9.9025,9.8805,9.8778,9.8521,9.7686,9.7576,9.7823,9.8401,9.9035,9.9292,9.9108,9.8511,9.8107,9.7887,9.6759,9.6098,9.6098,9.6098,9.6365,9.6952,9.6392,9.6282,9.6658,9.6061,9.5658,9.5437,9.5437,9.5437,7.9386,8.2058,8.4121,8.4984,8.519,8.4949,8.3949,8.1431,7.812,7.3981,6.8532,0.0,0.0,0.0,0.0,0.0,0.0,0.0,8.9849,9.2622,9.4605,0.0,9.6155,0.0,9.6052,9.5951,9.6218,0.0,9.8007,9.9292,10.0917,10.4892,10.7194,10.7609,10.8699,10.9496,10.9815,11.0304,11.0792,11.121,11.121,11.121,11.121,11.121,11.121,11.121,0.0,11.121,11.11,11.0304,10.9984,10.9801,10.8185,10.7609,10.7498,10.6717,10.6386,10.6386,10.6386,10.6386,10.6386,10.6386,10.6119,10.5899,10.6313,10.6386,10.6386,10.6386,10.6386,10.6192,10.5301,10.5117,10.4897,10.41,10.389,10.389,10.389,10.389,10.3513,10.2312,10.1017,10.0219,10.0219,10.0219,9.9989,9.9695,9.9612,9.9328,9.8521,9.8411,9.8594,9.9061,9.9512,9.9769,9.9769,9.9355,9.8951,9.8594,9.7713,9.7052,9.6722,9.6685,9.6906,9.7356,9.6942,9.6759,9.6832,9.6382,9.5988,9.5658,9.5658,9.5658,8.2083,8.4107,8.5639,8.5535,8.5328,8.4535,8.2052,7.8281,7.4039,6.9473,0.0,6.0565,6.1574,6.3609,6.7032,7.2766,0.0,8.5194,8.7972,9.0948,9.3243,9.4192,9.582,9.6869,9.6869,9.787,9.8778,9.9355,9.8851,9.9191,10.0686,10.4514,10.7011,10.8002,10.9397,11.0487,11.121,11.121,11.121,11.121,11.121,11.121,11.121,11.121,11.121,11.121,0.0,0.0,11.1001,11.0094,10.969,10.9507,10.8002,10.7414,10.7388,10.668,10.6386,10.6386,10.6386,10.6386,10.6386,10.6386,10.5899,10.5411,10.6203,10.6386,10.6386,10.6386,10.6386,10.6192,10.5495,10.5301,10.5081,10.4394,10.421,10.421,10.421,10.41,10.389,10.3182,10.2385,10.1798,10.1688,10.1688,10.1394,10.0586,10.0513,10.0209,9.9502,9.9318,9.9245,9.9245,9.9465,9.9575,9.9575,9.9465,9.9108,9.842,9.8163,9.776,9.7052,9.7016,9.7089,9.7163,9.7163,9.6906,9.6309,9.6309,9.5951,9.5263,9.5263,9.5263,8.5114,8.678,8.7846,8.7178,8.6087,8.4259,8.0695,7.5499,0.0,0.0,5.9357,5.5391,5.7434,5.9633,6.3351,6.9982,0.0,0.0,0.0,0.0,9.1387,0.0,0.0,0.0,0.0,0.0,0.0,0.0,0.0,10.2301,10.3182,10.5909,10.8406,11.0487,11.0806,11.1111,11.121,11.121,11.121,11.121,11.121,11.121,11.121,11.121,11.121,11.1184,11.0487,0.0,11.0094,10.8589,10.8002,10.7902,10.7011,10.6607,10.6607,10.6497,10.6386,10.6386,10.6386,10.6386,10.6386,10.6386,10.6313,10.6192,10.6386,10.6386,10.6386,10.6386,10.6386,10.6386,10.6192,10.6203,10.6119,10.6019,10.5983,10.5983,10.5983,10.5385,10.4897,10.4714,10.398,10.3303,10.2595,10.2485,10.2191,10.1394,10.1284,10.121,10.11,10.0503,10.0099,10.0099,10.131,10.2118,10.2118,10.1504,10.099,10.088,9.9622,9.8841,9.8694,9.8694,9.8988,9.9659,9.9659,9.9916,10.0513,10.0513,10.0403,10.0302,10.0302,10.0302,8.6557,8.7708,8.8295,8.7109,8.5385,8.2811,7.8154,0.0,0.0,0.0,5.5839,5.221,5.4073,5.628,0.0,6.6368,0.0,0.0,0.0,0.0,0.0,0.0,0.0,0.0,0.0,0.0,0.0,0.0,0.0,10.3513,10.389,10.6596,10.8909,11.0487,11.1001,11.121,11.121,11.121,11.121,11.121,11.121,11.121,11.121,11.121,11.121,11.1184,11.0304,0.0,10.9911,10.8306,10.7609,10.7498,10.6717,10.6386,10.6386,10.6386,10.6386,10.6386,10.6386,10.6386,10.6386,10.6386,10.6386,10.6386,10.6386,10.6386,10.6386,10.6386,10.6386,10.6386,10.6386,10.6386,10.6386,10.6386,10.6386,10.6386,10.6386,10.5705,10.5117,10.5117,10.4504,10.3586,10.2805,10.2695,10.2401,10.1614,10.1504,10.1504,10.1504,10.1494,10.1384,10.099,10.1604,10.2091,10.2091,10.1688,10.1284,10.0917,10.0219,9.9539,9.9135,9.9098,9.9282,9.9659,9.9695,9.9879,10.0293,10.0293,10.0293,10.0293,10.0293,10.0293,8.7489,8.8364,8.8639,8.6777,8.435,8.0914,7.5234,6.8404,0.0,0.0,5.259,4.9479,5.0962,0.0,5.659,0.0,6.9064,7.498,0.0,0.0,0.0,0.0,0.0,0.0,0.0,0.0,0.0,0.0,0.0,0.0,10.4908,10.7598,10.9386,11.0193,11.0707,11.088,11.088,11.0817,11.0696,11.0696,11.0696,11.0696,11.0696,11.0696,11.0696,11.0586,10.979,0.0,0.0,10.7892,10.7304,10.7315,10.6607,10.6386,10.6386,10.6386,10.6386,10.6386,10.6386,10.6386,10.6386,10.6386,10.6386,10.6386,10.6386,10.6386,10.6386,10.6386,10.6386,10.6386,10.6386,10.6386,10.6386,10.6386,10.6386,10.6386,10.6386,10.5899,10.5411,10.5411,10.4908,10.421,10.3403,10.3209,10.2915,10.2091,10.1981,10.1981,10.1981,10.2605,10.2705,10.2091,10.1981,10.1981,10.1981,10.1918,10.1504,10.0907,10.0696,10.0403,9.9906,9.9869,9.9942,10.0089,10.0089,10.0089,10.0089,10.0089,10.0089,10.0089,9.9942,9.9869,8.8467,8.9536,8.9916,8.7018,8.3523,7.9074,7.2336,0.0,0.0,5.3513,4.9058,4.6293,4.7824,4.9996,0.0,0.0,0.0,7.061,7.6056,8.0805,0.0,0.0,0.0,0.0,0.0,0.0,0.0,0.0,0.0,0.0,10.8285,10.9312,11.0314,11.1111,11.0498,11.0094,11.0094,10.9397,10.9019,10.9019,10.9019,10.9019,10.9019,10.9019,10.9019,10.8982,10.8196,0.0,0.0,10.69,10.6497,10.6497,10.6413,10.6386,10.6386,10.6386,10.6386,10.6386,10.6386,10.6386,10.6386,10.6386,10.6386,10.6386,10.6386,10.6386,10.6386,10.6386,10.6386,10.6386,10.6386,10.6386,10.6386,10.6386,10.6386,10.6386,10.6386,10.6302,10.6313,10.6313,10.6192,10.5899,10.5007,10.4897,10.4604,10.3806,10.3707,10.3707,10.3707,10.3696,10.3817,10.3707,10.3707,10.3707,10.3707,10.2999,10.2595,10.2522,10.1798,10.1688,10.2291,10.2412,10.2695,10.3403,10.3486,10.3486,10.3486,10.3486,10.3486,10.3403,10.2705,10.2412,8.7489,8.9329,8.9972,8.6501,8.2764,7.8005,7.068,0.0,5.6142,5.2348,4.8265,4.5775,4.6939,4.873,5.1492,5.5969,6.1544,6.7173,7.2606,7.7694,8.2164,0.0,0.0,0.0,0.0,0.0,0.0,0.0,0.0,0.0,10.9507,11.0304,11.0891,11.121,11.0414,10.9984,10.9984,10.9202,10.8799,10.8799,10.8799,10.8799,10.8799,10.8799,10.8799,10.8809,10.7892,0.0,0.0,10.6717,10.6386,10.6386,10.6386,10.6386,10.6386,10.6386,10.6386,10.6386,10.6386,10.6386,10.6386,10.6386,10.6386,10.6386,10.6386,10.6386,10.6386,10.6386,10.6386,10.6386,10.6386,10.6386,10.6386,10.6386,10.6386,10.6386,10.6386,10.6386,10.6386,10.6386,10.6386,10.6082,10.5301,10.5117,10.4787,10.399,10.389,10.389,10.389,10.389,10.389,10.389,10.389,10.389,10.389,10.3586,10.3219,10.2695,10.2412,10.2118,10.2018,10.2018,10.2081,10.2412,10.2495,10.2495,10.2495,10.2495,10.2495,10.2412,10.2081,10.2018,8.573,8.8213,8.9191,8.519,8.1155,7.6177,0.0,6.122,5.4839,5.1486,4.792,4.5635,4.638,4.7724,4.99,5.3441,5.8273,6.3445,6.8755,7.4176,7.8998,0.0,0.0,0.0,0.0,0.0,0.0,0.0,0.0,0.0,10.9911,11.0304,11.0487,11.0487,10.969,10.9297,10.9297,10.8516,10.8101,10.8101,10.8101,10.8101,10.8101,10.8101,10.8101,10.8112,0.0,0.0,0.0,10.6607,10.6386,10.6386,10.6386,10.6386,10.6386,10.6386,10.6386,10.6386,10.6386,10.6386,10.6386,10.6386,10.6386,10.6386,10.6386,10.6386,10.6386,10.6386,10.6386,10.6386,10.6386,10.6386,10.6386,10.6386,10.6386,10.6386,10.6386,10.6386,10.6497,10.6717,10.6801,10.6596,10.6302,10.6182,10.5998,10.5385,10.5091,10.4991,10.4991,10.4808,10.4614,10.4614,10.4614,10.4394,10.3917,10.389,10.3707,10.3109,10.3109,10.2889,10.2605,10.2605,10.2715,10.2899,10.2899,10.2899,10.2899,10.2715,10.2605,10.2605,10.2091,10.1688,8.3212,8.6294,8.7536,8.2983,7.8361,7.3164,6.629,5.8875,5.277,5.0486,4.7548,4.5489,4.5759,4.6685,4.8249,5.0824,5.4685,5.9181,6.4338,7.0137,7.5195,0.0,0.0,0.0,0.0,0.0,0.0,0.0,0.0,0.0,10.9911,10.9287,10.8799,10.8799,10.8002,10.7609,10.7609,10.679,10.6413,10.6413,10.6413,10.6413,10.6413,10.6413,10.6413,0.0,0.0,0.0,0.0,10.6386,10.6386,10.6386,10.6386,10.6386,10.6386,10.6386,10.6386,10.6386,10.6386,10.6386,10.6386,10.6386,10.6386,10.6386,10.6386,10.6386,10.6386,10.6386,10.6386,10.6386,10.6386,10.6386,10.6386,10.6386,10.6386,10.6386,10.6386,10.6386,10.6607,10.7388,10.7609,10.7781,10.8615,10.8799,10.8799,10.8809,10.8112,10.7609,10.7609,10.6911,10.6386,10.6386,10.6386,10.5689,10.399,10.389,10.389,10.389,10.389,10.421,10.4997,10.5117,10.5495,10.6302,10.6302,10.6302,10.6302,10.5495,10.5117,10.4997,10.3392,10.2301,7.8373,8.1592,8.2983,7.8902,7.4843,7.0163,6.3807,5.7314,5.1957,4.9773,4.7358,4.579,4.6125,4.7113,4.8567,5.0658,5.404,5.8346,0.0,0.0,0.0,7.9673,0.0,0.0,0.0,0.0,0.0,0.0,0.0,0.0,10.8306,10.7598,10.7708,10.8799,10.8002,10.7609,10.7609,10.679,10.6386,10.6386,10.6386,10.6386,10.6386,10.6386,0.0,0.0,0.0,0.0,0.0,10.6386,10.6386,10.6386,10.6386,10.6386,10.6386,10.6386,10.6386,10.6386,10.6386,10.6386,10.6386,10.6386,10.6386,10.6386,10.6386,10.6386,10.6386,10.6386,10.6386,10.6386,10.6386,10.6386,10.6386,10.6386,10.6386,10.6386,10.6386,10.6386,10.6607,10.7414,10.7609,10.7902,10.8699,10.8799,10.8799,10.8799,10.8112,10.7609,10.7609,10.69,10.6386,10.6386,10.6386,10.6203,10.5689,10.5605,10.5395,10.4798,10.4714,10.4604,10.4284,10.4284,10.4394,10.4698,10.4698,10.4698,10.4698,10.4394,10.399,10.3392,10.2385,10.1688,7.2381,7.6016,7.751,7.3981,7.0636,6.6817,6.1289,5.5762,5.1255,4.9444,4.7411,4.607,4.6507,4.7574,4.8866,5.0473,5.334,5.7377,0.0,0.0,0.0,0.0,0.0,0.0,0.0,0.0,0.0,0.0,0.0,0.0,10.7609,10.679,10.69,10.7892,10.7414,10.7084,10.7084,10.6691,10.6386,10.6386,10.6386,10.6386,10.6386,10.6386,0.0,0.0,0.0,0.0,0.0,10.6386,10.6386,10.6386,10.6386,10.6386,10.6386,10.6386,10.6386,10.6386,10.6386,10.6386,10.6386,10.6386,10.6386,10.6386,10.6386,10.6386,10.6386,10.6386,10.6386,10.6386,10.6386,10.6386,10.6497,10.679,10.6911,10.69,10.7183,10.7294,10.7514,10.8295,10.849,10.8809,10.9606,10.9716,10.9716,10.9716,10.8993,10.849,10.849,10.7818,10.7294,10.7294,10.7294,10.7194,10.69,10.6607,10.6203,10.5595,10.5605,10.5385,10.4918,10.4798,10.4798,10.4798,10.4798,10.4798,10.4798,10.4504,10.3806,10.2705,10.2191,10.1798,0.0,6.9459,7.1346,6.8369,6.5945,6.3151,5.8659,5.4176,0.0,4.9396,4.7585,4.6363,4.6929,4.7997,4.9219,5.0466,5.2872,5.6565,0.0,6.9075,0.0,0.0,0.0,0.0,0.0,0.0,0.0,0.0,0.0,0.0,10.7498,10.679,10.6386,10.6386,10.6386,10.6386,10.6386,10.6386,10.6386,10.6386,10.6386,10.6386,10.6386,10.6386,0.0,0.0,0.0,0.0,0.0,10.6386,10.6386,10.6386,10.6386,10.6386,10.6386,10.6386,10.6386,10.6386,10.6386,10.6386,10.6386,10.6386,10.6386,10.6386,10.6386,10.6386,10.6386,10.6386,10.6386,10.6386,10.6386,10.6386,10.6607,10.7388,10.7609,10.7781,10.8615,10.8799,10.9019,10.979,10.9984,11.0314,11.1111,11.121,11.121,11.121,11.0487,10.9984,10.9984,10.9312,10.8799,10.8799,10.8799,10.8516,10.7682,10.69,10.6497,10.6386,10.6386,10.6386,10.6386,10.6386,10.6386,10.6386,10.6386,10.6386,10.6386,10.5484,10.431,10.2889,10.2815,10.2301,5.5649,0.0,6.5265,6.3358,6.1634,5.9538,0.0,5.2203,4.9172,4.8621,0.0,4.6773,4.7923,4.8676,5.0044,5.2864,5.4935,5.8651,6.5565,0.0,0.0,0.0,0.0,0.0,0.0,0.0,0.0,0.0,0.0,10.6497,10.668,10.6497,10.6386,10.6386,10.6386,10.6386,10.6386,10.6386,10.6386,10.6386,10.6386,10.6386,10.6386,10.6386,0.0,0.0,0.0,0.0,10.6386,10.6386,10.6386,10.6386,10.6386,10.6386,10.6386,10.6386,10.6386,10.6386,10.6386,10.6386,10.6386,10.6386,10.6386,10.6386,10.6386,10.6386,10.6386,10.6386,10.6386,10.6386,10.6386,10.6386,10.6607,10.7388,10.7609,10.7781,10.8615,10.8799,10.9019,10.979,10.9984,11.0314,11.1111,11.121,11.121,11.121,11.0487,10.9984,10.9984,10.9312,10.8799,10.8799,10.8799,10.8516,10.7682,10.7388,10.7095,10.6413,10.6386,10.6386,10.6386,10.6386,10.6386,10.6386,10.6386,10.6386,10.6386,10.5484,10.4887,10.4493,10.3282,10.2585,5.2114,5.6171,5.9668,5.8452,5.7831,5.6771,5.4073,5.103,4.8716,0.0,0.0,0.0,0.0,0.0,0.0,0.0,5.7192,0.0,0.0,0.0,0.0,0.0,0.0,0.0,0.0,0.0,0.0,0.0,0.0,10.6386,10.6386,10.6386,10.6386,10.6386,10.6386,10.6386,10.6386,10.6386,10.6386,10.6386,10.6386,10.6386,10.6386,10.6386,10.6386,0.0,0.0,0.0,10.6386,10.6386,10.6386,10.6386,10.6386,10.6386,10.6386,10.6386,10.6386,10.6386,10.6386,10.6386,10.6386,10.6386,10.6386,10.6386,10.6386,10.6386,10.6386,10.6386,10.6386,10.6497,10.6911,10.6984,10.7194,10.8406,10.871,10.8883,10.9716,10.99,10.9999,11.0498,11.0608,11.0707,11.11,11.121,11.121,11.121,11.0806,11.0608,11.0608,11.0193,10.99,10.99,10.99,10.9606,10.882,10.871,10.8002,10.6497,10.6386,10.6386,10.6386,10.6386,10.6386,10.6386,10.6386,10.6386,10.6386,10.5899,10.5484,10.5117,10.42,10.3613,5.1531,5.3691,5.5253,5.4818,5.5261,5.5237,5.3203,0.0,0.0,0.0,0.0,0.0,0.0,0.0,0.0,0.0,0.0,0.0,0.0,0.0,0.0,0.0,0.0,0.0,0.0,0.0,0.0,0.0,0.0,10.6386,10.6386,10.6386,10.6386,10.6386,10.6386,10.6386,10.6386,10.6386,10.6386,10.6386,10.6386,10.6386,10.6386,10.6386,10.6386,0.0,0.0,0.0,10.6386,10.6386,10.6386,10.6386,10.6386,10.6386,10.6386,10.6386,10.6386,10.6386,10.6386,10.6386,10.6386,10.6386,10.6386,10.6386,10.6386,10.6386,10.6386,10.6386,10.6386,10.6607,10.7388,10.7609,10.8012,10.9617,10.9984,11.0204,11.099,11.121,11.121,11.121,11.121,11.121,11.121,11.121,11.121,11.121,11.121,11.121,11.121,11.121,11.121,11.121,11.121,11.0891,11.0094,10.9984,10.9103,10.69,10.668,10.6497,10.6386,10.6386,10.6386,10.6386,10.6386,10.6386,10.6386,10.6386,10.6009,10.5301,10.5191,10.4714,5.0431,5.2581,5.4535,5.5451,5.6152,5.6357,5.5306,5.3831,0.0,0.0,0.0,0.0,0.0,0.0,0.0,0.0,0.0,0.0,0.0,0.0,0.0,0.0,0.0,0.0,0.0,0.0,0.0,0.0,0.0,10.6386,10.6386,10.6386,10.6386,10.6386,10.6386,10.6386,10.6386,10.6386,10.6386,10.6386,10.6386,10.6386,10.6386,10.6386,10.6386,0.0,0.0,10.6386,10.6386,10.6386,10.6386,10.6386,10.6386,10.6386,10.6386,10.6386,10.6386,10.6386,10.6386,10.6386,10.6386,10.6386,10.6386,10.6386,10.6386,10.6386,10.6386,10.6386,10.6386,10.6607,10.7388,10.7609,10.8012,10.9617,10.9984,11.0204,11.099,11.121,11.121,11.121,11.121,11.121,11.121,11.121,11.121,11.121,11.121,11.121,11.121,11.121,11.121,11.121,11.121,11.0891,11.0094,10.9984,10.958,10.8505,10.7781,10.7084,10.6413,10.6386,10.6386,10.6386,10.6386,10.6386,10.6386,10.6386,10.6302,10.6203,10.5411,10.4997,5.1049,5.2617,5.4237,5.6342,5.806,5.9047,5.8245,5.7211,0.0,0.0,0.0,0.0,0.0,0.0,0.0,0.0,0.0,0.0,0.0,0.0,0.0,0.0,0.0,0.0,0.0,0.0,0.0,0.0,0.0,0.0,10.6386,10.6386,10.6386,10.6386,10.6386,10.6386,10.6386,10.6386,10.6386,10.6386,10.6386,10.6386,10.6386,10.6386,10.6386,10.6386,0.0,10.6386,10.6386,10.6386,10.6386,10.6386,10.6386,10.6386,10.6386,10.6386,10.6386,10.6386,10.6386,10.6386,10.6386,10.6386,10.6386,10.6386,10.6386,10.6386,10.6386,10.6386,10.6386,10.6717,10.7892,10.8211,10.8699,11.0304,11.0597,11.0696,11.11,11.121,11.121,11.121,11.121,11.121,11.121,11.121,11.121,11.121,11.121,11.121,11.121,11.121,11.121,11.121,11.121,11.1111,11.0707,11.0597,10.99,10.8295,10.7781,10.7194,10.6413,10.6386,10.6386,10.6386,10.6386,10.6386,10.6386,10.6386,10.6386,10.6386,10.6009,10.5789,5.1919,5.279,5.3942,5.7045,0.0,6.1145,6.1128,0.0,0.0,0.0,0.0,0.0,0.0,0.0,0.0,0.0,0.0,0.0,0.0,0.0,0.0,0.0,0.0,0.0,0.0,0.0,0.0,0.0,0.0,0.0,10.6386,10.6386,10.6386,10.6386,10.6386,10.6386,10.6386,10.6386,10.6386,10.6386,10.6386,10.6386,10.6386,10.6386,10.6386,10.6386,10.6386,10.6386,10.6386,10.6386,10.6386,10.6386,10.6386,10.6386,10.6386,10.6386,10.6386,10.6386,10.6386,10.6386,10.6386,10.6386,10.6386,10.6386,10.6386,10.6386,10.6386,10.6386,10.6386,10.679,10.8395,10.8799,10.9202,11.0806,11.121,11.121,11.121,11.121,11.121,11.121,11.121,11.121,11.121,11.121,11.121,11.121,11.121,11.121,11.121,11.121,11.121,11.121,11.121,11.121,11.121,11.121,11.0304,10.8306,10.7792,10.7304,10.6717,10.6497,10.6386,10.6386,10.6386,10.6386,10.6386,10.6386,10.6386,10.6386,10.6386,10.6386,5.235,5.266,5.3542,5.7244,5.9442,0.0,6.3414,6.4919,0.0,6.607,0.0,0.0,0.0,0.0,0.0,0.0,0.0,0.0,0.0,0.0,0.0,0.0,0.0,0.0,0.0,0.0,0.0,0.0,0.0,0.0,10.6386,10.6386,10.6386,10.6386,10.6386,10.6386,10.6386,10.6386,10.6386,10.6386,10.6386,10.6386,10.6386,10.6386,10.6386,10.6386,10.6386,10.6386,10.6386,10.6386,10.6386,10.6386,10.6386,10.6386,10.6386,10.6386,10.6386,10.6386,10.6386,10.6386,10.6386,10.6386,10.6386,10.6386,10.6386,10.6386,10.6386,10.6386,10.6386,10.679,10.8395,10.8799,10.9202,11.0806,11.121,11.121,11.121,11.121,11.121,11.121,11.121,11.121,11.121,11.121,11.121,11.121,11.121,11.121,11.121,11.121,11.121,11.121,11.121,11.121,11.121,11.121,11.0817,10.9911,10.8406,10.7609,10.7498,10.679,10.6386,10.6386,10.6386,10.6386,10.6386,10.6386,10.6386,10.6386,10.6386,10.6386,5.3339,5.3075,5.3402,5.668,5.9695,0.0,0.0,6.8833,7.1245,0.0,0.0,0.0,0.0,0.0,0.0,0.0,0.0,0.0,0.0,0.0,0.0,0.0,0.0,0.0,0.0,0.0,0.0,0.0,0.0,0.0,0.0,10.6386,10.6386,10.6386,10.6386,10.6386,10.6386,10.6386,10.6386,10.6386,10.6386,10.6386,10.6386,10.6386,10.6386,10.6386,10.6386,10.6386,10.6386,10.6386,10.6386,10.6386,10.6386,10.6386,10.6386,10.6386,10.6386,10.6386,10.6386,10.6386,10.6386,10.6386,10.6386,10.6386,10.6386,10.6386,10.6386,10.6386,10.6386,10.679,10.8395,10.8799,10.9202,11.0806,11.121,11.121,11.121,11.121,11.121,11.121,11.121,11.121,11.121,11.121,11.121,11.121,11.121,11.121,11.121,11.121,11.121,11.121,11.121,11.121,11.121,11.121,11.1111,11.0781,10.969,10.8894,10.8406,10.7609,10.7084,10.7084,10.6691,10.6386,10.6386,10.6386,10.6386,10.6386,10.6386,10.6386,5.4349,5.3333,5.3135,0.0,0.0,0.0,6.8707,7.2775,7.6054,7.8223,0.0,0.0,0.0,0.0,0.0,0.0,0.0,0.0,0.0,0.0,0.0,0.0,0.0,0.0,0.0,0.0,0.0,0.0,0.0,0.0,0.0,10.6119,10.6009,10.6009,10.5715,10.5605,10.5605,10.5605,10.5605,10.5605,10.5605,10.5909,10.6386,10.6386,10.6386,10.6386,10.6386,10.6386,10.6386,10.6386,10.6386,10.6386,10.6386,10.6386,10.6386,10.6386,10.6386,10.6386,10.6386,10.6386,10.6386,10.6386,10.6386,10.6386,10.6386,10.6386,10.6497,10.6717,10.679,10.711,10.8809,10.8982,10.9202,11.0806,11.121,11.121,11.121,11.121,11.121,11.121,11.121,11.121,11.121,11.121,11.121,11.121,11.121,11.121,11.121,11.121,11.121,11.121,11.121,11.121,11.121,11.121,11.121,11.121,11.0707,11.001,10.9202,10.8196,10.7609,10.7609,10.679,10.6386,10.6386,10.6386,10.6386,10.6386,10.6386,10.6386,5.5344,5.3466,5.2718,0.0,0.0,0.0,7.1893,7.677,8.0346,8.3136,0.0,0.0,0.0,0.0,0.0,0.0,0.0,0.0,0.0,0.0,0.0,0.0,0.0,0.0,0.0,0.0,0.0,0.0,0.0,0.0,0.0,10.5605,10.5117,10.5117,10.432,10.389,10.389,10.389,10.389,10.389,10.389,10.4808,10.6386,10.6386,10.6386,10.6386,10.6386,10.6386,10.6386,10.6386,10.6386,10.6386,10.6386,10.6386,10.6386,10.6386,10.6386,10.6386,10.6386,10.6386,10.6386,10.6386,10.6386,10.6386,10.6386,10.6386,10.6607,10.7388,10.7609,10.8012,10.9591,10.9397,10.9202,11.0806,11.121,11.121,11.121,11.121,11.121,11.121,11.121,11.121,11.121,11.121,11.121,11.121,11.121,11.121,11.121,11.121,11.121,11.121,11.121,11.121,11.121,11.121,11.121,11.121,11.121,11.0806,11.001,10.849,10.7609,10.7609,10.679,10.6386,10.6386,10.6386,10.6386,10.6386,10.6386,10.6386,5.5917,5.5374,0.0,6.0148,0.0,0.0,0.0,7.9293,0.0,0.0,0.0,0.0,0.0,0.0,0.0,0.0,0.0,0.0,0.0,0.0,0.0,0.0,0.0,0.0,0.0,0.0,0.0,0.0,0.0,0.0,0.0,10.5605,10.5117,10.5117,10.432,10.389,10.389,10.389,10.389,10.389,10.389,10.4504,10.5484,10.5484,10.5789,10.6386,10.6386,10.6386,10.6386,10.6386,10.6386,10.6386,10.6386,10.6386,10.6386,10.6386,10.6386,10.6386,10.6386,10.6386,10.6386,10.6386,10.6386,10.6386,10.6386,10.6386,10.6607,10.7388,10.7609,10.8012,10.9591,10.9801,10.99,11.1001,11.121,11.121,11.121,11.121,11.121,11.121,11.121,11.121,11.121,11.121,11.121,11.121,11.121,11.121,11.121,11.121,11.121,11.121,11.121,11.121,11.121,11.121,11.121,11.121,11.121,11.11,11.0891,10.9312,10.8395,10.8395,10.7121,10.6386,10.6386,10.6386,10.6386,10.6386,10.6386,10.6386,5.6788,5.7571,0.0,6.3962,6.8232,7.3285,0.0,0.0,0.0,0.0,0.0,0.0,0.0,0.0,0.0,0.0,0.0,0.0,0.0,0.0,0.0,0.0,0.0,0.0,0.0,0.0,0.0,0.0,0.0,0.0,0.0,10.5091,10.4504,10.42,10.3403,10.2889,10.2889,10.2889,10.2889,10.2889,10.2889,10.3403,10.42,10.4787,10.5605,10.6386,10.6386,10.6386,10.6386,10.6386,10.6386,10.6386,10.6386,10.6386,10.6386,10.6386,10.6386,10.6386,10.6386,10.6386,10.6386,10.6386,10.6386,10.6497,10.679,10.69,10.7084,10.8185,10.86,10.8894,11.0083,11.0498,11.0597,11.1111,11.121,11.121,11.121,11.121,11.121,11.121,11.121,11.121,11.121,11.121,11.121,11.121,11.121,11.121,11.121,11.121,11.121,11.121,11.121,11.121,11.121,11.121,11.121,11.121,11.121,11.121,11.121,10.9679,10.8799,10.8799,10.7183,10.6386,10.6386,10.6386,10.6386,10.6386,10.6386,10.6386,5.7716,5.977,0.0,6.8173,7.2849,0.0,0.0,0.0,0.0,0.0,0.0,0.0,0.0,0.0,0.0,0.0,0.0,0.0,0.0,0.0,0.0,0.0,0.0,0.0,0.0,0.0,0.0,0.0,0.0,0.0,0.0,10.4284,10.3486,10.2695,10.1908,10.1504,10.1504,10.1504,10.1504,10.1504,10.1504,10.1898,10.2695,10.42,10.5411,10.6313,10.6386,10.6386,10.6386,10.6386,10.6386,10.6386,10.6386,10.6386,10.6386,10.6386,10.6386,10.6386,10.6386,10.6386,10.6386,10.6386,10.6386,10.6607,10.7388,10.7609,10.7892,10.9507,10.9984,11.0204,11.1001,11.121,11.121,11.121,11.121,11.121,11.121,11.121,11.121,11.121,11.121,11.121,11.121,11.121,11.121,11.121,11.121,11.121,11.121,11.121,11.121,11.121,11.121,11.121,11.121,11.121,11.121,11.121,11.121,11.121,11.121,10.9716,10.8909,10.8909,10.7414,10.6607,10.6607,10.6607,10.6607,10.6497,10.6497,10.6497,5.7086,6.0927,0.0,0.0,7.8873,8.6379,9.1276,0.0,0.0,0.0,0.0,0.0,0.0,0.0,0.0,0.0,0.0,0.0,0.0,0.0,0.0,0.0,0.0,0.0,0.0,0.0,0.0,0.0,0.0,0.0,10.5117,10.3686,10.2889,10.2695,10.1908,10.1504,10.1504,10.1504,10.1504,0.0,10.1504,10.1898,10.2695,10.3109,10.4016,10.5411,10.6082,10.6386,10.6386,10.6386,10.6386,10.6386,10.6386,10.6386,10.6386,10.6386,10.6386,10.6386,10.6386,10.6386,10.6386,10.6386,10.6386,10.6607,10.7388,10.7609,10.7892,10.9507,10.9984,11.0204,11.1001,11.121,11.121,11.121,11.121,11.121,11.121,11.121,11.121,11.121,11.121,11.121,11.121,11.121,11.121,11.121,11.121,11.121,11.121,11.121,11.121,11.121,11.121,11.121,11.121,11.121,11.121,11.121,11.121,11.121,11.121,11.0314,10.969,10.969,10.8809,10.8285,10.8285,10.8285,10.8002,10.7304,10.7304,10.7011,5.7014,6.2466,0.0,7.7937,0.0,9.0951,9.3647,9.6584,0.0,0.0,0.0,0.0,0.0,0.0,0.0,0.0,0.0,0.0,0.0,0.0,0.0,0.0,0.0,0.0,0.0,0.0,0.0,0.0,0.0,10.4394,10.4016,10.3219,10.2512,10.2118,10.1688,10.1504,10.1504,10.1504,10.1504,10.1504,10.1504,10.1688,10.2201,10.3282,10.431,10.5107,10.6009,10.6386,10.6386,10.6386,10.6386,10.6386,10.6386,10.6386,10.6386,10.6386,10.6386,10.6386,10.6386,10.6386,10.6386,10.6386,10.6386,10.6607,10.7818,10.8185,10.8516,11.0083,11.0597,11.0707,11.1111,11.121,11.121,11.121,11.121,11.121,11.121,11.121,11.121,11.121,11.121,11.121,11.121,11.121,11.121,11.121,11.121,11.121,11.121,11.121,11.121,11.121,11.121,11.121,11.121,11.121,11.121,11.121,11.121,11.121,11.121,11.0817,11.0388,10.9984,10.9202,10.8799,10.8799,10.8799,10.8406,10.7609,10.7609,10.7205,5.6985,6.4465,7.3222,8.4526,8.9975,0.0,9.5289,9.7753,9.9874,0.0,0.0,0.0,0.0,0.0,0.0,0.0,0.0,0.0,0.0,0.0,0.0,0.0,0.0,0.0,0.0,0.0,0.0,0.0,0.0,10.3403,10.2695,10.2595,10.2191,10.1504,10.1504,10.1504,10.1504,10.1504,10.1504,10.1504,10.1504,10.1504,10.1587,10.3686,10.4714,10.4703,10.5605,10.5983,10.5983,10.6082,10.6203,10.6192,10.6302,10.6386,10.6386,10.6386,10.6386,10.6386,10.6386,10.6386,10.6386,10.6386,10.6386,10.6717,10.8101,10.8593,10.8796,11.0414,11.0798,11.0801,11.0903,11.101,11.1007,11.1088,11.1085,11.1081,11.121,11.121,11.121,11.121,11.121,11.121,11.121,11.121,11.121,11.121,11.121,11.121,11.121,11.121,11.121,11.121,11.121,11.121,11.121,11.121,11.121,11.121,11.121,11.121,11.121,11.121,11.0891,11.0204,10.9617,10.9081,10.8982,10.8982,10.8516,10.7609,10.7609,10.7205,5.651,6.7295,7.8402,8.5386,8.935,9.221,0.0,0.0,9.9524,0.0,0.0,0.0,0.0,0.0,0.0,0.0,0.0,0.0,0.0,0.0,0.0,0.0,0.0,0.0,0.0,0.0,0.0,0.0,10.3303,10.2805,10.2695,10.2008,10.1614,10.1504,10.1504,10.1504,10.1504,10.1504,10.1504,10.1504,10.1504,10.1504,10.1504,10.2595,10.2989,10.3109,10.389,10.421,10.4294,10.5018,10.5301,10.529,10.6082,10.6386,10.6386,10.6386,10.6386,10.6386,10.6386,10.6386,10.6386,10.6386,10.6386,10.6607,10.7498,10.7605,10.7717,10.9088,10.931,10.9308,10.9702,11.0003,11.0189,11.0507,11.0689,11.0892,11.1092,11.121,11.121,11.121,11.121,11.121,11.121,11.121,11.121,11.121,11.121,11.121,11.121,11.121,11.121,11.121,11.121,11.121,11.121,11.121,11.121,11.121,11.121,11.121,11.121,11.121,11.11,11.099,11.0917,11.0513,10.979,10.979,10.9114,10.7609,10.7609,10.7205,5.9674,7.009,7.9685,8.693,9.0548,9.3224,9.6421,9.7884,9.9037,10.0794,10.151,0.0,0.0,0.0,0.0,0.0,0.0,0.0,0.0,0.0,0.0,0.0,0.0,0.0,0.0,0.0,0.0,0.0,10.2191,10.2008,10.2008,10.1688,10.1504,10.1504,10.1504,10.1504,10.1504,10.1504,10.1504,10.1504,10.1504,10.1504,10.1504,10.1908,10.2301,10.2695,10.3596,10.389,10.4,10.4798,10.5117,10.5191,10.6093,10.6386,10.6386,10.6386,10.6386,10.6386,10.6386,10.6386,10.6386,10.6386,10.6386,10.6607,10.7388,10.7314,10.7221,10.8401,10.8412,10.8195,10.8495,10.8899,10.939,10.9799,11.0188,11.0689,11.1096,11.121,11.121,11.121,11.121,11.121,11.121,11.121,11.121,11.121,11.121,11.121,11.121,11.121,11.121,11.121,11.121,11.121,11.121,11.121,11.121,11.121,11.121,11.121,11.121,11.121,11.1001,11.0487,11.1001,11.0817,10.9984,10.9984,10.9187,10.7609,10.7609,10.7205,6.1155,6.9956,7.7749,8.5223,8.8977,9.182,0.0,0.0,9.7687,0.0,10.0492,10.0897,10.2194,0.0,0.0,0.0,0.0,0.0,0.0,0.0,0.0,0.0,0.0,0.0,0.0,0.0,0.0,0.0,10.1504,10.1504,10.1504,10.1504,10.1504,10.1504,10.1504,10.1504,10.1504,10.1504,10.1504,10.1504,10.1504,10.1504,10.1504,10.1504,10.1788,10.2412,10.2999,10.3303,10.3413,10.421,10.4604,10.4897,10.5705,10.6192,10.6386,10.6386,10.6386,10.6386,10.6386,10.6386,10.6386,10.6386,10.6391,10.6401,10.6898,10.6689,10.6382,10.7281,10.7309,10.6995,10.7302,10.7899,10.8491,10.9009,10.9608,11.0202,11.0981,11.121,11.121,11.121,11.121,11.121,11.121,11.121,11.121,11.121,11.121,11.121,11.121,11.121,11.121,11.121,11.121,11.121,11.121,11.121,11.121,11.121,11.121,11.121,11.121,11.121,11.0817,10.9984,11.0597,11.0414,10.9397,10.9397,10.871,10.7315,10.7315,10.7021,5.8214,6.4814,7.1842,7.7715,8.1825,8.5518,8.99,0.0,9.4767,9.8292,9.9408,10.0115,10.1313,10.1504,0.0,0.0,0.0,0.0,0.0,0.0,0.0,0.0,0.0,0.0,0.0,0.0,0.0,0.0,10.1504,10.1504,10.1504,10.1504,10.1504,10.1504,10.1504,10.1504,10.1504,10.1504,10.1504,10.1504,10.1504,10.1504,10.1504,10.1504,10.1504,10.1587,10.1614,10.1614,10.1688,10.2485,10.3293,10.399,10.4908,10.5715,10.6386,10.6386,10.6386,10.6386,10.6386,10.6386,10.6386,10.6386,10.6201,10.5987,10.5805,10.5199,10.4804,10.5515,10.5412,10.5212,10.6106,10.6807,10.7394,10.8016,10.8489,10.9304,11.092,11.121,11.121,11.121,11.121,11.121,11.121,11.121,11.121,11.121,11.121,11.121,11.121,11.121,11.121,11.121,11.121,11.121,11.121,11.121,11.121,11.121,11.121,11.121,11.121,11.121,11.0817,10.9984,11.001,10.9287,10.7708,10.7708,10.7315,10.6497,10.6497,10.6413,5.3076,5.896,6.5547,7.1371,7.6215,8.1054,8.6869,9.0133,9.3387,9.8491,9.9584,10.0203,10.189,10.1788,10.1504,10.1504,0.0,0.0,0.0,0.0,0.0,0.0,0.0,0.0,0.0,0.0,0.0,0.0,0.0,10.1294,10.0806,10.0686,10.0513,9.9989,9.9952,9.9952,9.9952,9.9952,10.0209,10.0686,10.0582,10.0896,10.1504,10.1399,10.1409,10.1504,10.1504,10.1504,10.1587,10.2412,10.2889,10.3293,10.4604,10.5301,10.5595,10.6192,10.6386,10.6386,10.6386,10.6386,10.6386,10.6386,10.6094,10.5677,10.5214,10.4405,10.3807,10.4322,10.4102,10.3889,10.4919,10.5608,10.631,10.7188,10.7807,10.8384,10.9414,11.0202,11.0686,11.0892,11.1121,11.121,11.121,11.121,11.121,11.121,11.121,11.121,11.121,11.121,11.121,11.121,11.121,11.121,11.121,11.121,11.121,11.121,11.121,11.121,11.121,11.121,11.0597,10.9287,10.9202,10.8699,10.7609,10.7609,10.7205,10.6386,10.6386,10.6386,4.9422,5.4451,6.0124,6.4815,6.9751,7.5011,8.104,8.5223,8.9538,9.573,9.742,9.85,10.0796,10.0912,10.08,10.1384,10.1504,0.0,0.0,0.0,0.0,0.0,0.0,0.0,0.0,0.0,0.0,0.0,0.0,0.0,9.9952,9.9916,9.9659,9.9135,9.9098,9.9098,9.9098,9.9098,9.9325,9.9816,9.9922,10.0294,10.0888,10.1099,10.1297,10.1403,10.151,10.1504,10.1504,10.2091,10.2485,10.2805,10.421,10.4897,10.5191,10.6093,10.6386,10.6386,10.6386,10.6386,10.6386,10.6386,10.5987,10.54,10.4721,10.3818,10.3121,10.348,10.3306,10.3186,10.4207,10.4882,10.5588,10.6479,10.6989,10.7493,10.8221,10.9316,11.0201,11.0609,11.101,11.121,11.121,11.121,11.121,11.121,11.121,11.121,11.121,11.121,11.121,11.121,11.121,11.121,11.121,11.121,11.121,11.121,11.121,11.121,11.121,11.121,11.0403,10.8799,10.8799,10.8295,10.7194,10.7194,10.69,10.6386,10.6386,10.6386,0.0,0.0,0.0,0.0,0.0,6.7198,7.2136,7.7279,8.2886,8.9667,9.2713,9.5032,9.7917,9.8648,9.9419,10.118,10.1394,10.1394,10.1394,0.0,0.0,0.0,0.0,0.0,0.0,0.0,0.0,0.0,10.0293,9.9916,9.9098,9.9061,9.9015,9.9015,9.9015,9.9005,9.9005,9.9005,9.8906,9.8753,9.9548,9.9801,9.9651,10.0699,10.1204,10.1178,10.1393,10.1494,10.1494,10.1504,10.1981,10.2695,10.3596,10.4394,10.5191,10.6093,10.6386,10.6386,10.6386,10.6386,10.6386,10.6386,10.5904,10.5094,10.4203,10.3311,10.2581,10.3007,10.2804,10.2908,10.4196,10.4902,10.5398,10.5689,10.6005,10.6486,10.7394,10.8606,10.9607,11.0309,11.0802,11.121,11.121,11.121,11.121,11.121,11.121,11.121,11.121,11.121,11.121,11.121,11.121,11.121,11.121,11.121,11.121,11.121,11.121,11.121,11.121,11.121,11.0403,10.8799,10.8799,10.7991,10.6386,10.6386,10.6386,10.6386,10.6386,10.6386,4.4031,0.0,0.0,0.0,0.0,0.0,0.0,7.0887,7.7925,8.5754,9.0336,9.4283,9.8805,9.9484,9.9655,10.048,10.0089,9.9769,9.9769,9.9769,0.0,0.0,0.0,0.0,0.0,0.0,0.0,0.0,9.9769,9.9071,9.8264,9.754,9.7168,9.7168,9.6964,9.6847,9.6847,9.6847,9.711,9.7643,9.7735,9.8443,9.9688,9.9791,10.0198,10.0892,10.1002,10.0986,10.1007,10.1419,10.1614,10.1981,10.3413,10.399,10.4394,10.5909,10.6386,10.6386,10.6386,10.6386,10.6386,10.6386,10.5794,10.4806,10.3685,10.2704,10.1992,10.2309,10.2401,10.2608,10.4102,10.4587,10.4787,10.4792,10.4917,10.5316,10.6381,10.7493,10.8601,10.9883,11.07,11.121,11.121,11.121,11.121,11.121,11.121,11.121,11.121,11.121,11.121,11.121,11.121,11.121,11.121,11.121,11.121,11.121,11.121,11.121,11.121,11.121,11.0403,10.8799,10.8799,10.7991,10.6386,10.6386,10.6386,10.6386,10.6386,10.6386,4.4097,0.0,0.0,0.0,0.0,0.0,5.8753,6.4872,7.1876,0.0,8.4038,8.8501,9.3038,9.3876,9.4035,9.4464,9.4705,9.5852,9.8711,9.9098,9.9098,0.0,0.0,0.0,0.0,9.9805,9.9659,9.9328,9.8851,9.8198,9.7303,9.6709,9.6345,9.6246,9.607,9.6,9.6,9.6,9.6178,9.6581,9.6801,9.7424,9.8422,9.9034,9.9622,10.0186,10.0609,10.0797,10.0808,10.109,10.1193,10.1303,10.2584,10.3416,10.3892,10.5212,10.5908,10.6191,10.6094,10.5997,10.5889,10.5802,10.5187,10.4204,10.3116,10.2197,10.1581,10.2118,10.2707,10.3397,10.4294,10.4501,10.4501,10.4501,10.4501,10.4817,10.5897,10.6789,10.7981,10.9511,11.0586,11.121,11.121,11.121,11.121,11.121,11.121,11.121,11.121,11.121,11.121,11.121,11.121,11.121,11.121,11.121,11.121,11.121,11.121,11.121,11.121,11.121,11.0403,10.8799,10.8799,10.7991,10.6386,10.6386,10.6386,10.6386,10.6386,10.6386,4.6528,4.8176,0.0,0.0,0.0,0.0,5.4122,5.9179,6.5137,0.0,7.5359,7.9724,8.3637,8.4667,8.5089,8.5563,8.6994,9.0436,9.7266,9.8398,9.8565,9.8694,9.8841,0.0,9.8841,9.8915,9.8668,9.7943,9.7833,9.7379,9.6441,9.6365,9.6246,9.598,9.5949,9.5929,9.5929,9.5929,9.5838,9.57,9.638,9.6711,9.6785,9.8402,9.9224,9.9453,10.03,10.0713,10.0713,10.0713,10.0791,10.0907,10.1803,10.2588,10.3488,10.4519,10.5218,10.579,10.5597,10.5282,10.5083,10.4806,10.4192,10.3386,10.2598,10.1816,10.1304,10.201,10.3313,10.4501,10.4501,10.4501,10.4501,10.4501,10.4501,10.4707,10.5608,10.6388,10.7511,10.9083,11.0282,11.1107,11.1214,11.1199,11.121,11.121,11.121,11.121,11.121,11.121,11.121,11.121,11.121,11.121,11.121,11.121,11.121,11.121,11.121,11.121,11.121,11.11,11.0414,10.8799,10.8615,10.7807,10.6386,10.6386,10.6386,10.6386,10.6386,10.6386,4.8866,4.9732,5.0384,0.0,0.0,0.0,0.0,5.3821,5.8533,6.2705,6.7753,7.2944,7.7993,7.8808,7.9114,8.0193,8.1673,8.5064,9.187,9.406,9.5293,9.6106,9.7346,9.787,9.7236,9.775,9.809,9.7906,9.7309,9.6782,9.6441,9.6216,9.597,9.5756,9.5592,9.5534,9.5534,9.5534,9.5514,9.5482,9.5617,9.6357,9.7582,9.7915,9.8796,9.9991,10.0217,10.0311,10.0311,10.0311,10.0492,10.0907,10.1803,10.22,10.2592,10.4199,10.4684,10.4493,10.4802,10.4604,10.4192,10.3601,10.3114,10.2488,10.1897,10.1285,10.1087,10.1986,10.3313,10.4501,10.4501,10.4501,10.4501,10.4501,10.4501,10.4697,10.5296,10.5991,10.6813,10.8111,10.9511,11.0584,11.0788,11.1099,11.121,11.121,11.121,11.121,11.121,11.121,11.121,11.121,11.121,11.121,11.121,11.121,11.121,11.121,11.121,11.121,11.121,11.0597,10.9801,10.8799,10.7514,10.6706,10.6386,10.6386,10.6386,10.6386,10.6386,10.6386,5.1632,5.1996,5.2024,5.0858,0.0,0.0,0.0,0.0,5.55,5.8662,6.2643,6.6815,7.0982,7.1765,7.1986,7.2705,7.4804,7.812,8.3145,8.86,9.3045,9.5766,9.6098,9.6108,9.6088,9.6465,9.6869,9.7273,9.6942,9.655,9.6236,9.607,9.5858,9.555,9.5435,9.5409,9.5409,9.5409,9.5409,9.5409,9.5409,9.6025,9.722,9.7618,9.8441,9.9636,9.9987,10.0204,10.0204,10.0204,10.0311,10.0481,10.1012,10.1593,10.2415,10.33,10.3785,10.4101,10.4012,10.3684,10.3198,10.2614,10.2083,10.1692,10.1293,10.1101,10.0999,10.1504,10.25,10.3397,10.3397,10.3397,10.3392,10.3492,10.4016,10.4505,10.52,10.6008,10.6992,10.7984,10.9204,11.0096,11.0503,11.0903,11.121,11.121,11.121,11.121,11.121,11.121,11.121,11.121,11.121,11.121,11.121,11.121,11.121,11.121,11.121,11.099,11.0597,11.0204,10.9397,10.8185,10.7011,10.6386,10.6386,10.6386,10.6386,10.6386,10.6386,10.6386,0.0,0.0,0.0,0.0,0.0,5.12,0.0,0.0,0.0,0.0,0.0,0.0,0.0,0.0,0.0,0.0,0.0,0.0,0.0,8.1386,0.0,9.3748,9.3639,9.3382,9.4033,9.451,9.5061,9.5694,9.573,9.5647,9.5546,9.5642,9.5631,9.543,9.5409,9.5409,9.5409,9.5409,9.5409,9.5409,9.5409,9.588,9.6858,9.7499,9.8332,9.9274,9.9926,10.0204,10.0204,10.0204,10.0204,10.0204,10.0204,10.0993,10.2085,10.2184,10.2811,10.3382,10.3,10.252,10.2003,10.1513,10.1219,10.0886,10.0683,10.0791,10.112,10.112,10.1588,10.2209,10.2209,10.2209,10.2298,10.2601,10.3499,10.4516,10.5194,10.6387,10.7604,10.8393,10.9081,10.98,11.0296,11.0788,11.121,11.121,11.121,11.121,11.121,11.121,11.121,11.121,11.1111,11.1001,11.1001,11.0806,11.0696,11.0696,11.0696,11.0403,10.9801,10.9617,10.8894,10.7388,10.6717,10.6386,10.6386,10.6386,10.6386,10.6386,10.6386,10.6386,0.0,0.0,0.0,0.0,5.3663,0.0,0.0,0.0,0.0,0.0,0.0,0.0,0.0,0.0,0.0,0.0,0.0,0.0,6.7331,7.0846,7.6227,8.4934,8.7692,8.894,8.9014,9.0959,9.2244,9.2354,9.2197,9.2613,9.3822,9.4372,9.4896,9.5383,9.5409,9.5409,9.5409,9.5409,9.5409,9.5409,9.5409,9.6206,9.7691,9.7763,9.8622,10.0107,10.0215,10.0204,10.0204,10.0204,10.0204,10.0204,10.0204,10.049,10.0895,10.1199,10.1317,10.12,10.129,10.0996,10.0521,10.0214,10.012,9.9993,9.9999,10.0493,10.112,10.112,10.1588,10.2209,10.2209,10.2209,10.2307,10.2911,10.4,10.5116,10.5694,10.6805,10.7906,10.8606,10.9097,10.9691,11.0296,11.0788,11.121,11.121,11.121,11.121,11.121,11.121,11.121,11.121,11.0608,11.0083,11.0083,10.9496,10.9092,10.9092,10.9092,10.9008,10.8909,10.8306,10.7498,10.6607,10.6413,10.6386,10.6386,10.6386,10.6386,10.6386,10.6386,10.6386,0.0,0.0,0.0,0.0,0.0,0.0,0.0,0.0,5.1283,0.0,0.0,0.0,0.0,0.0,0.0,0.0,5.7944,0.0,0.0,0.0,6.9776,0.0,0.0,0.0,8.5894,8.7435,8.8685,0.0,8.9477,9.0189,9.1943,9.3164,9.4077,9.4674,9.471,9.4927,9.5409,9.5409,9.5409,9.5409,9.5409,9.6242,9.7789,9.7789,9.8694,10.0204,10.0204,10.0204,10.0204,10.0204,10.0204,10.0204,10.0204,10.0593,10.0996,10.0788,10.091,10.1009,10.0712,10.0408,9.9987,9.9927,9.9898,9.9898,9.9898,10.009,10.0415,10.0415,10.0622,10.0898,10.0898,10.0898,10.1102,10.1791,10.3095,10.4384,10.5192,10.6418,10.7614,10.8016,10.8397,10.8807,10.9212,11.028,11.121,11.121,11.121,11.121,11.121,11.121,11.099,11.0608,11.0204,10.9801,10.9312,10.8982,10.8799,10.8799,10.8406,10.8112,10.8112,10.7304,10.6717,10.6386,10.6386,10.6386,10.6386,10.6386,10.6386,10.6386,10.6386,10.6386,6.7645,0.0,0.0,0.0,0.0,0.0,0.0,0.0,0.0,0.0,0.0,0.0,0.0,0.0,0.0,0.0,0.0,5.8044,0.0,0.0,0.0,0.0,0.0,0.0,0.0,8.3214,8.4347,8.5657,0.0,8.6866,8.9202,9.1168,9.2746,9.3831,9.4084,9.4602,9.5373,9.5409,9.5409,9.5409,9.5409,9.6242,9.7789,9.7789,9.8694,10.0204,10.0204,10.0204,10.0204,10.0204,10.0218,10.0116,10.0002,10.0416,10.0989,10.0311,10.0396,10.0781,10.0186,9.9927,9.9898,9.9898,9.9898,9.9898,9.9898,9.9898,9.9898,9.9898,9.9898,9.9898,9.9898,9.9898,10.0094,10.108,10.2607,10.4118,10.5001,10.6485,10.7685,10.7893,10.8111,10.8301,10.8504,10.9585,11.0513,11.0513,11.0513,11.0513,11.0513,11.0513,11.0304,10.9679,10.9507,10.9103,10.8505,10.8295,10.8101,10.8101,10.7598,10.7315,10.7315,10.6717,10.6386,10.6386,10.6386,10.6386,10.6386,10.6386,10.6386,10.6386,10.6386,10.6386,0.0,0.0,0.0,0.0,0.0,0.0,0.0,0.0,5.3826,0.0,0.0,0.0,0.0,0.0,0.0,0.0,0.0,0.0,0.0,0.0,0.0,0.0,0.0,0.0,0.0,7.7855,7.9176,0.0,8.0413,8.2018,8.5217,8.8004,9.0591,9.2961,9.3794,9.4602,9.5373,9.5409,9.5409,9.5409,9.5409,9.6242,9.7789,9.7789,9.8694,10.0204,10.0204,10.0204,10.0204,10.0204,9.9999,9.9786,9.9536,9.9706,10.009,9.9402,9.9492,9.984,9.9229,9.9421,9.9898,9.9898,9.9898,9.9898,9.9898,9.9898,9.9898,9.9898,9.9898,9.9898,9.9898,9.9898,10.02,10.139,10.2999,10.4585,10.5811,10.7482,10.8792,10.8803,10.8814,10.8788,10.8788,10.8788,10.8909,10.8909,10.8909,10.8909,10.8909,10.8909,10.8909,10.8799,10.8112,10.7682,10.7598,10.69,10.6497,10.6497,10.6497,10.6413,10.6413,10.6386,10.6386,10.6386,10.6386,10.6386,10.6386,10.6386,10.6386,10.6386,10.6386,10.6386,0.0,0.0,7.2429,6.9887,0.0,0.0,0.0,0.0,0.0,0.0,0.0,0.0,0.0,0.0,0.0,0.0,0.0,0.0,0.0,0.0,0.0,0.0,0.0,0.0,0.0,0.0,0.0,0.0,7.4909,0.0,8.159,8.4764,8.7944,9.1306,9.2708,9.4058,9.5373,9.5409,9.5409,9.5409,9.5409,9.6242,9.7789,9.7789,9.8694,10.0204,10.0204,10.0204,10.0204,10.0204,9.9946,9.9477,9.9013,9.9123,9.9508,9.8819,9.8992,9.9504,9.911,9.9391,9.9898,9.9898,9.9898,9.9898,9.9898,9.9898,9.9898,9.9898,9.9898,9.9898,9.9898,9.9898,10.0108,10.1108,10.221,10.3303,10.4321,10.5385,10.6307,10.638,10.6594,10.6711,10.69,10.7087,10.7598,10.8615,10.8799,10.8799,10.8799,10.8799,10.8615,10.8086,10.7792,10.7388,10.6911,10.6607,10.6386,10.6386,10.6386,10.6386,10.6386,10.6386,10.6386,10.6386,10.6386,10.6386,10.6386,10.6386,10.6386,10.6386,10.6386,10.6386,8.2247,8.0454,0.0,7.6441,7.3061,0.0,6.5393,0.0,0.0,0.0,0.0,0.0,0.0,0.0,0.0,0.0,0.0,0.0,0.0,0.0,0.0,0.0,0.0,0.0,0.0,0.0,6.8454,6.9648,7.0156,7.255,0.0,0.0,8.5143,8.9603,9.1875,9.3768,9.5383,9.5409,9.5409,9.5409,9.5409,9.6242,9.7789,9.7789,9.8694,10.0204,10.0204,10.0088,10.0093,9.9957,9.9548,9.8919,9.8237,9.8169,9.8405,9.8111,9.8441,9.9046,9.887,9.9229,9.9758,9.9758,9.9831,9.9898,9.9898,9.9898,9.9898,9.9898,9.9898,9.9898,9.9898,9.9898,10.01,10.0893,10.1592,10.2315,10.3084,10.3793,10.4382,10.4806,10.5103,10.5394,10.5798,10.6185,10.679,10.7807,10.7918,10.7918,10.7918,10.7918,10.7697,10.7194,10.7205,10.7021,10.6413,10.6386,10.6386,10.6386,10.6386,10.6386,10.6386,10.6386,10.6386,10.6386,10.6386,10.6386,10.6386,10.6386,10.6386,10.6386,10.6386,10.6386]},{"header":{"parameterUnit":"m.s-1","parameterCategory":1,"la1":30.6,"la2":29.2853,"lo1":-89.7004,"lo2":-87.6739,"dy":0.0162,"dx":0.0183,"nx":112,"ny":82,"refTime":"2026-04-01T12:00:00:Z","depth":0,"parameterNumber":3,"parameterNumberName":"V-component_of_WINDS"},"data":[0.0,0.0,0.0,0.0,0.0,0.0,0.0,0.0,0.0,0.0,0.0,0.0,0.0,0.0,0.0,0.0,0.0,0.0,0.0,0.0,0.0,0.0,0.0,0.0,0.0,0.0,0.0,0.0,0.0,0.0,0.0,0.0,0.0,0.0,0.0,0.0,0.0,0.0,0.0,0.0,0.0,0.0,0.0,0.0,0.0,0.0,0.0,0.0,0.0,0.0,0.0,0.0,0.0,0.0,0.0,0.0,0.0,0.0,0.0,0.0,0.0,0.0,0.0,0.0,0.0,0.0,0.0,0.0,0.0,0.0,0.0,0.0,0.0,0.0,0.0,0.0,0.0,0.0,0.0,0.0,0.0,0.0,0.0,0.0,0.0,0.0,0.0,0.0,0.0,0.0,0.0,1.3397,1.5357,1.6381,1.5985,1.5428,1.4434,1.2909,0.0,0.0,0.0,0.0,0.0,0.0,0.0,0.0,0.0,0.0,0.0,0.0,0.0,0.0,0.0,0.0,0.0,0.0,0.0,0.0,0.0,0.0,0.0,0.0,0.0,0.0,0.0,0.0,0.0,0.0,0.0,0.0,0.0,0.0,0.0,0.0,0.0,0.0,0.0,0.0,0.0,0.0,0.0,0.0,0.0,0.0,0.0,0.0,0.0,0.0,0.0,0.0,0.0,0.0,0.0,0.0,0.0,0.0,0.0,0.0,0.0,0.0,0.0,0.0,0.0,0.0,0.0,0.0,0.0,0.0,0.0,0.0,0.0,0.0,0.0,0.0,0.0,0.0,0.0,0.0,0.0,0.0,0.0,0.0,0.0,0.0,0.0,0.0,0.0,0.0,0.0,0.0,0.0,0.0,0.0,0.0,0.0,0.0,0.0,0.0,0.0,0.0,0.0,0.0,1.2578,1.4988,1.6112,1.6559,1.6266,1.5787,1.4873,1.3397,0.0,0.0,0.0,0.0,0.0,0.0,0.0,0.0,0.0,0.0,0.0,0.0,0.0,0.0,0.0,0.0,0.0,0.0,0.0,0.0,0.0,0.0,0.0,0.0,0.0,0.0,0.0,0.0,0.0,0.0,0.0,0.0,0.0,0.0,0.0,0.0,0.0,0.0,0.0,0.0,0.0,0.0,0.0,0.0,0.0,0.0,0.0,0.0,0.0,0.0,0.0,0.0,0.0,0.0,0.0,0.0,0.0,0.0,0.0,0.0,0.0,0.0,0.0,0.0,0.0,0.0,0.0,0.0,0.0,0.0,0.0,0.0,0.0,0.0,0.0,0.0,0.0,0.0,0.0,0.0,0.0,0.0,0.0,0.0,0.0,0.0,0.0,0.0,0.0,0.0,0.0,0.0,0.0,0.0,0.0,0.0,0.0,0.0,0.0,0.0,0.0,0.0,0.0,1.242,1.4102,1.5594,1.6429,1.679,1.6576,1.6237,1.5356,1.3768,1.2216,0.0,0.0,0.0,0.0,0.0,0.0,0.0,0.0,0.0,0.0,0.0,0.0,0.0,0.0,0.0,0.0,0.0,0.0,0.0,0.0,0.0,0.0,0.0,0.0,0.0,0.0,0.0,0.0,0.0,0.0,0.0,0.0,0.0,0.0,0.0,0.0,0.0,0.0,0.0,0.0,0.0,0.0,0.0,0.0,0.0,0.0,0.0,0.0,0.0,0.0,0.0,0.0,0.0,0.0,0.0,0.0,0.0,0.0,0.0,0.0,0.0,0.0,0.0,0.0,0.0,0.0,0.0,0.0,0.0,0.0,0.0,0.0,0.0,0.0,0.0,0.0,0.0,0.0,0.0,0.0,0.0,0.0,0.0,0.0,0.0,0.0,0.0,0.0,0.0,0.0,0.0,0.0,0.0,0.0,0.0,0.0,0.0,0.0,0.0,0.0,0.0,0.0,1.4029,1.5326,1.5924,1.6597,1.6979,1.6903,1.6578,1.5712,1.412,1.2667,0.0,0.0,0.0,0.0,0.0,0.0,0.0,0.0,0.0,0.0,0.0,0.0,0.0,0.0,0.0,0.0,0.0,0.0,0.0,0.0,0.0,0.0,0.0,0.0,0.0,0.0,0.0,0.0,0.0,0.0,0.0,0.0,0.0,0.0,0.0,0.0,0.0,0.0,0.0,0.0,0.0,0.0,0.0,0.0,0.0,0.0,0.0,0.0,0.0,0.0,0.0,0.0,0.0,0.0,0.0,0.0,0.0,0.0,0.0,0.0,0.0,0.0,0.0,0.0,0.0,0.0,0.0,0.0,0.0,0.0,0.0,0.0,0.0,0.0,0.0,0.0,0.0,0.0,0.0,0.0,0.0,0.0,0.0,0.0,0.0,0.0,0.0,0.0,0.0,0.0,0.0,0.0,0.0,0.0,0.0,0.0,0.0,0.0,0.0,0.0,0.0,0.0,1.4434,1.5608,1.6212,1.67,1.7041,1.7157,1.6632,1.5751,1.4446,1.2758,0.0,0.0,0.0,0.0,0.0,0.0,0.0,0.0,0.0,0.0,0.0,0.0,0.0,0.0,0.0,0.0,0.0,0.0,0.0,0.0,0.0,0.0,0.0,0.0,0.0,0.0,0.0,0.0,0.0,0.0,0.0,0.0,0.0,0.0,0.0,0.0,0.0,0.0,0.0,0.0,0.0,0.0,0.0,0.0,0.0,0.0,0.0,0.0,0.0,0.0,0.0,0.0,0.0,0.0,0.0,0.0,0.0,0.0,0.0,0.0,0.0,0.0,0.0,0.0,0.0,0.0,0.0,0.0,0.0,0.0,0.0,0.0,0.0,0.0,0.0,0.0,0.0,0.0,0.0,0.0,0.0,0.0,0.0,0.0,0.0,0.0,0.0,0.0,0.0,0.0,0.0,0.0,0.0,0.0,0.0,0.0,0.0,0.0,0.0,0.0,0.0,0.0,1.5459,1.6989,0.0,1.8582,1.9109,1.924,1.8733,1.7761,1.617,0.0,0.0,0.0,0.0,0.0,0.0,0.0,0.0,0.0,0.0,0.0,0.0,0.0,0.0,0.0,0.0,0.0,0.0,0.0,0.0,0.0,0.0,0.0,0.0,0.0,0.0,0.0,0.0,0.0,0.0,0.0,0.0,0.0,0.0,0.0,0.0,0.0,0.0,0.0,0.0,0.0,0.0,0.0,0.0,0.0,0.0,0.0,0.0,0.0,0.0,0.0,0.0,0.0,0.0,0.0,0.0,0.0,0.0,0.0,0.0,0.0,0.0,0.0,0.0,0.0,0.0,0.0,0.0,0.0,0.0,0.0,0.0,0.0,0.0,0.0,0.0,0.0,0.0,0.0,0.0,0.0,0.0,0.0,0.0,0.0,0.0,0.0,0.0,0.0,0.0,0.0,0.0,0.0,0.0,0.0,0.0,0.0,0.0,0.0,0.0,0.0,0.0,1.4084,1.6507,1.8439,0.0,2.0653,2.1394,2.1472,2.087,1.9706,1.7928,0.0,0.0,0.0,0.0,0.0,0.0,0.0,0.0,0.0,0.0,0.0,0.0,0.0,0.0,0.0,0.0,0.0,0.0,0.0,0.0,0.0,0.0,0.0,0.0,0.0,0.0,0.0,0.0,0.0,0.0,0.0,0.0,0.0,0.0,0.0,0.0,0.0,0.0,0.0,0.0,0.0,0.0,0.0,0.0,0.0,0.0,0.0,0.0,0.0,0.0,0.0,0.0,0.0,0.0,0.0,0.0,0.0,0.0,0.0,0.0,0.0,0.0,0.0,0.0,0.0,0.0,0.0,0.0,0.0,0.0,0.0,0.0,0.0,0.0,0.0,0.0,0.0,0.0,0.0,0.0,0.0,0.0,0.0,0.0,0.0,0.0,0.0,0.0,0.0,0.0,0.0,0.0,0.0,0.0,0.0,0.0,0.0,0.0,0.0,0.0,0.0,0.0,1.485,1.7576,1.9797,2.1292,2.2763,2.3653,2.364,2.2735,2.1364,0.0,0.0,0.0,0.0,0.0,0.0,0.0,0.0,0.0,0.0,0.0,0.0,0.0,0.0,0.0,0.0,0.0,0.0,0.0,0.0,0.0,0.0,0.0,0.0,0.0,0.0,0.0,0.0,0.0,0.0,0.0,0.0,0.0,0.0,0.0,0.0,0.0,0.0,0.0,0.0,0.0,0.0,0.0,0.0,0.0,0.0,0.0,0.0,0.0,0.0,0.0,0.0,0.0,0.0,0.0,0.0,0.0,0.0,0.0,0.0,0.0,0.0,0.0,0.0,0.0,0.0,0.0,0.0,0.0,0.0,0.0,0.0,0.0,0.0,0.0,0.0,0.0,0.0,0.0,0.0,0.0,0.0,0.0,0.0,0.0,0.0,0.0,0.0,0.0,0.0,0.0,0.0,0.0,0.0,0.0,0.0,0.0,0.0,0.0,0.0,0.0,0.0,0.0,0.0,1.9552,2.2094,2.3572,2.5053,2.5942,2.5998,2.5217,2.3839,2.1786,0.0,0.0,0.0,0.0,0.0,0.0,0.0,0.0,0.0,0.0,0.0,0.0,0.0,0.0,0.0,0.0,0.0,0.0,0.0,0.0,0.0,0.0,0.0,0.0,0.0,0.0,0.0,0.0,0.0,0.0,0.0,0.0,0.0,0.0,0.0,0.0,0.0,0.0,0.0,0.0,0.0,0.0,0.0,0.0,0.0,0.0,0.0,0.0,0.0,0.0,0.0,0.0,0.0,0.0,0.0,0.0,0.0,0.0,0.0,0.0,0.0,0.0,0.0,0.0,0.0,0.0,0.0,0.0,0.0,0.0,0.0,0.0,0.0,0.0,0.0,0.0,0.0,0.0,0.0,0.0,0.0,0.0,0.0,0.0,0.0,0.0,0.0,0.0,0.0,0.0,0.0,0.0,0.0,0.0,0.0,0.0,0.0,0.0,0.0,0.0,0.0,0.0,1.7881,2.1513,2.4348,2.5815,2.7332,2.8155,2.7979,2.7233,2.5746,2.3394,0.0,0.0,0.0,0.0,0.0,0.0,0.0,0.0,0.0,0.0,0.0,0.0,0.0,0.0,0.0,0.0,0.0,0.0,0.0,0.0,0.0,0.0,0.0,0.0,0.0,0.0,0.0,0.0,0.0,0.0,0.0,0.0,0.0,0.0,0.0,0.0,0.0,0.0,0.0,0.0,0.0,0.0,0.0,0.0,0.0,0.0,0.0,0.0,0.0,0.0,0.0,0.0,0.0,0.0,0.0,0.0,0.0,0.0,0.0,0.0,0.0,0.0,0.0,0.0,0.0,0.0,0.0,0.0,0.0,0.0,0.0,0.0,0.0,0.0,0.0,0.0,0.0,0.0,0.0,0.0,0.0,0.0,0.0,0.0,0.0,0.0,0.0,0.0,0.0,0.0,0.0,0.0,0.0,0.0,0.0,0.0,0.0,0.0,0.0,0.0,0.0,0.0,1.9341,2.3335,2.6387,2.7825,2.931,2.9983,2.9489,2.8753,2.7184,2.4511,0.0,0.0,0.0,0.0,0.0,0.0,0.0,0.0,0.0,0.0,0.0,0.0,0.0,0.0,0.0,0.0,0.0,0.0,0.0,0.0,0.0,0.0,0.0,0.0,0.0,0.0,0.0,0.0,0.0,0.0,0.0,0.0,0.0,0.0,0.0,0.0,0.0,0.0,0.0,0.0,0.0,0.0,0.0,0.0,0.0,0.0,0.0,0.0,0.0,0.0,0.0,0.0,0.0,0.0,0.0,0.0,0.0,0.0,0.0,0.0,1.0157,0.0,0.0,0.0,0.0,0.0,0.0,0.0,0.0,0.0,0.0,0.0,0.0,0.0,0.0,0.0,0.0,0.0,0.0,0.0,0.0,0.0,0.0,0.0,0.0,0.0,0.0,0.0,0.0,0.0,0.0,0.0,0.0,0.0,0.0,0.0,0.0,0.0,0.0,0.0,0.0,0.0,2.0333,2.4306,2.7226,2.832,2.9498,3.0081,2.9743,2.9369,2.8101,2.5596,0.0,0.0,0.0,0.0,0.0,0.0,0.0,0.0,0.0,0.0,0.0,0.0,0.0,0.0,0.0,0.0,0.0,0.0,0.0,0.0,0.0,0.0,0.0,0.0,0.0,0.0,0.0,0.0,0.0,0.0,0.0,0.0,0.0,0.0,0.0,0.0,0.0,0.0,0.0,0.0,0.0,0.0,0.0,0.0,0.0,0.0,0.0,0.0,0.0,0.0,0.0,0.0,0.0,0.0,0.0,0.0,0.0,0.0,0.0,0.0,0.0,1.1084,0.0,0.0,0.0,0.0,0.0,0.0,0.0,0.0,0.0,0.0,0.0,0.0,0.0,0.0,0.0,0.0,0.0,0.0,0.0,0.0,0.0,0.0,0.0,0.0,0.0,0.0,0.0,0.0,0.0,0.0,0.0,0.0,0.0,0.0,0.0,0.0,0.0,0.0,0.0,0.0,2.127,2.54,2.8252,2.89,2.9712,3.0045,2.9646,2.9369,2.8283,2.6124,2.4122,0.0,0.0,0.0,0.0,0.0,0.0,0.0,0.0,0.0,0.0,0.0,0.0,0.0,0.0,0.0,0.0,0.0,0.0,0.0,0.0,0.0,0.0,0.0,0.0,0.0,0.0,0.0,0.0,0.0,0.0,0.0,0.0,0.0,0.0,0.0,0.0,0.0,0.0,0.0,0.0,0.0,0.0,0.0,0.0,0.0,0.0,0.0,0.0,0.0,0.0,0.0,0.0,0.0,1.9496,1.8915,1.8541,1.6846,1.6092,1.6025,1.441,1.3243,1.2479,0.0,0.0,0.0,0.0,0.0,0.0,0.0,0.0,0.0,0.0,0.0,0.0,0.0,0.0,0.0,0.0,0.0,0.0,0.0,0.0,0.0,0.0,0.0,0.0,0.0,1.6398,1.6455,0.0,0.0,0.0,0.0,0.0,0.0,0.0,0.0,0.0,0.0,0.0,0.0,2.2162,2.6327,2.9091,2.9381,2.9888,3.0007,2.9586,2.926,2.8343,2.6582,2.4764,2.2867,0.0,0.0,0.0,0.0,0.0,0.0,0.0,0.0,0.0,0.0,0.0,0.0,0.0,0.0,0.0,0.0,0.0,0.0,0.0,0.0,0.0,0.0,0.0,0.0,0.0,0.0,0.0,0.0,0.0,0.0,0.0,0.0,1.6726,1.6735,0.0,0.0,0.0,0.0,0.0,0.0,0.0,0.0,0.0,0.0,0.0,0.0,0.0,2.1235,2.2398,2.3437,2.3984,2.3994,2.3634,2.288,2.1755,2.0801,2.0168,1.9766,1.947,0.0,1.3994,1.3859,0.0,0.0,0.0,0.0,0.0,0.0,0.0,0.0,0.0,0.0,0.0,0.0,0.0,0.0,0.0,0.0,0.0,0.0,0.0,0.0,0.0,0.0,1.8071,1.9151,2.0317,2.1328,0.0,1.9769,1.7645,1.6757,0.0,0.0,0.0,0.0,0.0,0.0,0.0,0.0,2.2823,2.6582,2.9091,2.9381,2.9888,3.0164,3.0092,2.9646,2.885,2.7655,2.6051,2.4411,2.2799,2.0894,0.0,0.0,0.0,0.0,0.0,0.0,0.0,0.0,0.0,0.0,0.0,0.0,0.0,0.0,0.0,0.0,0.0,0.0,0.0,0.0,0.0,0.0,0.0,0.0,0.0,0.0,0.0,0.0,0.0,1.7071,1.8281,1.8437,1.8371,1.789,0.0,0.0,0.0,0.0,0.0,0.0,0.0,0.0,0.0,2.3329,2.4891,2.6297,2.7461,2.8774,2.9444,2.9465,2.8783,2.8105,2.7418,2.5874,2.5072,2.4881,2.4575,2.3152,2.0817,1.7812,1.586,1.4721,0.0,0.0,0.0,0.0,1.3447,1.3508,1.3915,1.3735,0.0,0.0,0.0,0.0,0.0,0.0,0.0,0.0,0.0,0.0,0.0,0.0,0.0,2.1967,2.3306,2.4399,2.4751,2.3946,2.2632,0.0,1.9936,1.8839,1.6628,0.0,0.0,0.0,0.0,0.0,2.3988,2.7192,2.9332,2.9598,2.9984,3.0153,2.9996,2.9767,2.9236,2.8307,2.7306,2.6027,2.4456,2.2887,2.0971,0.0,0.0,0.0,0.0,0.0,0.0,0.0,0.0,0.0,0.0,0.0,0.0,0.0,0.0,0.0,0.0,0.0,0.0,0.0,0.0,0.0,0.0,0.0,0.0,0.0,0.0,0.0,0.0,1.8617,1.9849,2.0265,2.0477,2.0232,0.0,0.0,0.0,0.0,0.0,0.0,2.3337,2.4638,2.597,2.7416,2.8983,3.0364,3.1513,3.2952,3.3681,3.3687,3.2951,3.2455,3.2101,3.0303,2.9487,2.9453,2.8961,2.816,2.6829,2.1766,1.8947,1.7671,1.6415,1.5857,1.5758,1.5758,1.572,1.5664,1.5896,1.557,1.5055,1.476,0.0,1.3207,1.279,0.0,0.0,0.0,0.0,1.7731,1.984,2.188,2.3656,2.4771,2.61,2.7111,2.6989,2.7192,2.6617,0.0,2.3196,2.2121,1.9857,0.0,0.0,0.0,0.0,2.2873,2.5147,2.7748,2.9501,2.9767,3.0045,3.0129,2.9924,2.9779,2.9417,2.8741,2.8066,2.7101,2.5752,2.4427,2.2684,0.0,0.0,0.0,0.0,0.0,0.0,0.0,0.0,0.0,0.0,0.0,0.0,0.0,0.0,0.0,0.0,0.0,0.0,0.0,0.0,0.0,0.0,0.0,0.0,0.0,0.0,0.0,0.0,0.0,0.0,2.246,2.2538,0.0,0.0,0.0,0.0,2.3109,2.3748,2.4932,2.6931,2.7693,2.8852,3.0512,3.1345,3.2313,3.3445,3.4608,3.5169,3.5087,3.5056,3.4754,3.4234,3.3219,3.2756,3.2727,3.2074,3.099,2.9352,2.4763,2.2153,2.0815,1.8291,1.7308,1.73,1.73,1.7432,1.7637,1.752,1.7381,1.713,1.6421,1.5208,1.4169,1.482,1.5431,0.0,0.0,1.9676,2.1327,2.3103,2.5061,2.6818,2.7831,2.9055,2.9917,2.9654,2.9222,2.8236,0.0,2.4878,2.3902,2.2615,0.0,2.0128,2.1402,2.2736,2.4256,2.611,2.8117,2.9501,2.9767,3.0045,3.0188,3.0176,2.9719,2.9296,2.8994,2.7993,2.7161,2.656,2.5246,2.3776,2.211,2.0227,0.0,0.0,0.0,0.0,0.0,0.0,0.0,0.0,0.0,0.0,0.0,0.0,0.0,0.0,0.0,0.0,0.0,0.0,0.0,0.0,0.0,0.0,0.0,0.0,0.0,0.0,0.0,0.0,2.5153,2.5858,0.0,2.6365,2.5697,2.5834,2.7196,2.8061,2.9182,3.0638,3.1309,3.217,3.3343,3.4164,3.4953,3.5722,3.6133,3.6424,3.6596,3.6387,3.6206,3.5985,3.5658,3.5515,3.5515,3.5263,3.4669,3.367,3.0726,2.7219,2.3496,2.157,2.0805,2.0805,2.0805,2.0631,2.0398,2.0462,1.9801,1.876,1.7738,1.7147,1.7048,1.8097,1.8907,1.9887,2.2033,2.3357,2.4507,2.6029,2.7316,2.8399,2.9112,2.9884,3.0346,2.9888,2.9513,2.8981,2.7997,2.7165,2.6287,2.5328,2.4338,2.3907,2.4552,2.5163,2.6162,2.7865,2.8993,2.9888,3.0503,3.066,3.0588,3.0224,3.0007,2.9598,2.8789,2.8379,2.786,2.7149,2.6307,2.5288,2.4031,2.2207,2.03,0.0,0.0,0.0,0.0,0.0,0.0,0.0,0.0,0.0,0.0,0.0,0.0,0.0,0.0,0.0,0.0,0.0,0.0,0.0,0.0,0.0,0.0,0.0,0.0,0.0,0.0,2.5995,2.7193,2.8175,2.8857,2.9141,2.8838,2.9122,3.0383,3.1214,3.2085,3.3125,3.3588,3.4255,3.5215,3.5897,3.65,3.706,3.7275,3.7489,3.7704,3.7567,3.7499,3.7499,3.7499,3.746,3.7382,3.7233,3.6886,3.6244,3.4597,3.1517,2.7521,2.4746,2.3783,2.3936,2.362,2.3413,2.317,2.2637,2.1218,1.9596,1.9168,1.9303,1.9891,2.1451,2.268,2.396,2.5966,2.7088,2.7935,2.8939,2.9571,3.0034,3.0378,3.0748,3.0881,3.0451,2.9848,2.9384,2.9299,2.8546,2.7751,2.7113,2.657,2.6305,2.6558,2.6763,2.739,2.8837,2.9465,3.0033,3.066,3.0817,3.0612,2.9971,2.9864,2.9404,2.8512,2.821,2.7824,2.7282,2.6656,2.5861,2.4885,2.2833,2.0833,1.8959,0.0,0.0,0.0,0.0,0.0,0.0,0.0,0.0,0.0,0.0,0.0,0.0,0.0,0.0,0.0,0.0,0.0,0.0,0.0,0.0,0.0,0.0,0.0,2.2672,2.5013,2.7203,2.8565,2.9417,3.0196,3.0958,3.0828,3.1249,3.2583,3.2988,3.3505,3.4311,3.4399,3.4939,3.6059,3.6353,3.6795,3.7382,3.7998,3.8292,3.8292,3.8544,3.8662,3.8662,3.8662,3.8533,3.8252,3.7929,3.7441,3.6834,3.5983,3.4744,3.2855,2.7685,2.6045,2.6499,2.5583,2.5652,2.5926,2.391,2.1617,1.9775,2.0864,2.1673,2.2581,2.4741,2.6613,2.8266,2.9594,3.0665,3.1488,3.1768,3.1807,3.1807,3.1807,3.1819,3.1743,3.1476,3.0373,2.9511,2.9796,2.8968,2.8161,2.7907,2.7436,2.7182,2.7448,2.7484,0.0,2.8898,2.9465,2.99,3.0176,3.0429,3.0286,2.9489,2.9175,2.8777,2.8233,2.7449,2.7015,2.6991,2.6208,2.5412,2.4592,2.206,1.983,1.7965,0.0,0.0,0.0,0.0,0.0,0.0,0.0,0.0,0.0,0.0,0.0,0.0,0.0,0.0,0.0,0.0,0.0,0.0,0.0,0.0,0.0,0.0,2.4559,2.4819,2.7367,2.9731,3.1133,3.1959,3.2759,3.3638,3.3278,3.342,3.4402,3.4566,3.4912,3.5565,3.5205,3.5325,3.6086,3.618,3.658,3.7382,3.7771,3.8065,3.8292,3.8143,3.8034,3.8034,3.8034,3.7889,3.7637,3.7557,3.7284,3.6876,3.6628,3.6071,3.4931,3.0743,2.9155,2.9143,2.884,2.8649,2.8314,2.6534,2.4915,2.3673,2.4142,2.4936,2.5965,2.747,2.8814,3.0097,3.1249,3.1769,3.2048,3.2302,3.2251,3.2086,3.2086,3.1934,3.1769,3.1717,3.08,3.0105,3.0584,2.9967,2.9282,2.9011,2.9123,2.9272,2.9347,2.9064,0.0,2.9787,2.9651,2.9767,3.0431,3.0564,3.0358,2.9743,2.9774,2.9309,0.0,2.754,2.7024,2.6643,2.5911,2.5029,2.4041,2.2404,2.0924,0.0,0.0,0.0,0.0,0.0,0.0,0.0,0.0,0.0,0.0,0.0,0.0,0.0,0.0,0.0,0.0,0.0,0.0,0.0,0.0,0.0,0.0,2.5277,2.7169,2.8078,2.9756,3.1316,3.2447,3.3423,3.4229,3.4909,3.475,3.4883,3.5538,3.5792,3.5912,3.5885,3.5792,3.5845,3.6086,3.6313,3.6794,3.7555,3.7968,3.8261,3.8466,3.8261,3.8183,3.8183,3.8183,3.8036,0.0,3.7624,3.7448,3.7274,3.7155,3.686,0.0,0.0,0.0,0.0,0.0,3.1305,3.0641,2.9443,2.7992,2.6763,2.7378,2.8177,2.9063,3.0139,3.0989,3.1718,3.2207,3.2188,3.2072,3.2487,3.2487,3.2409,3.2655,3.2577,3.2435,3.2343,3.1468,3.084,3.1261,0.0,0.0,3.0387,3.0448,3.0484,3.0484,3.0049,2.9896,3.0293,3.0006,2.9899,3.0395,3.0539,3.0423,2.9993,2.996,0.0,0.0,0.0,2.7006,2.6246,2.5577,0.0,0.0,0.0,0.0,0.0,0.0,0.0,0.0,1.8093,1.8416,0.0,0.0,0.0,0.0,0.0,0.0,0.0,0.0,0.0,0.0,0.0,0.0,0.0,0.0,0.0,0.0,2.7596,2.9851,3.1554,3.2056,3.2475,3.3175,3.4187,3.4963,3.5257,3.5525,3.5805,3.6126,3.6579,3.6513,3.5738,0.0,0.0,0.0,0.0,3.7207,3.7781,3.8408,3.8689,3.8689,3.8689,3.8689,3.8689,3.8689,3.8544,3.8279,3.7998,3.7821,3.7782,3.7529,3.7246,3.6738,3.4466,3.392,3.4383,3.415,3.3546,3.2807,3.2232,0.0,0.0,3.0441,3.1151,3.1727,3.2475,3.2912,3.3091,3.2781,3.2289,3.2021,3.2607,3.2768,3.2904,3.344,3.3587,3.3534,3.3265,3.2377,3.1695,3.1951,3.1548,3.1365,3.186,3.152,3.1189,3.1189,3.0734,3.0478,3.0702,3.0475,3.0293,3.0317,0.0,0.0,3.0367,3.0117,2.9834,2.9449,2.8244,2.7097,2.6115,2.5574,2.534,2.5364,2.4636,2.3907,2.3172,2.3172,2.3164,2.3106,2.1661,2.1553,0.0,0.0,0.0,0.0,0.0,0.0,0.0,0.0,0.0,0.0,0.0,0.0,0.0,0.0,0.0,2.7253,2.9397,3.1146,3.2273,3.3457,3.4365,3.4736,3.4977,3.5324,3.5872,3.5979,3.6112,3.6393,3.6513,3.65,3.6312,3.6219,0.0,3.6433,3.6726,3.7207,3.7781,3.8408,3.8689,3.8689,0.0,0.0,3.8689,3.8689,3.8544,3.8292,3.824,3.8036,3.7781,3.7742,3.7566,3.7168,3.5727,3.5185,3.5247,3.5037,3.483,3.4575,3.3767,3.2912,3.2214,3.2507,3.2945,3.3401,3.3343,3.3663,0.0,3.34,3.316,3.316,3.3559,3.3801,3.4068,3.4441,3.4683,3.4776,3.4508,3.3751,3.3089,3.3095,3.2712,3.2458,3.2722,3.2509,3.2277,3.2277,3.1837,3.152,3.1548,3.1144,3.0937,3.1139,3.1214,3.1227,3.1162,3.1072,3.0809,3.0306,2.9161,2.8292,2.7757,2.744,2.7364,2.7592,2.7213,2.6754,2.6163,2.6163,2.6059,2.5798,2.38,2.335,0.0,0.0,0.0,0.0,0.0,0.0,0.0,0.0,0.0,0.0,0.0,2.2134,2.4058,0.0,2.6931,2.8764,3.0394,3.181,3.285,3.404,3.4896,3.5164,3.5484,3.5805,3.6273,3.6433,3.6553,3.6699,3.6874,3.6821,3.6513,3.6647,3.6727,3.6699,3.7127,3.7567,3.8036,3.8475,3.8689,3.8689,3.8689,3.8689,3.8689,3.8689,3.8622,3.8506,3.8359,3.8212,3.8036,3.7861,3.7635,3.7354,3.6735,3.6378,3.6193,3.608,3.6054,3.6013,3.5735,3.5263,3.4774,3.4962,3.4885,3.4712,3.4439,3.4223,3.4002,3.3547,3.32,3.3104,3.3534,3.3761,3.3975,3.4429,3.4656,3.4763,3.4789,3.4341,3.3922,3.4071,3.3677,3.3337,3.3429,3.3211,3.2998,3.2998,3.2541,3.2194,3.2194,3.1723,3.1463,3.159,3.1603,3.1652,3.1785,3.1733,3.1373,3.0606,2.9864,2.918,2.861,2.8329,2.8338,2.8597,2.8351,2.7944,2.741,2.741,2.7267,2.698,2.5897,2.5629,0.0,0.0,0.0,0.0,0.0,0.0,0.0,0.0,2.1257,2.2268,2.3525,2.486,2.6188,2.7349,2.8577,2.9931,3.1179,3.2316,3.336,3.4282,3.4963,3.5164,3.5738,3.622,3.6473,3.6726,3.6913,3.6913,3.7155,3.7088,3.662,3.7155,3.7342,3.7087,3.7676,3.8103,3.8388,3.8584,3.8689,3.8689,3.8689,3.8689,3.8689,3.8689,3.8689,3.8689,3.8477,3.8399,3.8359,3.8036,3.7782,3.7569,3.7489,3.7301,3.706,3.702,3.698,3.7048,3.7382,3.7128,3.6687,3.6846,3.6352,3.5618,3.5297,3.4656,3.3988,3.3681,3.3253,3.3038,3.3534,3.3708,3.3895,3.4417,3.459,3.4723,3.499,3.479,3.4629,3.4843,3.4441,3.4042,3.3975,3.3761,3.3547,3.3427,3.3038,3.2762,3.2762,3.2385,3.2109,3.2109,3.2109,3.2168,3.2331,3.2301,3.1907,3.1044,3.0734,3.0298,2.9631,2.9386,2.937,2.9528,2.9319,2.8952,2.8404,2.8404,2.8196,2.7794,2.7794,2.7687,1.7926,1.8851,2.0561,2.1844,2.3065,2.3959,0.0,0.0,2.4942,2.5487,2.6255,2.7109,2.8124,2.9028,2.9958,3.0906,3.2064,3.3091,3.3734,3.4589,3.5164,3.5191,3.5738,3.622,3.6473,3.6726,3.6913,3.6913,3.6912,3.6912,3.6873,3.742,3.7742,3.7702,3.8288,3.8622,3.8662,3.8689,3.8689,3.8689,3.8689,3.8689,3.8689,3.8689,3.8689,3.8689,3.8662,3.8662,3.8622,3.8359,3.824,3.8172,3.7878,3.7742,3.7676,3.7422,3.7342,3.7382,3.7676,3.7555,3.7263,3.698,3.6513,3.5952,3.5364,3.4976,3.4629,3.4309,3.4175,3.4202,3.4548,3.4829,3.5084,3.5378,3.5685,3.5912,3.5952,3.5698,3.5391,3.5191,3.4909,3.4602,3.4322,3.4216,3.4016,3.3494,3.3364,3.3314,3.3314,3.3263,3.3213,3.3213,3.3213,3.3144,3.2925,3.2895,3.2746,3.2401,3.2347,3.2139,3.1774,3.1734,3.1601,3.1412,3.1372,3.1099,3.0555,3.0555,3.007,2.9168,2.9168,2.8672,2.0666,2.1536,2.313,0.0,2.6753,2.8113,2.8084,2.8536,2.8949,2.8952,2.9001,2.9278,2.9975,3.0265,3.0715,0.0,3.2438,3.3158,3.3547,3.4376,3.4843,3.4508,3.4682,3.511,3.5885,3.6259,3.65,3.6659,3.6806,3.698,3.7167,3.7567,3.7889,3.8076,3.8475,3.8689,3.8689,3.8689,3.8689,3.8689,3.8689,3.8689,3.8689,3.8689,3.8689,3.8689,3.8689,3.8689,3.8689,3.8584,3.8437,3.8292,3.8145,3.7969,3.7781,3.7676,3.7635,3.7676,3.7998,3.7889,3.7595,3.746,3.702,3.6473,3.6086,3.5778,3.5524,3.5404,3.5338,3.5324,3.5284,3.5364,3.5405,3.5391,3.5471,3.5605,3.5778,3.5578,3.5391,3.5405,3.5084,3.4749,3.4629,3.4429,3.4203,3.3949,3.3909,3.3909,3.3909,3.3909,3.3909,3.3909,3.3788,3.3641,3.3546,3.3334,3.3106,3.2837,3.2824,3.269,3.2396,3.2382,3.2353,3.2233,3.2233,3.1967,3.1412,3.1412,3.0903,2.9871,2.9871,2.9456,2.3202,2.4249,0.0,2.8191,3.0457,3.2089,3.2015,3.2493,3.2735,3.2019,3.1502,3.1295,3.1674,3.166,3.182,3.2566,3.3165,3.36,3.3827,3.4465,3.4696,3.4082,3.3935,3.4215,3.5044,3.5565,3.6006,3.6353,3.6794,3.7127,3.7382,3.7742,3.8036,3.8292,3.8544,3.8689,3.8689,3.8769,3.8809,3.8809,3.8916,3.8942,3.8942,3.8942,3.8942,3.8942,3.8942,3.8942,3.8942,3.8942,3.8838,3.8653,3.8544,3.8357,3.8155,3.8075,3.7996,3.7998,3.829,3.8212,3.7929,3.7929,3.746,3.6873,3.6659,3.6366,3.6099,3.6099,3.6099,3.6046,3.5805,3.5672,3.5565,3.5471,3.5378,3.5418,3.5765,3.5645,3.5498,3.5712,3.5351,3.5003,3.4923,3.471,3.4563,3.4563,3.4563,3.4509,3.431,3.4296,3.4296,3.4296,3.4135,3.3975,3.392,3.3681,3.3414,3.3145,3.3118,3.2998,3.2728,3.2714,3.2674,3.2594,3.2594,3.2399,3.2008,3.2008,3.1543,3.0648,3.0648,3.0366,2.4985,0.0,2.8665,3.1523,3.3965,3.5636,3.5565,3.6047,3.6082,3.4448,3.3583,3.3127,3.3142,3.3337,3.3669,3.4145,3.4576,3.4881,3.5021,3.5116,3.4963,3.435,3.4055,3.3895,0.0,3.4723,3.5458,3.6073,3.6902,3.7382,3.741,3.7958,3.8292,3.8292,3.8544,3.8689,3.8689,3.8953,3.91,3.91,3.9423,3.9559,3.9559,3.9559,3.9559,3.9559,3.9559,3.9559,3.9559,3.9559,3.9559,3.9533,3.9196,3.906,3.902,3.8769,3.8504,3.8319,3.8582,3.8504,3.8279,3.8279,3.7664,3.6913,3.6885,3.6513,3.6099,3.6099,3.6099,3.6099,3.6086,3.5845,3.5672,3.6006,3.5819,3.5752,3.6353,3.6246,3.6073,3.6086,3.5805,3.5485,3.5231,3.5177,3.5164,3.5164,3.5164,3.4963,3.4363,3.4296,3.4296,3.4296,3.4283,3.4163,3.3908,3.3881,3.3734,3.3414,3.34,3.3267,3.2998,3.2984,3.2864,3.2607,3.2594,3.2594,3.257,3.257,3.2301,3.1739,3.1739,3.1446,2.7596,0.0,3.2051,3.4978,3.723,3.8852,3.9306,3.9524,3.9117,3.7403,3.5706,3.4569,3.477,3.4864,3.5083,3.5565,3.5929,3.5974,3.5447,3.5117,3.4722,3.4108,3.3587,0.0,0.0,0.0,0.0,3.5431,3.6299,3.6981,3.737,3.7958,3.8399,3.8544,3.8651,3.8689,3.8689,3.8982,3.91,3.91,3.9452,3.9599,3.9599,3.9599,3.9599,3.9599,3.9599,3.9599,3.9599,3.9599,3.9599,3.9559,3.9236,3.91,3.906,3.8809,3.8651,3.8584,3.8662,3.8651,3.8544,3.8359,3.8105,3.7782,3.7567,3.7382,3.7235,3.7235,3.7235,3.7128,3.6726,3.6553,3.6406,3.6166,3.6019,3.5979,3.6179,3.6166,3.6046,3.5819,3.5672,3.5511,3.5244,3.5191,3.5191,3.5191,3.5191,3.5191,3.5164,3.5164,3.5231,3.5458,3.5311,3.5124,3.5057,3.4696,3.4455,3.4335,3.4122,3.3975,3.3868,3.3868,3.3828,3.3721,3.3559,3.3465,3.3465,3.3252,3.2847,3.2324,3.2324,3.2026,3.0642,3.3142,3.5579,3.8039,3.9989,4.1373,4.1687,4.1688,4.1068,3.9075,3.6963,3.5508,3.5687,3.5811,3.6125,3.6733,3.7361,3.7472,3.6633,3.5941,3.5282,3.4589,3.3887,3.3414,0.0,0.0,0.0,3.467,3.5738,3.662,3.7195,3.8105,3.8662,3.8836,3.8956,3.9022,3.9022,3.9273,3.949,3.9596,3.9813,3.992,3.992,3.992,3.992,3.992,3.992,3.992,3.992,3.992,3.992,3.9883,3.9463,3.9276,3.9236,3.8836,3.8689,3.8689,3.8689,3.8651,3.8544,3.8466,3.829,3.8105,3.7996,3.7889,3.7781,3.7781,3.7781,3.7674,3.7207,3.698,3.6806,3.6473,3.6299,3.6259,3.6366,3.638,3.6299,3.5965,3.5912,3.5845,3.5565,3.5511,3.5471,3.5364,3.5351,3.5378,3.5431,3.5445,3.5551,3.5765,3.5591,3.5431,3.5324,3.5003,3.4749,3.4642,3.4429,3.4296,3.4296,3.4296,3.4296,3.4296,3.4135,3.3988,3.3881,3.3681,3.3345,3.2887,3.2887,3.2712,3.4116,3.6794,3.9236,4.0736,4.2266,4.3273,4.283,4.2683,4.1984,3.9563,3.737,3.5889,0.0,0.0,3.6792,3.7744,3.8869,3.9339,3.853,3.7589,3.6642,0.0,0.0,0.0,0.0,0.0,0.0,3.3908,0.0,3.6326,3.6873,3.8299,3.91,3.91,3.9423,3.9599,3.9599,3.9863,4.0187,4.0512,4.0512,4.0512,4.0512,4.0512,4.0512,4.0512,4.0512,4.0512,4.0512,4.0468,4.0471,4.0401,3.9813,3.9559,3.9493,3.8916,3.8689,3.8689,3.8689,3.8544,3.8359,3.8624,3.833,3.7929,3.8212,3.8105,3.7849,3.7849,3.7849,3.7782,3.7517,3.7207,3.698,3.6953,3.6754,3.6647,3.6885,3.6953,3.6873,3.658,3.65,3.6393,3.6153,3.6099,3.5979,3.5672,3.5631,3.5525,3.5257,3.5217,3.5231,3.5244,3.5257,3.5151,3.4896,3.4869,3.4736,3.4403,3.435,3.4337,3.4337,3.4337,3.435,3.4363,3.435,3.4242,3.3975,3.3961,3.3801,3.3507,3.3507,3.3507,3.8209,4.0788,4.2936,4.3928,4.4496,4.4766,4.4633,4.3924,4.2661,4.0557,3.7753,3.5782,0.0,0.0,0.0,3.8748,4.0362,0.0,4.0202,3.8947,0.0,3.6694,0.0,3.4857,3.4602,3.4269,0.0,0.0,3.5485,3.6326,3.6873,3.8299,3.91,3.91,3.9423,3.9599,3.9599,3.9863,4.0187,4.0512,4.0512,4.0512,4.0512,4.0512,4.0512,4.0512,4.0512,4.0512,4.0468,4.0224,4.0147,4.0067,3.9463,3.9236,3.9167,3.8836,3.8689,3.8689,3.8689,3.8662,3.8611,3.8691,3.8582,3.8475,3.8584,3.8544,3.8475,3.8475,3.8475,3.8408,3.8145,3.7998,3.7891,3.7635,3.7529,3.7489,3.7555,3.7567,3.742,3.6913,3.6473,3.6193,3.6113,3.6099,3.6073,3.5992,3.5952,3.5859,3.5525,3.5485,3.5605,3.5845,3.6046,3.6139,3.6072,3.5885,3.5738,3.5658,3.5217,3.4977,3.4977,3.4977,3.5044,3.5258,3.5084,3.5044,3.5151,3.4963,3.4817,3.4736,3.4736,3.4736,4.0887,4.303,4.4728,4.5187,4.5297,4.5168,4.4636,4.3298,4.1537,3.9336,3.6439,0.0,0.0,0.0,0.0,0.0,0.0,0.0,4.1065,3.9823,3.8524,0.0,3.5951,0.0,3.499,3.4923,3.4991,0.0,3.5672,3.6139,3.6699,3.8113,3.8982,3.91,3.953,3.9853,4.0003,4.0147,4.0291,4.0512,4.0512,4.0512,4.0512,4.0512,4.0512,4.0512,0.0,4.0512,4.0471,4.0147,3.9997,3.993,3.9343,3.91,3.906,3.8809,3.8689,3.8689,3.8689,3.8689,3.8689,3.8689,3.8624,3.8544,3.8662,3.8689,3.8689,3.8689,3.8689,3.8651,3.8359,3.8292,3.8212,3.7889,3.7781,3.7781,3.7781,3.7781,3.7676,3.7207,3.6767,3.6446,3.6446,3.6446,3.6393,3.6286,3.6287,3.6153,3.5859,3.5819,3.5885,3.6086,3.6219,3.6313,3.6313,3.6193,3.6046,3.5885,3.5565,3.5324,3.5204,3.5191,3.5271,3.5405,3.5284,3.5217,3.5244,3.511,3.4937,3.4817,3.4817,3.4817,4.2815,4.4338,4.5535,4.548,4.537,4.4948,4.3628,4.165,3.9393,3.6915,0.0,3.2203,3.2718,3.3799,3.5431,3.7955,0.0,4.265,4.149,4.0433,3.916,3.746,3.6064,3.5257,3.5257,3.5591,3.5952,3.6193,3.5979,3.6072,3.6647,3.8008,3.8916,3.9276,3.9783,4.0214,4.0512,4.0512,4.0512,4.0512,4.0512,4.0512,4.0512,4.0512,4.0512,4.0512,0.0,0.0,4.0401,4.0037,3.989,3.9823,3.9276,3.9062,3.902,3.8795,3.8689,3.8689,3.8689,3.8689,3.8689,3.8689,3.8544,3.8399,3.8622,3.8689,3.8689,3.8689,3.8689,3.8651,3.8397,3.8359,3.8279,3.7996,3.7929,3.7929,3.7929,3.7889,3.7781,3.7555,3.7233,3.702,3.698,3.698,3.6873,3.6579,3.6553,3.6473,3.6246,3.618,3.6153,3.6153,3.6233,3.6273,3.6273,3.6233,3.6072,3.5792,3.5698,3.5551,3.5324,3.5311,3.5338,3.5364,3.5364,3.5271,3.5083,3.5083,3.4923,3.4644,3.4644,3.4644,4.5107,4.6051,4.6709,4.6384,4.5773,4.4801,4.2935,4.0143,0.0,0.0,3.1561,2.9452,3.0518,3.1708,3.3618,3.7039,0.0,0.0,0.0,0.0,3.9529,0.0,0.0,0.0,0.0,0.0,0.0,0.0,0.0,3.7235,3.7555,3.8515,3.9423,4.0214,4.0364,4.0441,4.0512,4.0512,4.0512,4.0512,4.0512,4.0512,4.0512,4.0512,4.0512,4.0468,4.0214,0.0,4.0037,3.949,3.9276,3.9207,3.8916,3.8769,3.8769,3.8729,3.8689,3.8689,3.8689,3.8689,3.8689,3.8689,3.8662,3.8651,3.8689,3.8689,3.8689,3.8689,3.8689,3.8689,3.8651,3.8622,3.8624,3.8555,3.8542,3.8542,3.8542,3.8357,3.8212,3.8145,3.7878,3.7567,3.7342,3.7301,3.7195,3.6873,3.6833,3.6806,3.6766,3.658,3.6433,3.6433,3.6874,3.7168,3.7168,3.6913,3.6726,3.6686,3.6259,3.6006,3.5952,3.5952,3.6059,3.6273,3.6273,3.6366,3.6553,3.6553,3.6513,3.6445,3.6445,3.6445,4.6054,4.6635,4.6947,4.6347,4.543,4.4031,4.1555,0.0,0.0,0.0,2.969,2.7779,2.877,2.9944,0.0,3.5266,0.0,0.0,0.0,0.0,0.0,0.0,0.0,0.0,0.0,0.0,0.0,0.0,0.0,3.7676,3.7781,3.8798,3.964,4.0214,4.0401,4.0512,4.0512,4.0512,4.0512,4.0512,4.0512,4.0512,4.0512,4.0512,4.0512,4.0468,4.0147,0.0,3.997,3.9353,3.91,3.906,3.8809,3.8689,3.8689,3.8689,3.8689,3.8689,3.8689,3.8689,3.8689,3.8689,3.8689,3.8689,3.8689,3.8689,3.8689,3.8689,3.8689,3.8689,3.8689,3.8689,3.8689,3.8689,3.8689,3.8689,3.8689,3.8506,3.8292,3.8292,3.8036,3.7702,3.745,3.741,3.7303,3.6953,3.6913,3.6913,3.6913,3.6941,3.6901,3.6726,3.6981,3.7127,3.7127,3.698,3.6833,3.6699,3.6446,3.626,3.6113,3.6099,3.6166,3.6273,3.6286,3.6353,3.6473,3.6473,3.6473,3.6473,3.6473,3.6473,4.6549,4.6984,4.713,4.614,4.4879,4.3023,3.9976,3.6347,0.0,0.0,2.7981,2.6343,2.7132,0.0,3.0109,0.0,3.677,3.9032,0.0,0.0,0.0,0.0,0.0,0.0,0.0,0.0,0.0,0.0,0.0,0.0,3.8183,3.9129,3.9813,4.0107,4.0294,4.0391,4.0391,4.0334,4.0324,4.0324,4.0324,4.0324,4.0324,4.0324,4.0324,4.0284,3.996,0.0,0.0,3.9236,3.9022,3.8993,3.8769,3.8689,3.8689,3.8689,3.8689,3.8689,3.8689,3.8689,3.8689,3.8689,3.8689,3.8689,3.8689,3.8689,3.8689,3.8689,3.8689,3.8689,3.8689,3.8689,3.8689,3.8689,3.8689,3.8689,3.8689,3.8544,3.8399,3.8399,3.8183,3.7929,3.7635,3.7597,3.749,3.7127,3.7087,3.7087,3.7087,3.7314,3.7382,3.7127,3.7087,3.7087,3.7087,3.7032,3.6913,3.6727,3.6619,3.6513,3.6394,3.638,3.6407,3.646,3.646,3.646,3.646,3.646,3.646,3.646,3.6407,3.638,4.7039,4.7607,4.7809,4.6269,4.4439,4.2072,3.8437,0.0,0.0,2.8491,2.6136,2.4679,2.5462,2.6618,0.0,0.0,0.0,3.6684,3.7069,3.7172,0.0,0.0,0.0,0.0,0.0,0.0,0.0,0.0,0.0,0.0,3.9412,3.9786,4.0117,4.0441,4.0184,4.0037,4.0037,3.9783,3.968,3.968,3.968,3.968,3.968,3.968,3.968,3.9666,3.9313,0.0,0.0,3.8876,3.8729,3.8729,3.8731,3.8689,3.8689,3.8689,3.8689,3.8689,3.8689,3.8689,3.8689,3.8689,3.8689,3.8689,3.8689,3.8689,3.8689,3.8689,3.8689,3.8689,3.8689,3.8689,3.8689,3.8689,3.8689,3.8689,3.8689,3.8691,3.8662,3.8662,3.8651,3.8544,3.8252,3.8212,3.8105,3.7782,3.7714,3.7714,3.7714,3.7742,3.7754,3.7714,3.7714,3.7714,3.7714,3.7489,3.7342,3.7315,3.702,3.698,3.7263,3.7275,3.741,3.7635,3.7634,3.7634,3.7634,3.7634,3.7634,3.7635,3.7382,3.7275,4.6549,4.7497,4.787,4.5993,4.4035,4.1503,3.7557,0.0,2.9871,2.7852,2.5714,2.4323,2.4712,2.5418,2.6627,2.8768,3.1422,3.3446,3.4146,3.4668,3.4771,0.0,0.0,0.0,0.0,0.0,0.0,0.0,0.0,0.0,3.9823,4.0147,4.0361,4.0512,4.0187,3.9997,3.9997,3.9746,3.9599,3.9599,3.9599,3.9599,3.9599,3.9599,3.9599,3.957,3.9236,0.0,0.0,3.8809,3.8689,3.8689,3.8689,3.8689,3.8689,3.8689,3.8689,3.8689,3.8689,3.8689,3.8689,3.8689,3.8689,3.8689,3.8689,3.8689,3.8689,3.8689,3.8689,3.8689,3.8689,3.8689,3.8689,3.8689,3.8689,3.8689,3.8689,3.8689,3.8689,3.8689,3.8689,3.8611,3.8359,3.8292,3.8172,3.7849,3.7781,3.7781,3.7781,3.7781,3.7781,3.7781,3.7781,3.7781,3.7781,3.7702,3.7569,3.741,3.7275,3.7168,3.71,3.71,3.7155,3.7275,3.7274,3.7274,3.7274,3.7274,3.7274,3.7275,3.7155,3.71,4.5613,4.6934,4.7424,4.5297,4.3151,4.0531,0.0,3.2551,2.9159,2.7394,2.553,2.4169,2.4096,2.43,2.493,2.6318,2.8264,2.9944,3.0927,3.1893,3.252,0.0,0.0,0.0,0.0,0.0,0.0,0.0,0.0,0.0,3.997,4.0147,4.0214,4.0214,3.989,3.9714,3.9714,3.9463,3.9346,3.9346,3.9346,3.9346,3.9346,3.9346,3.9346,3.9316,0.0,0.0,0.0,3.8769,3.8689,3.8689,3.8689,3.8689,3.8689,3.8689,3.8689,3.8689,3.8689,3.8689,3.8689,3.8689,3.8689,3.8689,3.8689,3.8689,3.8689,3.8689,3.8689,3.8689,3.8689,3.8689,3.8689,3.8689,3.8689,3.8689,3.8689,3.8689,3.8729,3.8809,3.8806,3.8798,3.8691,3.868,3.8613,3.8357,3.825,3.8181,3.8181,3.8115,3.8076,3.8076,3.8076,3.7996,3.7823,3.7781,3.7714,3.7529,3.7529,3.7448,3.7314,3.7314,3.7354,3.742,3.742,3.742,3.742,3.7354,3.7314,3.7314,3.7127,3.698,4.4274,4.5883,4.6544,4.4123,4.1666,3.8876,3.5247,3.1304,2.8058,2.6862,2.5315,2.4028,2.3425,2.3149,2.324,2.392,2.5066,2.631,2.7579,2.9007,3.0047,0.0,0.0,0.0,0.0,0.0,0.0,0.0,0.0,0.0,3.997,3.9743,3.9599,3.9599,3.9276,3.91,3.91,3.8836,3.8731,3.8731,3.8731,3.8731,3.8731,3.8731,3.8731,0.0,0.0,0.0,0.0,3.8689,3.8689,3.8689,3.8689,3.8689,3.8689,3.8689,3.8689,3.8689,3.8689,3.8689,3.8689,3.8689,3.8689,3.8689,3.8689,3.8689,3.8689,3.8689,3.8689,3.8689,3.8689,3.8689,3.8689,3.8689,3.8689,3.8689,3.8689,3.8689,3.8769,3.902,3.91,3.9196,3.9533,3.9599,3.9599,3.957,3.9316,3.91,3.91,3.8846,3.8689,3.8689,3.8689,3.8435,3.7849,3.7781,3.7781,3.7781,3.7781,3.7929,3.8281,3.8292,3.8397,3.8691,3.8691,3.8691,3.8691,3.8397,3.8292,3.8281,3.7664,3.7235,4.1727,4.3412,4.4123,4.198,3.9795,3.7282,3.3927,3.0495,2.759,2.6204,2.467,2.3363,2.2606,2.2173,2.2006,2.2306,2.3148,2.4298,0.0,0.0,0.0,3.0061,0.0,0.0,0.0,0.0,0.0,0.0,0.0,0.0,3.9353,3.9129,3.9169,3.9599,3.9276,3.91,3.91,3.8836,3.8689,3.8689,3.8689,3.8689,3.8689,3.8689,0.0,0.0,0.0,0.0,0.0,3.8689,3.8689,3.8689,3.8689,3.8689,3.8689,3.8689,3.8689,3.8689,3.8689,3.8689,3.8689,3.8689,3.8689,3.8689,3.8689,3.8689,3.8689,3.8689,3.8689,3.8689,3.8689,3.8689,3.8689,3.8689,3.8689,3.8689,3.8689,3.8689,3.8769,3.9062,3.91,3.9207,3.953,3.9599,3.9599,3.9599,3.9316,3.91,3.91,3.8876,3.8689,3.8689,3.8689,3.8622,3.8435,3.8437,3.8328,3.8143,3.8145,3.8105,3.7956,3.7956,3.7996,3.8075,3.8075,3.8075,3.8075,3.7996,3.7849,3.7664,3.7233,3.698,3.8435,4.0418,4.1186,3.9336,3.7558,3.5504,3.2588,2.9669,2.7163,2.5739,2.4141,2.2719,2.181,2.1166,2.0742,2.0746,2.1264,2.2313,0.0,0.0,0.0,0.0,0.0,0.0,0.0,0.0,0.0,0.0,0.0,0.0,3.91,3.8836,3.8876,3.9236,3.9062,3.8942,3.8942,3.8766,3.8689,3.8689,3.8689,3.8689,3.8689,3.8689,0.0,0.0,0.0,0.0,0.0,3.8689,3.8689,3.8689,3.8689,3.8689,3.8689,3.8689,3.8689,3.8689,3.8689,3.8689,3.8689,3.8689,3.8689,3.8689,3.8689,3.8689,3.8689,3.8689,3.8689,3.8689,3.8689,3.8689,3.8729,3.8836,3.8846,3.8876,3.9012,3.9052,3.9132,3.9383,3.942,3.957,3.9893,3.9933,3.9933,3.9933,3.9637,3.942,3.942,3.9209,3.9052,3.9052,3.9052,3.8982,3.8876,3.8769,3.8622,3.8466,3.8437,3.8357,3.8155,3.8143,3.8143,3.8143,3.8143,3.8143,3.8143,3.8036,3.7782,3.7382,3.7195,3.702,0.0,3.6859,3.7886,3.6329,3.5064,3.3578,3.121,2.8825,0.0,2.5406,2.3709,2.2114,2.1078,2.0188,1.9574,1.9388,1.9653,2.0588,0.0,2.5163,0.0,0.0,0.0,0.0,0.0,0.0,0.0,0.0,0.0,0.0,3.906,3.8836,3.8689,3.8689,3.8689,3.8689,3.8689,3.8689,3.8689,3.8689,3.8689,3.8689,3.8689,3.8689,0.0,0.0,0.0,0.0,0.0,3.8689,3.8689,3.8689,3.8689,3.8689,3.8689,3.8689,3.8689,3.8689,3.8689,3.8689,3.8689,3.8689,3.8689,3.8689,3.8689,3.8689,3.8689,3.8689,3.8689,3.8689,3.8689,3.8689,3.8769,3.902,3.91,3.9196,3.9533,3.9599,3.968,3.996,3.9997,4.0117,4.0441,4.0512,4.0512,4.0512,4.0214,3.9997,3.9997,3.9786,3.9599,3.9599,3.9599,3.9463,3.9127,3.8876,3.8729,3.8689,3.8689,3.8689,3.8689,3.8689,3.8689,3.8689,3.8689,3.8689,3.8689,3.8426,3.7998,3.7448,3.7422,3.7235,2.8278,0.0,3.4679,3.3688,3.2771,3.1636,0.0,2.7793,2.5922,2.469,0.0,2.1609,2.076,1.9774,1.9288,1.9897,2.0267,2.1365,2.3843,0.0,0.0,0.0,0.0,0.0,0.0,0.0,0.0,0.0,0.0,3.8729,3.8795,3.8729,3.8689,3.8689,3.8689,3.8689,3.8689,3.8689,3.8689,3.8689,3.8689,3.8689,3.8689,3.8689,0.0,0.0,0.0,0.0,3.8689,3.8689,3.8689,3.8689,3.8689,3.8689,3.8689,3.8689,3.8689,3.8689,3.8689,3.8689,3.8689,3.8689,3.8689,3.8689,3.8689,3.8689,3.8689,3.8689,3.8689,3.8689,3.8689,3.8689,3.8769,3.902,3.91,3.9196,3.9533,3.9599,3.968,3.996,3.9997,4.0117,4.0441,4.0512,4.0512,4.0512,4.0214,3.9997,3.9997,3.9786,3.9599,3.9599,3.9599,3.9463,3.9127,3.902,3.8913,3.8731,3.8689,3.8689,3.8689,3.8689,3.8689,3.8689,3.8689,3.8689,3.8689,3.8426,3.824,3.8065,3.7624,3.737,2.5207,2.8717,3.1726,3.11,3.077,3.0185,2.877,2.7169,2.5614,0.0,0.0,0.0,0.0,0.0,0.0,0.0,2.0922,0.0,0.0,0.0,0.0,0.0,0.0,0.0,0.0,0.0,0.0,0.0,0.0,3.8689,3.8689,3.8689,3.8689,3.8689,3.8689,3.8689,3.8689,3.8689,3.8689,3.8689,3.8689,3.8689,3.8689,3.8689,3.8689,0.0,0.0,0.0,3.8689,3.8689,3.8689,3.8689,3.8689,3.8689,3.8689,3.8689,3.8689,3.8689,3.8689,3.8689,3.8689,3.8689,3.8689,3.8689,3.8689,3.8689,3.8689,3.8689,3.8689,3.8729,3.8846,3.8873,3.8982,3.9423,3.95,3.9596,3.9933,4.0,4.007,4.0184,4.0224,4.0294,4.0471,4.0512,4.0512,4.0512,4.0364,4.0224,4.0224,4.0107,4.0,4.0,4.0,3.9893,3.954,3.95,3.9276,3.8729,3.8689,3.8689,3.8689,3.8689,3.8689,3.8689,3.8689,3.8689,3.8689,3.8544,3.8426,3.8292,3.7958,3.7744,2.3603,2.6605,2.9128,2.9032,2.9364,2.9409,2.8326,0.0,0.0,0.0,0.0,0.0,0.0,0.0,0.0,0.0,0.0,0.0,0.0,0.0,0.0,0.0,0.0,0.0,0.0,0.0,0.0,0.0,0.0,3.8689,3.8689,3.8689,3.8689,3.8689,3.8689,3.8689,3.8689,3.8689,3.8689,3.8689,3.8689,3.8689,3.8689,3.8689,3.8689,0.0,0.0,0.0,3.8689,3.8689,3.8689,3.8689,3.8689,3.8689,3.8689,3.8689,3.8689,3.8689,3.8689,3.8689,3.8689,3.8689,3.8689,3.8689,3.8689,3.8689,3.8689,3.8689,3.8689,3.8769,3.902,3.91,3.9247,3.9863,3.9997,4.0077,4.0431,4.0512,4.0512,4.0512,4.0512,4.0512,4.0512,4.0512,4.0512,4.0512,4.0512,4.0512,4.0512,4.0512,4.0512,4.0512,4.0512,4.0361,4.0037,3.9997,3.9677,3.8876,3.8795,3.8729,3.8689,3.8689,3.8689,3.8689,3.8689,3.8689,3.8689,3.8689,3.8584,3.8359,3.8319,3.8145,2.1553,2.4589,2.7451,2.875,2.9601,2.9965,2.9445,2.8641,0.0,0.0,0.0,0.0,0.0,0.0,0.0,0.0,0.0,0.0,0.0,0.0,0.0,0.0,0.0,0.0,0.0,0.0,0.0,0.0,0.0,3.8689,3.8689,3.8689,3.8689,3.8689,3.8689,3.8689,3.8689,3.8689,3.8689,3.8689,3.8689,3.8689,3.8689,3.8689,3.8689,0.0,0.0,3.8689,3.8689,3.8689,3.8689,3.8689,3.8689,3.8689,3.8689,3.8689,3.8689,3.8689,3.8689,3.8689,3.8689,3.8689,3.8689,3.8689,3.8689,3.8689,3.8689,3.8689,3.8689,3.8769,3.902,3.91,3.9247,3.9863,3.9997,4.0077,4.0431,4.0512,4.0512,4.0512,4.0512,4.0512,4.0512,4.0512,4.0512,4.0512,4.0512,4.0512,4.0512,4.0512,4.0512,4.0512,4.0512,4.0361,4.0037,3.9997,3.985,3.9493,3.9196,3.8942,3.8731,3.8689,3.8689,3.8689,3.8689,3.8689,3.8689,3.8689,3.8691,3.8622,3.8399,3.8281,2.0885,2.3668,2.638,2.8206,3.0083,3.1396,3.099,3.0439,0.0,0.0,0.0,0.0,0.0,0.0,0.0,0.0,0.0,0.0,0.0,0.0,0.0,0.0,0.0,0.0,0.0,0.0,0.0,0.0,0.0,0.0,3.8689,3.8689,3.8689,3.8689,3.8689,3.8689,3.8689,3.8689,3.8689,3.8689,3.8689,3.8689,3.8689,3.8689,3.8689,3.8689,0.0,3.8689,3.8689,3.8689,3.8689,3.8689,3.8689,3.8689,3.8689,3.8689,3.8689,3.8689,3.8689,3.8689,3.8689,3.8689,3.8689,3.8689,3.8689,3.8689,3.8689,3.8689,3.8689,3.8809,3.9236,3.9386,3.953,4.0147,4.0254,4.0324,4.0471,4.0512,4.0512,4.0512,4.0512,4.0512,4.0512,4.0512,4.0512,4.0512,4.0512,4.0512,4.0512,4.0512,4.0512,4.0512,4.0512,4.0441,4.0294,4.0254,4.0,3.9383,3.9196,3.8982,3.8731,3.8689,3.8689,3.8689,3.8689,3.8689,3.8689,3.8689,3.8689,3.8689,3.8584,3.8504,2.0501,2.2988,2.5459,2.7573,0.0,3.2191,3.214,0.0,0.0,0.0,0.0,0.0,0.0,0.0,0.0,0.0,0.0,0.0,0.0,0.0,0.0,0.0,0.0,0.0,0.0,0.0,0.0,0.0,0.0,0.0,3.8689,3.8689,3.8689,3.8689,3.8689,3.8689,3.8689,3.8689,3.8689,3.8689,3.8689,3.8689,3.8689,3.8689,3.8689,3.8689,3.8689,3.8689,3.8689,3.8689,3.8689,3.8689,3.8689,3.8689,3.8689,3.8689,3.8689,3.8689,3.8689,3.8689,3.8689,3.8689,3.8689,3.8689,3.8689,3.8689,3.8689,3.8689,3.8689,3.8836,3.9452,3.9599,3.9746,4.0364,4.0512,4.0512,4.0512,4.0512,4.0512,4.0512,4.0512,4.0512,4.0512,4.0512,4.0512,4.0512,4.0512,4.0512,4.0512,4.0512,4.0512,4.0512,4.0512,4.0512,4.0512,4.0512,4.0147,3.9353,3.9167,3.9022,3.8809,3.8729,3.8689,3.8689,3.8689,3.8689,3.8689,3.8689,3.8689,3.8689,3.8689,3.8689,1.9931,2.22,2.4559,2.6883,2.9253,0.0,3.2311,3.3145,0.0,3.3031,0.0,0.0,0.0,0.0,0.0,0.0,0.0,0.0,0.0,0.0,0.0,0.0,0.0,0.0,0.0,0.0,0.0,0.0,0.0,0.0,3.8689,3.8689,3.8689,3.8689,3.8689,3.8689,3.8689,3.8689,3.8689,3.8689,3.8689,3.8689,3.8689,3.8689,3.8689,3.8689,3.8689,3.8689,3.8689,3.8689,3.8689,3.8689,3.8689,3.8689,3.8689,3.8689,3.8689,3.8689,3.8689,3.8689,3.8689,3.8689,3.8689,3.8689,3.8689,3.8689,3.8689,3.8689,3.8689,3.8836,3.9452,3.9599,3.9746,4.0364,4.0512,4.0512,4.0512,4.0512,4.0512,4.0512,4.0512,4.0512,4.0512,4.0512,4.0512,4.0512,4.0512,4.0512,4.0512,4.0512,4.0512,4.0512,4.0512,4.0512,4.0512,4.0512,4.0334,3.997,3.9423,3.91,3.906,3.8836,3.8689,3.8689,3.8689,3.8689,3.8689,3.8689,3.8689,3.8689,3.8689,3.8689,2.0075,2.212,2.4302,2.643,2.8733,0.0,0.0,3.4319,3.5521,0.0,0.0,0.0,0.0,0.0,0.0,0.0,0.0,0.0,0.0,0.0,0.0,0.0,0.0,0.0,0.0,0.0,0.0,0.0,0.0,0.0,0.0,3.8689,3.8689,3.8689,3.8689,3.8689,3.8689,3.8689,3.8689,3.8689,3.8689,3.8689,3.8689,3.8689,3.8689,3.8689,3.8689,3.8689,3.8689,3.8689,3.8689,3.8689,3.8689,3.8689,3.8689,3.8689,3.8689,3.8689,3.8689,3.8689,3.8689,3.8689,3.8689,3.8689,3.8689,3.8689,3.8689,3.8689,3.8689,3.8836,3.9452,3.9599,3.9746,4.0364,4.0512,4.0512,4.0512,4.0512,4.0512,4.0512,4.0512,4.0512,4.0512,4.0512,4.0512,4.0512,4.0512,4.0512,4.0512,4.0512,4.0512,4.0512,4.0512,4.0512,4.0512,4.0512,4.0441,4.0321,3.989,3.9567,3.9423,3.91,3.8942,3.8942,3.8766,3.8689,3.8689,3.8689,3.8689,3.8689,3.8689,3.8689,2.0388,2.2108,2.404,0.0,0.0,0.0,3.3603,3.5864,3.7429,3.7704,0.0,0.0,0.0,0.0,0.0,0.0,0.0,0.0,0.0,0.0,0.0,0.0,0.0,0.0,0.0,0.0,0.0,0.0,0.0,0.0,0.0,3.8624,3.8584,3.8584,3.8477,3.8437,3.8437,3.8437,3.8437,3.8437,3.8437,3.8515,3.8689,3.8689,3.8689,3.8689,3.8689,3.8689,3.8689,3.8689,3.8689,3.8689,3.8689,3.8689,3.8689,3.8689,3.8689,3.8689,3.8689,3.8689,3.8689,3.8689,3.8689,3.8689,3.8689,3.8689,3.8729,3.8809,3.8836,3.8985,3.957,3.9666,3.9746,4.0364,4.0512,4.0512,4.0512,4.0512,4.0512,4.0512,4.0512,4.0512,4.0512,4.0512,4.0512,4.0512,4.0512,4.0512,4.0512,4.0512,4.0512,4.0512,4.0512,4.0512,4.0512,4.0512,4.0512,4.0512,4.0294,4.004,3.9746,3.9313,3.91,3.91,3.8836,3.8689,3.8689,3.8689,3.8689,3.8689,3.8689,3.8689,2.0847,2.2095,2.373,0.0,0.0,0.0,3.5356,3.7833,3.9323,3.9654,0.0,0.0,0.0,0.0,0.0,0.0,0.0,0.0,0.0,0.0,0.0,0.0,0.0,0.0,0.0,0.0,0.0,0.0,0.0,0.0,0.0,3.8437,3.8292,3.8292,3.7969,3.7781,3.7781,3.7781,3.7781,3.7781,3.7781,3.8115,3.8689,3.8689,3.8689,3.8689,3.8689,3.8689,3.8689,3.8689,3.8689,3.8689,3.8689,3.8689,3.8689,3.8689,3.8689,3.8689,3.8689,3.8689,3.8689,3.8689,3.8689,3.8689,3.8689,3.8689,3.8769,3.902,3.91,3.9247,3.982,3.9783,3.9746,4.0364,4.0512,4.0512,4.0512,4.0512,4.0512,4.0512,4.0512,4.0512,4.0512,4.0512,4.0512,4.0512,4.0512,4.0512,4.0512,4.0512,4.0512,4.0512,4.0512,4.0512,4.0512,4.0512,4.0512,4.0512,4.0512,4.0364,4.004,3.942,3.91,3.91,3.8836,3.8689,3.8689,3.8689,3.8689,3.8689,3.8689,3.8689,2.143,2.3203,0.0,2.8508,0.0,0.0,0.0,3.9777,0.0,0.0,0.0,0.0,0.0,0.0,0.0,0.0,0.0,0.0,0.0,0.0,0.0,0.0,0.0,0.0,0.0,0.0,0.0,0.0,0.0,0.0,0.0,3.8437,3.8292,3.8292,3.7969,3.7781,3.7781,3.7781,3.7781,3.7781,3.7781,3.8036,3.8426,3.8426,3.8504,3.8689,3.8689,3.8689,3.8689,3.8689,3.8689,3.8689,3.8689,3.8689,3.8689,3.8689,3.8689,3.8689,3.8689,3.8689,3.8689,3.8689,3.8689,3.8689,3.8689,3.8689,3.8769,3.902,3.91,3.9247,3.982,3.993,4.0,4.0401,4.0512,4.0512,4.0512,4.0512,4.0512,4.0512,4.0512,4.0512,4.0512,4.0512,4.0512,4.0512,4.0512,4.0512,4.0512,4.0512,4.0512,4.0512,4.0512,4.0512,4.0512,4.0512,4.0512,4.0512,4.0512,4.0471,4.0361,3.9786,3.9452,3.9452,3.8956,3.8689,3.8689,3.8689,3.8689,3.8689,3.8689,3.8689,2.1994,2.4326,0.0,3.0766,3.4298,3.7972,0.0,0.0,0.0,0.0,0.0,0.0,0.0,0.0,0.0,0.0,0.0,0.0,0.0,0.0,0.0,0.0,0.0,0.0,0.0,0.0,0.0,0.0,0.0,0.0,0.0,3.825,3.8036,3.7958,3.7635,3.7448,3.7448,3.7448,3.7448,3.7448,3.7448,3.7635,3.7958,3.8172,3.8437,3.8689,3.8689,3.8689,3.8689,3.8689,3.8689,3.8689,3.8689,3.8689,3.8689,3.8689,3.8689,3.8689,3.8689,3.8689,3.8689,3.8689,3.8689,3.8729,3.8836,3.8876,3.8942,3.9343,3.946,3.9567,4.0067,4.0184,4.0254,4.0441,4.0512,4.0512,4.0512,4.0512,4.0512,4.0512,4.0512,4.0512,4.0512,4.0512,4.0512,4.0512,4.0512,4.0512,4.0512,4.0512,4.0512,4.0512,4.0512,4.0512,4.0512,4.0512,4.0512,4.0512,4.0512,4.0512,4.0512,3.992,3.9599,3.9599,3.9012,3.8689,3.8689,3.8689,3.8689,3.8689,3.8689,3.8689,2.2626,2.5544,0.0,3.3273,3.7369,0.0,0.0,0.0,0.0,0.0,0.0,0.0,0.0,0.0,0.0,0.0,0.0,0.0,0.0,0.0,0.0,0.0,0.0,0.0,0.0,0.0,0.0,0.0,0.0,0.0,0.0,3.7956,3.7634,3.741,3.706,3.6913,3.6913,3.6913,3.6913,3.6913,3.6913,3.7088,3.741,3.7958,3.8399,3.8662,3.8689,3.8689,3.8689,3.8689,3.8689,3.8689,3.8689,3.8689,3.8689,3.8689,3.8689,3.8689,3.8689,3.8689,3.8689,3.8689,3.8689,3.8769,3.902,3.91,3.9236,3.9823,3.9997,4.0077,4.0401,4.0512,4.0512,4.0512,4.0512,4.0512,4.0512,4.0512,4.0512,4.0512,4.0512,4.0512,4.0512,4.0512,4.0512,4.0512,4.0512,4.0512,4.0512,4.0512,4.0512,4.0512,4.0512,4.0512,4.0512,4.0512,4.0512,4.0512,4.0512,4.0512,4.0512,3.9933,3.964,3.964,3.9062,3.8769,3.8769,3.8769,3.8769,3.8729,3.8729,3.8729,2.3664,2.7286,0.0,0.0,4.0432,4.4966,4.6979,0.0,0.0,0.0,0.0,0.0,0.0,0.0,0.0,0.0,0.0,0.0,0.0,0.0,0.0,0.0,0.0,0.0,0.0,0.0,0.0,0.0,0.0,0.0,3.8292,3.7771,3.7448,3.741,3.706,3.6913,3.6913,3.6913,3.6913,0.0,3.6913,3.7088,3.741,3.7529,3.7891,3.8399,3.8611,3.8689,3.8689,3.8689,3.8689,3.8689,3.8689,3.8689,3.8689,3.8689,3.8689,3.8689,3.8689,3.8689,3.8689,3.8689,3.8689,3.8769,3.902,3.91,3.9236,3.9823,3.9997,4.0077,4.0401,4.0512,4.0512,4.0512,4.0512,4.0512,4.0512,4.0512,4.0512,4.0512,4.0512,4.0512,4.0512,4.0512,4.0512,4.0512,4.0512,4.0512,4.0512,4.0512,4.0512,4.0512,4.0512,4.0512,4.0512,4.0512,4.0512,4.0512,4.0512,4.0512,4.0512,4.0117,3.989,3.989,3.957,3.9412,3.9412,3.9412,3.9276,3.9022,3.9022,3.8916,2.444,2.8901,0.0,4.0033,0.0,4.6498,4.6882,4.5939,0.0,0.0,0.0,0.0,0.0,0.0,0.0,0.0,0.0,0.0,0.0,0.0,0.0,0.0,0.0,0.0,0.0,0.0,0.0,0.0,0.0,3.7996,3.7891,3.7569,3.7343,3.7168,3.698,3.6913,3.6913,3.6913,3.6913,3.6913,3.6913,3.698,3.7167,3.7624,3.7998,3.8321,3.8584,3.8689,3.8689,3.8689,3.8689,3.8689,3.8689,3.8689,3.8689,3.8689,3.8689,3.8689,3.8689,3.8689,3.8689,3.8689,3.8689,3.8769,3.9209,3.9343,3.9463,4.0067,4.0254,4.0294,4.0441,4.0512,4.0512,4.0512,4.0512,4.0512,4.0512,4.0512,4.0512,4.0512,4.0512,4.0512,4.0512,4.0512,4.0512,4.0512,4.0512,4.0512,4.0512,4.0512,4.0512,4.0512,4.0512,4.0512,4.0512,4.0512,4.0512,4.0512,4.0512,4.0512,4.0512,4.0334,4.0144,3.9997,3.9746,3.9599,3.9599,3.9599,3.9423,3.91,3.91,3.8953,2.5093,3.0619,3.6982,4.4295,4.6433,0.0,4.6379,4.5194,4.3523,0.0,0.0,0.0,0.0,0.0,0.0,0.0,0.0,0.0,0.0,0.0,0.0,0.0,0.0,0.0,0.0,0.0,0.0,0.0,0.0,3.7635,3.741,3.7342,3.7195,3.6913,3.6913,3.6913,3.6913,3.6913,3.6913,3.6913,3.6913,3.6913,3.6912,3.7771,3.8145,3.8174,3.8437,3.8542,3.8542,3.8611,3.8622,3.8651,3.8691,3.8689,3.8689,3.8689,3.8689,3.8689,3.8689,3.8689,3.8689,3.8689,3.8689,3.8809,3.9346,3.9592,3.9834,4.0529,4.0841,4.0945,4.1121,4.1057,4.0953,4.0845,4.0741,4.0636,4.0512,4.0512,4.0512,4.0512,4.0512,4.0512,4.0512,4.0512,4.0512,4.0512,4.0512,4.0512,4.0512,4.0512,4.0512,4.0512,4.0512,4.0512,4.0512,4.0512,4.0512,4.0512,4.0512,4.0512,4.0512,4.0512,4.0361,4.0077,3.9863,3.9736,3.9666,3.9666,3.9463,3.91,3.91,3.8953,2.5772,3.2845,3.9894,4.3653,4.4731,4.485,0.0,0.0,4.2759,0.0,0.0,0.0,0.0,0.0,0.0,0.0,0.0,0.0,0.0,0.0,0.0,0.0,0.0,0.0,0.0,0.0,0.0,0.0,3.7567,3.745,3.741,3.7128,3.6953,3.6913,3.6913,3.6913,3.6913,3.6913,3.6913,3.6913,3.6913,3.6913,3.6913,3.7342,3.7517,3.7529,3.7781,3.7929,3.7928,3.8223,3.8359,3.8388,3.8611,3.8689,3.8689,3.8689,3.8689,3.8689,3.8689,3.8689,3.8689,3.8689,3.8689,3.8769,3.906,3.9564,4.0274,4.1398,4.2131,4.2782,4.3594,4.3366,4.2781,4.2282,4.1695,4.1151,4.0606,4.0512,4.0512,4.0512,4.0512,4.0512,4.0512,4.0512,4.0512,4.0512,4.0512,4.0512,4.0512,4.0512,4.0512,4.0512,4.0512,4.0512,4.0512,4.0512,4.0512,4.0512,4.0512,4.0512,4.0512,4.0512,4.0471,4.0431,4.0405,4.0257,3.996,3.996,3.9647,3.91,3.91,3.8953,2.9489,3.5472,4.0301,4.3282,4.398,4.3999,4.4164,4.3197,4.2007,4.114,3.9986,0.0,0.0,0.0,0.0,0.0,0.0,0.0,0.0,0.0,0.0,0.0,0.0,0.0,0.0,0.0,0.0,0.0,3.7195,3.7128,3.7128,3.698,3.6913,3.6913,3.6913,3.6913,3.6913,3.6913,3.6913,3.6913,3.6913,3.6913,3.6913,3.706,3.7235,3.741,3.7674,3.7781,3.7821,3.8143,3.8292,3.8319,3.8582,3.8689,3.8689,3.8689,3.8689,3.8689,3.8689,3.8689,3.8689,3.8689,3.8689,3.8769,3.902,3.979,4.0924,4.2529,4.3664,4.4712,4.6019,4.5665,4.4683,4.3667,4.2677,4.1695,4.071,4.0512,4.0512,4.0512,4.0512,4.0512,4.0512,4.0512,4.0512,4.0512,4.0512,4.0512,4.0512,4.0512,4.0512,4.0512,4.0512,4.0512,4.0512,4.0512,4.0512,4.0512,4.0512,4.0512,4.0512,4.0512,4.0401,4.0214,4.0401,4.0334,3.9997,3.9997,3.9673,3.91,3.91,3.8953,3.1835,3.6247,3.9109,4.171,4.238,4.2482,0.0,0.0,4.1089,0.0,3.9585,3.8321,3.7416,0.0,0.0,0.0,0.0,0.0,0.0,0.0,0.0,0.0,0.0,0.0,0.0,0.0,0.0,0.0,3.6913,3.6913,3.6913,3.6913,3.6913,3.6913,3.6913,3.6913,3.6913,3.6913,3.6913,3.6913,3.6913,3.6913,3.6913,3.6913,3.7048,3.7275,3.7489,3.7567,3.7607,3.7929,3.8105,3.8212,3.8506,3.8651,3.8689,3.8689,3.8689,3.8689,3.8689,3.8689,3.8689,3.8689,3.8789,3.899,3.9337,4.0454,4.2006,4.4061,4.5515,4.6835,4.8547,4.8075,4.6822,4.5502,4.425,4.2855,4.0909,4.0512,4.0512,4.0512,4.0512,4.0512,4.0512,4.0512,4.0512,4.0512,4.0512,4.0512,4.0512,4.0512,4.0512,4.0512,4.0512,4.0512,4.0512,4.0512,4.0512,4.0512,4.0512,4.0512,4.0512,4.0512,4.0334,3.9997,4.0254,4.0187,3.9783,3.9783,3.95,3.8993,3.8993,3.8886,3.0547,3.3605,3.6162,3.8035,3.8864,3.9452,4.0291,0.0,3.9769,3.9931,3.9033,3.7961,3.7094,3.6913,0.0,0.0,0.0,0.0,0.0,0.0,0.0,0.0,0.0,0.0,0.0,0.0,0.0,0.0,3.6913,3.6913,3.6913,3.6913,3.6913,3.6913,3.6913,3.6913,3.6913,3.6913,3.6913,3.6913,3.6913,3.6913,3.6913,3.6913,3.6913,3.6912,3.6953,3.6953,3.698,3.7301,3.7595,3.7849,3.8183,3.8477,3.8689,3.8689,3.8689,3.8689,3.8689,3.8689,3.8689,3.8689,3.9081,3.966,4.0251,4.1704,4.3713,4.6222,4.7796,4.9166,5.1108,5.073,4.9474,4.8198,4.6926,4.4996,4.1299,4.0512,4.0512,4.0512,4.0512,4.0512,4.0512,4.0512,4.0512,4.0512,4.0512,4.0512,4.0512,4.0512,4.0512,4.0512,4.0512,4.0512,4.0512,4.0512,4.0512,4.0512,4.0512,4.0512,4.0512,4.0512,4.0334,3.9997,4.004,3.9743,3.9169,3.9169,3.8993,3.8729,3.8729,3.8731,2.798,3.0468,3.268,3.4377,3.5742,3.7099,3.8648,3.8986,3.922,4.0168,3.9227,3.8057,3.7337,3.7048,3.6913,3.6913,0.0,0.0,0.0,0.0,0.0,0.0,0.0,0.0,0.0,0.0,0.0,0.0,0.0,3.6805,3.6659,3.6647,3.6553,3.6393,3.638,3.638,3.638,3.638,3.6473,3.6647,3.7044,3.7097,3.6913,3.7314,3.7286,3.6913,3.6913,3.6913,3.6912,3.7275,3.7448,3.7595,3.8105,3.8359,3.8466,3.8651,3.8689,3.8689,3.8689,3.8689,3.8689,3.8689,3.9371,4.0367,4.1346,4.3246,4.5642,4.8577,5.0318,5.1727,5.3675,5.3267,5.1851,4.9734,4.8281,4.6776,4.4623,4.2855,4.159,4.1151,4.0754,4.0512,4.0512,4.0512,4.0512,4.0512,4.0512,4.0512,4.0512,4.0512,4.0512,4.0512,4.0512,4.0512,4.0512,4.0512,4.0512,4.0512,4.0512,4.0512,4.0512,4.0512,4.0254,3.9743,3.9746,3.953,3.91,3.91,3.8953,3.8689,3.8689,3.8689,2.5865,2.7875,2.9813,3.1154,3.2781,3.4531,3.6373,3.7249,3.8093,3.9591,3.8959,3.8027,3.7592,3.7166,3.6906,3.6901,3.6913,0.0,0.0,0.0,0.0,0.0,0.0,0.0,0.0,0.0,0.0,0.0,0.0,0.0,3.638,3.6366,3.6273,3.6113,3.6099,3.6099,3.6099,3.6099,3.6274,3.6639,3.7142,3.7374,3.7345,3.7674,3.759,3.719,3.7009,3.6913,3.6913,3.7127,3.7301,3.745,3.7929,3.8212,3.8319,3.8582,3.8689,3.8689,3.8689,3.8689,3.8689,3.8689,3.966,4.1087,4.2476,4.4637,4.7267,5.0436,5.2106,5.3287,5.5044,5.4598,5.3221,5.1324,5.0068,4.8881,4.7443,4.4966,4.2751,4.1906,4.1057,4.0512,4.0512,4.0512,4.0512,4.0512,4.0512,4.0512,4.0512,4.0512,4.0512,4.0512,4.0512,4.0512,4.0512,4.0512,4.0512,4.0512,4.0512,4.0512,4.0512,4.0512,4.0217,3.9599,3.9599,3.9383,3.8982,3.8982,3.8876,3.8689,3.8689,3.8689,0.0,0.0,0.0,0.0,0.0,3.1693,3.3303,3.4736,3.6255,3.809,3.8196,3.7884,3.7802,3.7313,3.6924,3.6889,3.6873,3.6873,3.6873,0.0,0.0,0.0,0.0,0.0,0.0,0.0,0.0,0.0,3.6473,3.6366,3.6099,3.6086,3.61,3.61,3.61,3.6127,3.6127,3.6127,3.6397,3.6922,3.725,3.7687,3.819,3.7963,3.7839,3.7797,3.7217,3.6941,3.6941,3.6913,3.7087,3.741,3.7674,3.7996,3.8319,3.8582,3.8689,3.8689,3.8689,3.8689,3.8689,3.8689,3.9991,4.1862,4.3629,4.5896,4.8517,5.1744,5.3089,5.3821,5.5147,5.4645,5.3594,5.3019,5.2384,5.1399,4.9474,4.6556,4.3937,4.2689,4.1393,4.0512,4.0512,4.0512,4.0512,4.0512,4.0512,4.0512,4.0512,4.0512,4.0512,4.0512,4.0512,4.0512,4.0512,4.0512,4.0512,4.0512,4.0512,4.0512,4.0512,4.0512,4.0217,3.9599,3.9599,3.9306,3.8689,3.8689,3.8689,3.8689,3.8689,3.8689,2.1818,0.0,0.0,0.0,0.0,0.0,0.0,3.2468,3.4822,3.7203,3.8113,3.8692,3.9388,3.8625,3.7632,3.6758,3.646,3.6313,3.6313,3.6313,0.0,0.0,0.0,0.0,0.0,0.0,0.0,0.0,3.6313,3.6059,3.5765,3.5924,3.6028,3.6028,3.6464,3.6662,3.6662,3.6662,3.6852,3.7207,3.7731,3.8066,3.8204,3.8588,3.8619,3.8445,3.8266,3.8197,3.8142,3.7259,3.6953,3.7087,3.7607,3.7849,3.7996,3.8515,3.8689,3.8689,3.8689,3.8689,3.8689,3.8689,4.028,4.2577,4.4748,4.7144,4.9745,5.294,5.3947,5.4307,5.5243,5.5245,5.4949,5.477,5.4616,5.3842,5.1527,4.8881,4.6168,4.3561,4.1664,4.0512,4.0512,4.0512,4.0512,4.0512,4.0512,4.0512,4.0512,4.0512,4.0512,4.0512,4.0512,4.0512,4.0512,4.0512,4.0512,4.0512,4.0512,4.0512,4.0512,4.0512,4.0217,3.9599,3.9599,3.9306,3.8689,3.8689,3.8689,3.8689,3.8689,3.8689,2.1597,0.0,0.0,0.0,0.0,0.0,2.8438,3.0855,3.3493,0.0,3.7032,3.7737,3.833,3.7512,3.6362,3.5231,3.5144,3.5421,3.602,3.6099,3.6099,0.0,0.0,0.0,0.0,3.6326,3.6273,3.6153,3.5979,3.5832,3.5776,3.5918,3.6112,3.6374,3.6728,3.6911,3.6911,3.6911,3.71,3.7467,3.7978,3.8315,3.8552,3.8917,3.9023,3.8866,3.8746,3.8692,3.8665,3.7922,3.7646,3.7687,3.8163,3.828,3.8231,3.8717,3.8973,3.911,3.9371,3.9631,3.992,4.0151,4.1733,4.393,4.6045,4.8233,5.0577,5.3478,5.4538,5.4905,5.5381,5.5491,5.5491,5.5491,5.5491,5.4892,5.269,5.0401,4.7794,4.4384,4.1966,4.0512,4.0512,4.0512,4.0512,4.0512,4.0512,4.0512,4.0512,4.0512,4.0512,4.0512,4.0512,4.0512,4.0512,4.0512,4.0512,4.0512,4.0512,4.0512,4.0512,4.0512,4.0217,3.9599,3.9599,3.9306,3.8689,3.8689,3.8689,3.8689,3.8689,3.8689,2.285,2.3481,0.0,0.0,0.0,0.0,2.7317,2.9606,3.2188,0.0,3.5266,3.5678,3.5798,3.4962,3.392,3.2925,3.3339,3.4291,3.5763,3.5966,3.5966,3.5952,3.6006,0.0,3.6006,3.6033,3.5912,3.5618,3.5578,3.5684,3.5968,3.6059,3.6374,3.6963,3.7042,3.7094,3.7094,3.7094,3.733,3.7788,3.8087,3.8523,3.9073,3.9134,3.9179,3.9238,3.9004,3.8912,3.8912,3.8912,3.8816,3.8734,3.9015,3.8931,3.8757,3.9013,3.9372,3.985,4.0469,4.1173,4.1891,4.2577,4.3959,4.5727,4.7468,4.9213,5.1131,5.3599,5.4896,5.5491,5.5491,5.5491,5.5491,5.5491,5.5491,5.5016,5.3267,5.1423,4.9031,4.5428,4.2541,4.068,4.0616,4.0542,4.0512,4.0512,4.0512,4.0512,4.0512,4.0512,4.0512,4.0512,4.0512,4.0512,4.0512,4.0512,4.0512,4.0512,4.0512,4.0512,4.0512,4.0471,4.0187,3.9599,3.9533,3.9239,3.8689,3.8689,3.8689,3.8689,3.8689,3.8689,2.4115,2.439,2.4744,0.0,0.0,0.0,0.0,2.8242,3.0612,3.2664,3.3596,3.416,3.4572,3.3579,3.2442,3.1538,3.2043,3.3133,3.4806,3.5197,3.5244,3.5069,3.5431,3.5591,3.5391,3.5578,3.5672,3.5605,3.5418,3.5495,3.5968,3.6453,3.699,3.7539,3.7956,3.8205,3.8205,3.8205,3.8257,3.8335,3.8419,3.8778,3.9395,3.9405,3.9728,4.0209,4.0173,4.0147,4.0147,4.0147,3.9585,3.8734,3.9015,3.9071,3.9029,3.9088,3.9792,4.0832,4.1646,4.2661,4.3758,4.4845,4.6145,4.7519,4.8773,5.012,5.1645,5.3728,5.4896,5.5491,5.5491,5.5491,5.5491,5.5491,5.5491,5.512,5.3796,5.2413,5.0626,4.7887,4.4489,4.1862,4.1319,4.0815,4.0512,4.0512,4.0512,4.0512,4.0512,4.0512,4.0512,4.0512,4.0512,4.0512,4.0512,4.0512,4.0512,4.0512,4.0512,4.0512,4.0512,4.0254,3.993,3.9599,3.9132,3.8838,3.8689,3.8689,3.8689,3.8689,3.8689,3.8689,2.6007,2.6066,2.6098,2.5461,0.0,0.0,0.0,0.0,2.9162,3.0619,3.1062,3.1223,3.1302,3.0578,2.9748,2.9121,2.9868,3.1043,3.2464,3.3844,3.4788,3.4974,3.4977,3.4951,3.5003,3.511,3.5257,3.5404,3.5284,3.5559,3.6401,3.6728,3.7277,3.806,3.8347,3.8517,3.8517,3.8517,3.8517,3.8517,3.8517,3.8766,3.9249,3.9409,3.9773,4.0255,4.0429,4.0517,4.0517,4.0517,4.0147,3.9612,3.9758,3.9987,4.0246,4.0236,4.1242,4.2755,4.3783,4.4949,4.6149,4.734,4.8384,4.929,5.0193,5.1444,5.2752,5.3722,5.4428,5.4905,5.4905,5.4905,5.483,5.4558,5.44,5.3968,5.2774,5.1668,5.0247,4.8077,4.5339,4.3021,4.2073,4.1121,4.0512,4.0512,4.0512,4.0512,4.0512,4.0512,4.0512,4.0512,4.0512,4.0512,4.0512,4.0512,4.0512,4.0512,4.0512,4.0431,4.0254,4.0077,3.9783,3.9343,3.8916,3.8689,3.8689,3.8689,3.8689,3.8689,3.8689,3.8689,0.0,0.0,0.0,0.0,0.0,2.6848,0.0,0.0,0.0,0.0,0.0,0.0,0.0,0.0,0.0,0.0,0.0,0.0,0.0,3.1598,0.0,3.4237,3.4082,3.3988,3.4254,3.4428,3.4629,3.483,3.4961,3.5523,3.6677,3.6863,3.7429,3.8465,3.8517,3.8517,3.8517,3.8517,3.8517,3.8517,3.8517,3.8707,3.9102,3.9392,3.9729,4.0109,4.0373,4.0517,4.0517,4.0517,4.0517,4.0517,4.0517,4.0964,4.1699,4.187,4.3211,4.5153,4.6398,4.7636,4.8824,4.9923,5.0604,5.1092,5.1577,5.2643,5.3696,5.3696,5.398,5.431,5.431,5.431,5.4142,5.3482,5.302,5.2395,5.12,5.0246,4.9109,4.7342,4.5532,4.3875,4.2615,4.1319,4.0512,4.0512,4.0512,4.0512,4.0512,4.0512,4.0512,4.0512,4.0441,4.0401,4.0401,4.0364,4.0324,4.0324,4.0324,4.0217,3.993,3.9863,3.9567,3.902,3.8809,3.8689,3.8689,3.8689,3.8689,3.8689,3.8689,3.8689,0.0,0.0,0.0,0.0,2.8458,0.0,0.0,0.0,0.0,0.0,0.0,0.0,0.0,0.0,0.0,0.0,0.0,0.0,2.6884,2.7662,2.8904,3.1045,3.1917,3.2372,3.2398,3.3106,3.3574,3.3614,3.4042,3.4828,3.6044,3.6788,3.759,3.8477,3.8517,3.8517,3.8517,3.8517,3.8517,3.8517,3.8517,3.8839,3.9439,3.9468,3.9846,4.0446,4.049,4.0517,4.0517,4.0517,4.0517,4.0517,4.0517,4.1368,4.273,4.3511,4.5474,4.7966,4.9402,5.0699,5.1806,5.2481,5.2745,5.2818,5.2891,5.3293,5.3696,5.3696,5.398,5.431,5.431,5.431,5.404,5.2967,5.203,5.1091,4.9884,4.8885,4.7867,4.6556,4.5189,4.3832,4.2615,4.1319,4.0512,4.0512,4.0512,4.0512,4.0512,4.0512,4.0512,4.0512,4.0224,4.0067,4.0067,3.9853,3.9706,3.9706,3.9706,3.9709,3.964,3.9353,3.906,3.8769,3.8731,3.8689,3.8689,3.8689,3.8689,3.8689,3.8689,3.8689,0.0,0.0,0.0,0.0,0.0,0.0,0.0,0.0,2.5919,0.0,0.0,0.0,0.0,0.0,0.0,0.0,2.3319,0.0,0.0,0.0,2.6196,0.0,0.0,0.0,3.1263,3.1824,3.2388,0.0,3.3287,3.417,3.5813,3.6552,3.7325,3.8251,3.8265,3.8353,3.8517,3.8517,3.8517,3.8517,3.8517,3.8854,3.9509,3.9509,3.9875,4.0517,4.0517,4.0517,4.0517,4.0517,4.0517,4.0517,4.0517,4.1731,4.3685,4.4742,4.7022,4.9709,5.1004,5.2026,5.2745,5.3027,5.3082,5.3082,5.3082,5.3219,5.3357,5.3357,5.3467,5.3613,5.3613,5.3613,5.3228,5.1725,5.0422,4.9091,4.7524,4.6203,4.5092,4.4225,4.328,4.2347,4.1513,4.089,4.0512,4.0512,4.0512,4.0512,4.0512,4.0512,4.0431,4.0224,4.0077,3.993,3.9786,3.9666,3.9599,3.9599,3.9423,3.9316,3.9316,3.9022,3.8809,3.8689,3.8689,3.8689,3.8689,3.8689,3.8689,3.8689,3.8689,3.8689,3.5944,0.0,0.0,0.0,0.0,0.0,0.0,0.0,0.0,0.0,0.0,0.0,0.0,0.0,0.0,0.0,0.0,2.2536,0.0,0.0,0.0,0.0,0.0,0.0,0.0,3.0287,3.083,3.168,0.0,3.3128,3.4885,3.597,3.6972,3.794,3.8042,3.8221,3.8503,3.8517,3.8517,3.8517,3.8517,3.8854,3.9509,3.9509,3.9875,4.0517,4.0517,4.0517,4.0517,4.0517,4.0586,4.0735,4.0912,4.2559,4.4963,4.6178,4.856,5.1385,5.2536,5.3027,5.3082,5.3082,5.3082,5.3082,5.3082,5.3082,5.3082,5.3082,5.3082,5.3082,5.3082,5.3082,5.2627,5.0707,4.901,4.7244,4.5248,4.353,4.2215,4.1788,4.1331,4.0829,4.0399,4.0292,4.0257,4.0257,4.0257,4.0257,4.0257,4.0257,4.0147,3.992,3.9823,3.9677,3.9493,3.9383,3.9346,3.9346,3.9129,3.8993,3.8993,3.8809,3.8689,3.8689,3.8689,3.8689,3.8689,3.8689,3.8689,3.8689,3.8689,3.8689,0.0,0.0,0.0,0.0,0.0,0.0,0.0,0.0,2.7296,0.0,0.0,0.0,0.0,0.0,0.0,0.0,0.0,0.0,0.0,0.0,0.0,0.0,0.0,0.0,0.0,2.8337,2.8818,0.0,3.0315,3.1587,3.2845,3.4943,3.6573,3.7588,3.7925,3.8221,3.8503,3.8517,3.8517,3.8517,3.8517,3.8854,3.9509,3.9509,3.9875,4.0517,4.0517,4.0517,4.0517,4.0517,4.0815,4.1333,4.1931,4.4002,4.6839,4.8013,5.0386,5.3191,5.4403,5.4051,5.3082,5.3082,5.3082,5.3082,5.3082,5.3082,5.3082,5.3082,5.3082,5.3082,5.3082,5.3082,5.2509,5.0172,4.7995,4.5814,4.3423,4.1225,3.9731,3.9702,3.9672,3.9629,3.9629,3.9629,3.964,3.964,3.964,3.964,3.964,3.964,3.964,3.9599,3.9316,3.9127,3.9129,3.8876,3.8729,3.8729,3.8729,3.8731,3.8731,3.8689,3.8689,3.8689,3.8689,3.8689,3.8689,3.8689,3.8689,3.8689,3.8689,3.8689,0.0,0.0,3.8511,3.7135,0.0,0.0,0.0,0.0,0.0,0.0,0.0,0.0,0.0,0.0,0.0,0.0,0.0,0.0,0.0,0.0,0.0,0.0,0.0,0.0,0.0,0.0,0.0,0.0,2.8194,0.0,3.1934,3.3576,3.5198,3.689,3.7486,3.8002,3.8503,3.8517,3.8517,3.8517,3.8517,3.8854,3.9509,3.9509,3.9875,4.0517,4.0517,4.0517,4.0517,4.0517,4.1048,4.197,4.2956,4.5206,4.8064,4.9202,5.1361,5.3816,5.462,5.4106,5.3082,5.3082,5.3082,5.3082,5.3082,5.3082,5.3082,5.3082,5.3082,5.3082,5.3082,5.3082,5.26,5.0652,4.8752,4.6772,4.4753,4.2813,4.134,4.0935,4.0485,4.0064,3.967,3.9275,3.9129,3.9533,3.9599,3.9599,3.9599,3.9599,3.9533,3.9273,3.9167,3.902,3.8846,3.8769,3.8689,3.8689,3.8689,3.8689,3.8689,3.8689,3.8689,3.8689,3.8689,3.8689,3.8689,3.8689,3.8689,3.8689,3.8689,3.8689,4.376,4.2806,0.0,4.0618,3.8821,0.0,3.477,0.0,0.0,0.0,0.0,0.0,0.0,0.0,0.0,0.0,0.0,0.0,0.0,0.0,0.0,0.0,0.0,0.0,0.0,0.0,2.5042,2.5867,2.6405,2.7804,0.0,0.0,3.4103,3.6202,3.7149,3.7885,3.8477,3.8517,3.8517,3.8517,3.8517,3.8854,3.9509,3.9509,3.9875,4.0517,4.0517,4.0597,4.079,4.1021,4.1903,4.3268,4.4608,4.6791,4.9331,5.0429,5.2411,5.4655,5.5052,5.4403,5.3427,5.3427,5.3291,5.3082,5.3082,5.3082,5.3082,5.3082,5.3082,5.3082,5.3082,5.3082,5.27,5.1165,4.9584,4.7982,4.6402,4.4794,4.3403,4.2577,4.1733,4.0886,4.005,3.9239,3.8836,3.9239,3.9279,3.9279,3.9279,3.9279,3.9199,3.8982,3.8953,3.8886,3.8731,3.8689,3.8689,3.8689,3.8689,3.8689,3.8689,3.8689,3.8689,3.8689,3.8689,3.8689,3.8689,3.8689,3.8689,3.8689,3.8689,3.8689]}]]